Time,TemperatureF,DewpointF,PressureIn,WindDirection,WindDirectionDegrees,WindSpeedMPH,WindSpeedGustMPH,Humidity,HourlyPrecipIn,Conditions,Clouds,dailyrainin,SoftwareType,DateUTC
2013-01-22 00:00:00,41.0,23.3,29.91,West,270,4.3,4.3,49,0.00,,CLR,0.00,VWS V14.01,2013-01-22 05:00:00,
2013-01-22 00:01:00,40.8,23.1,29.91,WNW,292,5.8,5.8,49,0.00,,CLR,0.00,VWS V14.01,2013-01-22 05:01:00,
2013-01-22 00:02:00,40.4,22.8,29.91,West,270,5.8,5.8,49,0.00,,CLR,0.00,VWS V14.01,2013-01-22 05:02:00,
2013-01-22 00:03:00,40.8,23.1,29.91,West,270,6.3,6.3,49,0.00,,CLR,0.00,VWS V14.01,2013-01-22 05:03:00,
2013-01-22 00:04:00,40.4,22.8,29.91,WSW,248,5.6,5.6,49,0.00,,CLR,0.00,VWS V14.01,2013-01-22 05:04:00,
2013-01-22 00:05:00,40.8,23.1,29.91,West,270,4.9,4.9,49,0.00,,CLR,0.00,VWS V14.01,2013-01-22 05:05:00,
2013-01-22 00:06:00,40.6,23.0,29.91,West,270,3.6,3.6,49,0.00,,CLR,0.00,VWS V14.01,2013-01-22 05:06:00,
2013-01-22 00:07:00,40.6,23.0,29.91,WSW,248,4.0,4.0,49,0.00,,CLR,0.00,VWS V14.01,2013-01-22 05:07:00,
2013-01-22 00:08:00,40.2,22.6,29.91,West,270,6.9,6.9,49,0.00,,CLR,0.00,VWS V14.01,2013-01-22 05:08:00,
2013-01-22 00:09:00,40.2,22.6,29.91,West,270,6.9,6.9,49,0.00,,CLR,0.00,VWS V14.01,2013-01-22 05:09:00,
2013-01-22 00:10:00,40.6,23.0,29.91,West,270,4.0,4.0,49,0.00,,CLR,0.00,VWS V14.01,2013-01-22 05:10:00,
2013-01-22 00:11:00,40.8,23.1,29.91,West,270,4.7,4.7,49,0.00,,CLR,0.00,VWS V14.01,2013-01-22 05:11:00,
2013-01-22 00:12:00,40.6,23.0,29.91,West,270,5.6,5.6,49,0.00,,CLR,0.00,VWS V14.01,2013-01-22 05:12:00,
2013-01-22 00:13:00,41.0,23.3,29.91,WSW,248,5.6,5.6,49,0.00,,CLR,0.00,VWS V14.01,2013-01-22 05:13:00,
2013-01-22 00:14:00,41.0,23.3,29.91,WSW,248,5.6,5.6,49,0.00,,CLR,0.00,VWS V14.01,2013-01-22 05:14:00,
2013-01-22 00:15:00,40.6,23.0,29.91,West,270,6.5,6.5,49,0.00,,CLR,0.00,VWS V14.01,2013-01-22 05:15:00,
2013-01-22 00:16:00,40.6,23.0,29.91,West,270,7.2,7.2,49,0.00,,CLR,0.00,VWS V14.01,2013-01-22 05:16:00,
2013-01-22 00:17:00,40.2,22.6,29.91,WNW,292,4.3,4.3,49,0.00,,CLR,0.00,VWS V14.01,2013-01-22 05:17:00,
2013-01-22 00:18:00,40.4,22.8,29.91,WNW,292,4.0,4.0,49,0.00,,CLR,0.00,VWS V14.01,2013-01-22 05:18:00,
2013-01-22 00:19:00,40.4,22.8,29.91,WNW,292,4.0,4.0,49,0.00,,CLR,0.00,VWS V14.01,2013-01-22 05:19:00,
2013-01-22 00:20:00,40.2,22.6,29.88,West,270,6.5,6.5,49,0.00,,CLR,0.00,VWS V14.01,2013-01-22 05:20:00,
2013-01-22 00:21:00,40.6,23.0,29.88,WSW,248,5.8,5.8,49,0.00,,CLR,0.00,VWS V14.01,2013-01-22 05:21:00,
2013-01-22 00:22:00,40.2,22.6,29.88,West,270,6.0,6.0,49,0.00,,CLR,0.00,VWS V14.01,2013-01-22 05:22:00,
2013-01-22 00:23:00,40.2,22.6,29.88,West,270,6.0,6.0,49,0.00,,CLR,0.00,VWS V14.01,2013-01-22 05:23:00,
2013-01-22 00:24:00,40.2,22.6,29.88,West,270,6.0,6.0,49,0.00,,CLR,0.00,VWS V14.01,2013-01-22 05:24:00,
2013-01-22 00:25:00,39.7,22.1,29.88,West,270,4.3,4.3,49,0.00,,CLR,0.00,VWS V14.01,2013-01-22 05:25:00,
2013-01-22 00:26:00,40.1,22.5,29.88,West,270,4.0,4.0,49,0.00,,CLR,0.00,VWS V14.01,2013-01-22 05:26:00,
2013-01-22 00:27:00,40.1,22.5,29.88,West,270,4.0,4.0,49,0.00,,CLR,0.00,VWS V14.01,2013-01-22 05:27:00,
2013-01-22 00:28:00,39.9,22.3,29.88,WNW,292,4.3,4.3,49,0.00,,CLR,0.00,VWS V14.01,2013-01-22 05:28:00,
2013-01-22 00:29:00,39.9,22.3,29.88,WNW,292,4.3,4.3,49,0.00,,CLR,0.00,VWS V14.01,2013-01-22 05:29:00,
2013-01-22 00:31:00,39.9,22.3,29.88,WSW,248,3.6,3.6,49,0.00,,CLR,0.00,VWS V14.01,2013-01-22 05:31:00,
2013-01-22 00:32:00,39.7,22.1,29.88,West,270,4.9,4.9,49,0.00,,CLR,0.00,VWS V14.01,2013-01-22 05:32:00,
2013-01-22 00:33:00,39.3,21.8,29.88,WSW,248,3.8,3.8,49,0.00,,CLR,0.00,VWS V14.01,2013-01-22 05:33:00,
2013-01-22 00:34:00,39.0,21.5,29.88,WSW,248,3.6,3.6,49,0.00,,CLR,0.00,VWS V14.01,2013-01-22 05:34:00,
2013-01-22 00:35:00,39.3,21.8,29.88,WSW,248,3.1,3.1,49,0.00,,CLR,0.00,VWS V14.01,2013-01-22 05:35:00,
2013-01-22 00:36:00,38.4,21.4,29.88,West,270,5.4,5.4,50,0.00,,CLR,0.00,VWS V14.01,2013-01-22 05:36:00,
2013-01-22 00:37:00,38.4,21.4,29.88,WSW,248,4.0,4.0,50,0.00,,CLR,0.00,VWS V14.01,2013-01-22 05:37:00,
2013-01-22 00:38:00,39.0,21.5,29.88,West,270,3.8,3.8,49,0.00,,CLR,0.00,VWS V14.01,2013-01-22 05:38:00,
2013-01-22 00:39:00,38.8,21.3,29.88,WSW,248,4.9,4.9,49,0.00,,CLR,0.00,VWS V14.01,2013-01-22 05:39:00,
2013-01-22 00:40:00,38.8,21.3,29.88,WSW,248,3.8,3.8,49,0.00,,CLR,0.00,VWS V14.01,2013-01-22 05:40:00,
2013-01-22 00:41:00,38.1,21.1,29.88,West,270,3.1,3.1,50,0.00,,CLR,0.00,VWS V14.01,2013-01-22 05:41:00,
2013-01-22 00:42:00,37.7,20.8,29.88,West,270,4.0,4.0,50,0.00,,CLR,0.00,VWS V14.01,2013-01-22 05:42:00,
2013-01-22 00:43:00,38.3,21.3,29.88,WSW,248,4.0,4.0,50,0.00,,CLR,0.00,VWS V14.01,2013-01-22 05:43:00,
2013-01-22 00:44:00,37.9,20.9,29.88,West,270,3.4,3.4,50,0.00,,CLR,0.00,VWS V14.01,2013-01-22 05:44:00,
2013-01-22 00:45:00,37.9,20.9,29.88,WSW,248,3.1,3.1,50,0.00,,CLR,0.00,VWS V14.01,2013-01-22 05:45:00,
2013-01-22 00:46:00,38.3,21.3,29.88,WSW,248,3.4,3.4,50,0.00,,CLR,0.00,VWS V14.01,2013-01-22 05:46:00,
2013-01-22 00:47:00,37.9,20.9,29.88,WSW,248,3.1,3.1,50,0.00,,CLR,0.00,VWS V14.01,2013-01-22 05:47:00,
2013-01-22 00:48:00,37.7,20.8,29.88,WSW,248,2.7,2.7,50,0.00,,CLR,0.00,VWS V14.01,2013-01-22 05:48:00,
2013-01-22 00:49:00,37.5,20.6,29.88,WSW,248,3.6,3.6,50,0.00,,CLR,0.00,VWS V14.01,2013-01-22 05:49:00,
2013-01-22 00:50:00,37.7,20.8,29.88,West,270,2.7,2.7,50,0.00,,CLR,0.00,VWS V14.01,2013-01-22 05:50:00,
2013-01-22 00:51:00,37.5,20.6,29.91,West,270,4.3,4.3,50,0.00,,CLR,0.00,VWS V14.01,2013-01-22 05:51:00,
2013-01-22 00:52:00,37.5,20.6,29.91,West,270,2.9,2.9,50,0.00,,CLR,0.00,VWS V14.01,2013-01-22 05:52:00,
2013-01-22 00:53:00,37.5,20.6,29.91,West,270,3.6,3.6,50,0.00,,CLR,0.00,VWS V14.01,2013-01-22 05:53:00,
2013-01-22 00:54:00,37.7,20.8,29.91,West,270,3.4,3.4,50,0.00,,CLR,0.00,VWS V14.01,2013-01-22 05:54:00,
2013-01-22 00:55:00,37.7,20.8,29.91,West,270,3.6,3.6,50,0.00,,CLR,0.00,VWS V14.01,2013-01-22 05:55:00,
2013-01-22 00:56:00,37.5,20.6,29.91,WSW,248,3.6,3.6,50,0.00,,CLR,0.00,VWS V14.01,2013-01-22 05:56:00,
2013-01-22 00:57:00,37.5,20.6,29.91,WSW,248,3.6,3.6,50,0.00,,CLR,0.00,VWS V14.01,2013-01-22 05:57:00,
2013-01-22 00:58:00,37.5,20.6,29.91,WSW,248,4.3,4.3,50,0.00,,CLR,0.00,VWS V14.01,2013-01-22 05:58:00,
2013-01-22 00:59:00,37.0,20.1,29.91,WSW,248,3.1,3.1,50,0.00,,CLR,0.00,VWS V14.01,2013-01-22 05:59:00,
2013-01-22 01:00:00,37.0,20.1,29.91,WSW,248,3.4,3.4,50,0.00,,CLR,0.00,VWS V14.01,2013-01-22 06:00:00,
2013-01-22 01:01:00,37.0,20.1,29.91,WSW,248,3.1,3.1,50,0.00,,CLR,0.00,VWS V14.01,2013-01-22 06:01:00,
2013-01-22 01:02:00,37.0,20.1,29.91,WSW,248,3.1,3.1,50,0.00,,CLR,0.00,VWS V14.01,2013-01-22 06:02:00,
2013-01-22 01:03:00,36.6,19.8,29.91,West,270,3.4,3.4,50,0.00,,CLR,0.00,VWS V14.01,2013-01-22 06:03:00,
2013-01-22 01:04:00,36.6,19.8,29.91,WSW,248,2.7,2.7,50,0.00,,CLR,0.00,VWS V14.01,2013-01-22 06:04:00,
2013-01-22 01:05:00,36.6,19.8,29.91,WSW,248,3.4,3.4,50,0.00,,CLR,0.00,VWS V14.01,2013-01-22 06:05:00,
2013-01-22 01:06:00,37.7,20.8,29.88,West,270,3.8,3.8,50,0.00,,CLR,0.00,VWS V14.01,2013-01-22 06:06:00,
2013-01-22 01:07:00,37.0,20.1,29.88,WSW,248,3.8,3.8,50,0.00,,CLR,0.00,VWS V14.01,2013-01-22 06:07:00,
2013-01-22 01:08:00,37.2,20.3,29.88,WSW,248,5.4,5.4,50,0.00,,CLR,0.00,VWS V14.01,2013-01-22 06:08:00,
2013-01-22 01:09:00,36.6,19.8,29.88,West,270,4.3,4.3,50,0.00,,CLR,0.00,VWS V14.01,2013-01-22 06:09:00,
2013-01-22 01:10:00,36.6,19.8,29.88,West,270,4.3,4.3,50,0.00,,CLR,0.00,VWS V14.01,2013-01-22 06:10:00,
2013-01-22 01:11:00,37.4,20.4,29.88,West,270,4.3,4.3,50,0.00,,CLR,0.00,VWS V14.01,2013-01-22 06:11:00,
2013-01-22 01:12:00,37.0,20.1,29.88,WSW,248,4.0,4.0,50,0.00,,CLR,0.00,VWS V14.01,2013-01-22 06:12:00,
2013-01-22 01:13:00,37.4,20.4,29.88,WSW,248,5.6,5.6,50,0.00,,CLR,0.00,VWS V14.01,2013-01-22 06:13:00,
2013-01-22 01:14:00,36.8,19.9,29.88,West,270,5.6,5.6,50,0.00,,CLR,0.00,VWS V14.01,2013-01-22 06:14:00,
2013-01-22 01:15:00,36.8,19.9,29.88,West,270,5.6,5.6,50,0.00,,CLR,0.00,VWS V14.01,2013-01-22 06:15:00,
2013-01-22 01:16:00,37.2,20.3,29.88,West,270,3.4,3.4,50,0.00,,CLR,0.00,VWS V14.01,2013-01-22 06:16:00,
2013-01-22 01:17:00,37.4,20.4,29.88,West,270,5.4,5.4,50,0.00,,CLR,0.00,VWS V14.01,2013-01-22 06:17:00,
2013-01-22 01:18:00,37.0,20.1,29.88,WSW,248,3.8,3.8,50,0.00,,CLR,0.00,VWS V14.01,2013-01-22 06:18:00,
2013-01-22 01:19:00,36.8,19.9,29.88,West,270,3.8,3.8,50,0.00,,CLR,0.00,VWS V14.01,2013-01-22 06:19:00,
2013-01-22 01:20:00,36.8,19.9,29.88,West,270,3.8,3.8,50,0.00,,CLR,0.00,VWS V14.01,2013-01-22 06:20:00,
2013-01-22 01:21:00,36.8,19.9,29.88,West,270,3.4,3.4,50,0.00,,CLR,0.00,VWS V14.01,2013-01-22 06:21:00,
2013-01-22 01:22:00,36.5,19.6,29.88,WSW,248,3.1,3.1,50,0.00,,CLR,0.00,VWS V14.01,2013-01-22 06:22:00,
2013-01-22 01:23:00,37.2,20.3,29.88,West,270,4.3,4.3,50,0.00,,CLR,0.00,VWS V14.01,2013-01-22 06:23:00,
2013-01-22 01:24:00,37.4,20.4,29.88,West,270,4.0,4.0,50,0.00,,CLR,0.00,VWS V14.01,2013-01-22 06:24:00,
2013-01-22 01:25:00,37.4,20.4,29.88,West,270,4.0,4.0,50,0.00,,CLR,0.00,VWS V14.01,2013-01-22 06:25:00,
2013-01-22 01:26:00,37.9,20.9,29.88,WSW,248,5.6,5.6,50,0.00,,CLR,0.00,VWS V14.01,2013-01-22 06:26:00,
2013-01-22 01:27:00,38.1,21.1,29.88,West,270,4.3,4.3,50,0.00,,CLR,0.00,VWS V14.01,2013-01-22 06:27:00,
2013-01-22 01:28:00,37.5,20.6,29.88,WSW,248,4.0,4.0,50,0.00,,CLR,0.00,VWS V14.01,2013-01-22 06:28:00,
2013-01-22 01:29:00,37.5,20.6,29.88,West,270,4.3,4.3,50,0.00,,CLR,0.00,VWS V14.01,2013-01-22 06:29:00,
2013-01-22 01:30:00,37.0,20.1,29.88,WSW,248,3.1,3.1,50,0.00,,CLR,0.00,VWS V14.01,2013-01-22 06:30:00,
2013-01-22 01:31:00,37.5,20.6,29.88,WSW,248,4.0,4.0,50,0.00,,CLR,0.00,VWS V14.01,2013-01-22 06:31:00,
2013-01-22 01:32:00,37.2,20.3,29.88,West,270,7.4,7.4,50,0.00,,CLR,0.00,VWS V14.01,2013-01-22 06:32:00,
2013-01-22 01:33:00,37.7,20.8,29.88,West,270,5.4,5.4,50,0.00,,CLR,0.00,VWS V14.01,2013-01-22 06:33:00,
2013-01-22 01:34:00,37.5,20.6,29.88,West,270,4.9,4.9,50,0.00,,CLR,0.00,VWS V14.01,2013-01-22 06:34:00,
2013-01-22 01:35:00,38.1,21.1,29.91,West,270,5.8,5.8,50,0.00,,CLR,0.00,VWS V14.01,2013-01-22 06:35:00,
2013-01-22 01:36:00,37.5,20.6,29.88,West,270,5.6,5.6,50,0.00,,CLR,0.00,VWS V14.01,2013-01-22 06:36:00,
2013-01-22 01:37:00,37.5,20.6,29.91,West,270,4.9,4.9,50,0.00,,CLR,0.00,VWS V14.01,2013-01-22 06:37:00,
2013-01-22 01:38:00,37.2,20.3,29.91,WSW,248,5.4,5.4,50,0.00,,CLR,0.00,VWS V14.01,2013-01-22 06:38:00,
2013-01-22 01:39:00,37.4,20.4,29.91,West,270,3.1,3.1,50,0.00,,CLR,0.00,VWS V14.01,2013-01-22 06:39:00,
2013-01-22 01:40:00,36.8,19.9,29.91,WSW,248,3.1,3.1,50,0.00,,CLR,0.00,VWS V14.01,2013-01-22 06:40:00,
2013-01-22 01:41:00,36.8,19.9,29.91,WSW,248,4.9,4.9,50,0.00,,CLR,0.00,VWS V14.01,2013-01-22 06:41:00,
2013-01-22 01:42:00,36.8,19.9,29.91,WSW,248,3.6,3.6,50,0.00,,CLR,0.00,VWS V14.01,2013-01-22 06:42:00,
2013-01-22 01:43:00,36.6,19.8,29.91,West,270,3.4,3.4,50,0.00,,CLR,0.00,VWS V14.01,2013-01-22 06:43:00,
2013-01-22 01:44:00,36.6,19.8,29.91,WSW,248,3.4,3.4,50,0.00,,CLR,0.00,VWS V14.01,2013-01-22 06:44:00,
2013-01-22 01:45:00,36.6,19.8,29.91,West,270,4.0,4.0,50,0.00,,CLR,0.00,VWS V14.01,2013-01-22 06:45:00,
2013-01-22 01:46:00,36.6,19.8,29.91,WSW,248,3.4,3.4,50,0.00,,CLR,0.00,VWS V14.01,2013-01-22 06:46:00,
2013-01-22 01:47:00,36.5,19.6,29.91,West,270,4.0,4.0,50,0.00,,CLR,0.00,VWS V14.01,2013-01-22 06:47:00,
2013-01-22 01:48:00,36.6,19.8,29.91,WSW,248,3.4,3.4,50,0.00,,CLR,0.00,VWS V14.01,2013-01-22 06:48:00,
2013-01-22 01:49:00,36.5,19.6,29.91,West,270,4.5,4.5,50,0.00,,CLR,0.00,VWS V14.01,2013-01-22 06:49:00,
2013-01-22 01:50:00,36.8,19.9,29.91,WSW,248,3.4,3.4,50,0.00,,CLR,0.00,VWS V14.01,2013-01-22 06:50:00,
2013-01-22 01:51:00,36.5,19.6,29.91,West,270,4.5,4.5,50,0.00,,CLR,0.00,VWS V14.01,2013-01-22 06:51:00,
2013-01-22 01:52:00,36.3,19.4,29.91,West,270,3.6,3.6,50,0.00,,CLR,0.00,VWS V14.01,2013-01-22 06:52:00,
2013-01-22 01:53:00,36.1,19.3,29.91,WSW,248,3.4,3.4,50,0.00,,CLR,0.00,VWS V14.01,2013-01-22 06:53:00,
2013-01-22 01:54:00,36.1,19.3,29.91,WSW,248,3.4,3.4,50,0.00,,CLR,0.00,VWS V14.01,2013-01-22 06:54:00,
2013-01-22 01:55:00,35.7,18.9,29.91,WSW,248,2.5,2.5,50,0.00,,CLR,0.00,VWS V14.01,2013-01-22 06:55:00,
2013-01-22 01:56:00,35.9,19.1,29.91,SW,225,3.4,3.4,50,0.00,,CLR,0.00,VWS V14.01,2013-01-22 06:56:00,
2013-01-22 01:57:00,35.6,18.8,29.91,WSW,248,3.1,3.1,50,0.00,,CLR,0.00,VWS V14.01,2013-01-22 06:57:00,
2013-01-22 01:58:00,35.7,18.9,29.91,WSW,248,2.5,2.5,50,0.00,,CLR,0.00,VWS V14.01,2013-01-22 06:58:00,
2013-01-22 01:59:00,35.9,19.1,29.91,WSW,248,3.4,3.4,50,0.00,,CLR,0.00,VWS V14.01,2013-01-22 06:59:00,
2013-01-22 02:00:00,35.7,18.9,29.91,SSW,202,3.8,3.8,50,0.00,,CLR,0.00,VWS V14.01,2013-01-22 07:00:00,
2013-01-22 02:01:00,35.7,18.9,29.91,West,270,3.6,3.6,50,0.00,,CLR,0.00,VWS V14.01,2013-01-22 07:01:00,
2013-01-22 02:02:00,35.4,18.6,29.91,WSW,248,2.7,2.7,50,0.00,,CLR,0.00,VWS V14.01,2013-01-22 07:02:00,
2013-01-22 02:03:00,35.9,19.1,29.91,SW,225,4.3,4.3,50,0.00,,CLR,0.00,VWS V14.01,2013-01-22 07:03:00,
2013-01-22 02:04:00,35.6,18.8,29.91,WSW,248,2.7,2.7,50,0.00,,CLR,0.00,VWS V14.01,2013-01-22 07:04:00,
2013-01-22 02:05:00,35.6,18.8,29.91,WSW,248,2.9,2.9,50,0.00,,CLR,0.00,VWS V14.01,2013-01-22 07:05:00,
2013-01-22 02:06:00,35.6,18.8,29.91,WSW,248,3.8,3.8,50,0.00,,CLR,0.00,VWS V14.01,2013-01-22 07:06:00,
2013-01-22 02:07:00,36.1,19.3,29.91,West,270,6.0,6.0,50,0.00,,CLR,0.00,VWS V14.01,2013-01-22 07:07:00,
2013-01-22 02:08:00,36.3,19.4,29.91,West,270,3.4,3.4,50,0.00,,CLR,0.00,VWS V14.01,2013-01-22 07:08:00,
2013-01-22 02:09:00,36.1,19.3,29.91,West,270,4.0,4.0,50,0.00,,CLR,0.00,VWS V14.01,2013-01-22 07:09:00,
2013-01-22 02:10:00,36.3,19.4,29.91,West,270,3.8,3.8,50,0.00,,CLR,0.00,VWS V14.01,2013-01-22 07:10:00,
2013-01-22 02:11:00,36.3,19.4,29.91,West,270,4.0,4.0,50,0.00,,CLR,0.00,VWS V14.01,2013-01-22 07:11:00,
2013-01-22 02:12:00,35.9,19.1,29.91,West,270,2.7,2.7,50,0.00,,CLR,0.00,VWS V14.01,2013-01-22 07:12:00,
2013-01-22 02:13:00,35.9,19.1,29.91,NNW,338,1.3,1.3,50,0.00,,CLR,0.00,VWS V14.01,2013-01-22 07:13:00,
2013-01-22 02:14:00,35.7,18.9,29.91,West,270,2.0,2.0,50,0.00,,CLR,0.00,VWS V14.01,2013-01-22 07:14:00,
2013-01-22 02:15:00,35.7,18.9,29.91,NNW,338,0.9,0.9,50,0.00,,CLR,0.00,VWS V14.01,2013-01-22 07:15:00,
2013-01-22 02:16:00,35.7,18.9,29.91,NNW,338,2.0,2.0,50,0.00,,CLR,0.00,VWS V14.01,2013-01-22 07:16:00,
2013-01-22 02:17:00,35.7,18.9,29.91,NNW,338,1.6,1.6,50,0.00,,CLR,0.00,VWS V14.01,2013-01-22 07:17:00,
2013-01-22 02:18:00,35.6,18.8,29.91,North,0,1.1,1.1,50,0.00,,CLR,0.00,VWS V14.01,2013-01-22 07:18:00,
2013-01-22 02:19:00,35.4,18.6,29.91,NNW,338,1.3,1.3,50,0.00,,CLR,0.00,VWS V14.01,2013-01-22 07:19:00,
2013-01-22 02:20:00,35.4,18.6,29.94,NNW,338,0.9,0.9,50,0.00,,CLR,0.00,VWS V14.01,2013-01-22 07:20:00,
2013-01-22 02:21:00,35.4,18.6,29.94,NNW,338,1.3,1.3,50,0.00,,CLR,0.00,VWS V14.01,2013-01-22 07:21:00,
2013-01-22 02:22:00,35.2,18.4,29.94,NNW,338,0.9,0.9,50,0.00,,CLR,0.00,VWS V14.01,2013-01-22 07:22:00,
2013-01-22 02:23:00,35.2,18.4,29.94,NNW,338,0.0,0.0,50,0.00,,CLR,0.00,VWS V14.01,2013-01-22 07:23:00,
2013-01-22 02:24:00,35.2,18.4,29.94,NNW,338,0.0,0.0,50,0.00,,CLR,0.00,VWS V14.01,2013-01-22 07:24:00,
2013-01-22 02:25:00,35.2,18.4,29.94,NNW,338,1.1,1.1,50,0.00,,CLR,0.00,VWS V14.01,2013-01-22 07:25:00,
2013-01-22 02:26:00,35.2,18.4,29.94,NNW,338,1.1,1.1,50,0.00,,CLR,0.00,VWS V14.01,2013-01-22 07:26:00,
2013-01-22 02:27:00,35.2,18.4,29.94,NNW,338,0.9,0.9,50,0.00,,CLR,0.00,VWS V14.01,2013-01-22 07:27:00,
2013-01-22 02:28:00,35.2,18.4,29.94,NNW,338,0.0,0.0,50,0.00,,CLR,0.00,VWS V14.01,2013-01-22 07:28:00,
2013-01-22 02:29:00,35.2,18.4,29.94,NNW,338,0.0,0.0,50,0.00,,CLR,0.00,VWS V14.01,2013-01-22 07:29:00,
2013-01-22 02:30:00,35.2,18.4,29.94,WSW,248,0.0,0.0,50,0.00,,CLR,0.00,VWS V14.01,2013-01-22 07:30:00,
2013-01-22 02:31:00,35.2,18.4,29.94,NW,315,0.0,0.0,50,0.00,,CLR,0.00,VWS V14.01,2013-01-22 07:31:00,
2013-01-22 02:32:00,34.7,17.9,29.94,WNW,292,3.8,3.8,50,0.00,,CLR,0.00,VWS V14.01,2013-01-22 07:32:00,
2013-01-22 02:33:00,34.5,17.8,29.94,West,270,3.4,3.4,50,0.00,,CLR,0.00,VWS V14.01,2013-01-22 07:33:00,
2013-01-22 02:34:00,34.8,18.1,29.94,SSW,202,2.9,2.9,50,0.00,,CLR,0.00,VWS V14.01,2013-01-22 07:34:00,
2013-01-22 02:35:00,34.7,17.9,29.94,WSW,248,2.7,2.7,50,0.00,,CLR,0.00,VWS V14.01,2013-01-22 07:35:00,
2013-01-22 02:36:00,34.7,17.9,29.94,SW,225,3.1,3.1,50,0.00,,CLR,0.00,VWS V14.01,2013-01-22 07:36:00,
2013-01-22 02:37:00,34.8,18.1,29.94,WSW,248,4.0,4.0,50,0.00,,CLR,0.00,VWS V14.01,2013-01-22 07:37:00,
2013-01-22 02:38:00,33.9,17.3,29.94,WSW,248,2.5,2.5,50,0.00,,CLR,0.00,VWS V14.01,2013-01-22 07:38:00,
2013-01-22 02:39:00,34.1,17.4,29.94,WSW,248,2.7,2.7,50,0.00,,CLR,0.00,VWS V14.01,2013-01-22 07:39:00,
2013-01-22 02:40:00,34.1,17.4,29.94,WSW,248,2.7,2.7,50,0.00,,CLR,0.00,VWS V14.01,2013-01-22 07:40:00,
2013-01-22 02:41:00,34.1,17.4,29.94,WSW,248,2.7,2.7,50,0.00,,CLR,0.00,VWS V14.01,2013-01-22 07:41:00,
2013-01-22 02:42:00,33.9,17.3,29.94,WSW,248,2.5,2.5,50,0.00,,CLR,0.00,VWS V14.01,2013-01-22 07:42:00,
2013-01-22 02:43:00,33.9,17.3,29.94,West,270,2.7,2.7,50,0.00,,CLR,0.00,VWS V14.01,2013-01-22 07:43:00,
2013-01-22 02:44:00,33.9,17.3,29.94,WSW,248,3.6,3.6,50,0.00,,CLR,0.00,VWS V14.01,2013-01-22 07:44:00,
2013-01-22 02:45:00,33.9,17.3,29.94,West,270,2.5,2.5,50,0.00,,CLR,0.00,VWS V14.01,2013-01-22 07:45:00,
2013-01-22 02:46:00,33.9,17.3,29.94,West,270,2.7,2.7,50,0.00,,CLR,0.00,VWS V14.01,2013-01-22 07:46:00,
2013-01-22 02:47:00,33.8,17.1,29.94,WSW,248,2.5,2.5,50,0.00,,CLR,0.00,VWS V14.01,2013-01-22 07:47:00,
2013-01-22 02:48:00,33.9,17.3,29.94,West,270,3.1,3.1,50,0.00,,CLR,0.00,VWS V14.01,2013-01-22 07:48:00,
2013-01-22 02:49:00,33.8,17.1,29.94,WSW,248,2.7,2.7,50,0.00,,CLR,0.00,VWS V14.01,2013-01-22 07:49:00,
2013-01-22 02:50:00,33.9,17.3,29.94,WSW,248,2.5,2.5,50,0.00,,CLR,0.00,VWS V14.01,2013-01-22 07:50:00,
2013-01-22 02:51:00,33.9,17.3,29.94,WSW,248,2.5,2.5,50,0.00,,CLR,0.00,VWS V14.01,2013-01-22 07:51:00,
2013-01-22 02:52:00,33.6,16.9,29.94,WSW,248,2.5,2.5,50,0.00,,CLR,0.00,VWS V14.01,2013-01-22 07:52:00,
2013-01-22 02:53:00,33.6,16.9,29.94,SW,225,1.3,1.3,50,0.00,,CLR,0.00,VWS V14.01,2013-01-22 07:53:00,
2013-01-22 02:54:00,33.6,16.9,29.94,WSW,248,2.7,2.7,50,0.00,,CLR,0.00,VWS V14.01,2013-01-22 07:54:00,
2013-01-22 02:55:00,33.9,17.3,29.94,WSW,248,2.7,2.7,50,0.00,,CLR,0.00,VWS V14.01,2013-01-22 07:55:00,
2013-01-22 02:56:00,33.9,17.3,29.94,WSW,248,2.7,2.7,50,0.00,,CLR,0.00,VWS V14.01,2013-01-22 07:56:00,
2013-01-22 02:57:00,33.8,17.1,29.94,WSW,248,1.1,1.1,50,0.00,,CLR,0.00,VWS V14.01,2013-01-22 07:57:00,
2013-01-22 02:58:00,33.8,17.1,29.94,WSW,248,0.0,0.0,50,0.00,,CLR,0.00,VWS V14.01,2013-01-22 07:58:00,
2013-01-22 02:59:00,33.6,16.9,29.94,WNW,292,1.6,1.6,50,0.00,,CLR,0.00,VWS V14.01,2013-01-22 07:59:00,
2013-01-22 03:00:00,33.6,16.9,29.94,WNW,292,0.0,0.0,50,0.00,,CLR,0.00,VWS V14.01,2013-01-22 08:00:00,
2013-01-22 03:01:00,33.6,16.9,29.94,WNW,292,0.0,0.0,50,0.00,,CLR,0.00,VWS V14.01,2013-01-22 08:01:00,
2013-01-22 03:02:00,33.6,16.9,29.94,NW,315,0.0,0.0,50,0.00,,CLR,0.00,VWS V14.01,2013-01-22 08:02:00,
2013-01-22 03:03:00,33.4,16.8,29.94,NW,315,0.0,0.0,50,0.00,,CLR,0.00,VWS V14.01,2013-01-22 08:03:00,
2013-01-22 03:04:00,33.4,16.8,29.94,NW,315,0.0,0.0,50,0.00,,CLR,0.00,VWS V14.01,2013-01-22 08:04:00,
2013-01-22 03:05:00,33.4,16.8,29.94,NW,315,0.0,0.0,50,0.00,,CLR,0.00,VWS V14.01,2013-01-22 08:05:00,
2013-01-22 03:06:00,33.4,16.8,29.94,NW,315,0.0,0.0,50,0.00,,CLR,0.00,VWS V14.01,2013-01-22 08:06:00,
2013-01-22 03:07:00,33.2,17.1,29.94,NW,315,0.0,0.0,51,0.00,,CLR,0.00,VWS V14.01,2013-01-22 08:07:00,
2013-01-22 03:08:00,33.2,17.1,29.94,NW,315,0.0,0.0,51,0.00,,CLR,0.00,VWS V14.01,2013-01-22 08:08:00,
2013-01-22 03:09:00,33.0,16.9,29.94,NW,315,0.0,0.0,51,0.00,,CLR,0.00,VWS V14.01,2013-01-22 08:09:00,
2013-01-22 03:10:00,33.0,16.9,29.94,NW,315,0.0,0.0,51,0.00,,CLR,0.00,VWS V14.01,2013-01-22 08:10:00,
2013-01-22 03:11:00,33.0,16.9,29.94,NW,315,0.0,0.0,51,0.00,,CLR,0.00,VWS V14.01,2013-01-22 08:11:00,
2013-01-22 03:12:00,33.0,16.9,29.94,NW,315,0.0,0.0,51,0.00,,CLR,0.00,VWS V14.01,2013-01-22 08:12:00,
2013-01-22 03:13:00,33.0,16.9,29.94,NW,315,0.0,0.0,51,0.00,,CLR,0.00,VWS V14.01,2013-01-22 08:13:00,
2013-01-22 03:14:00,32.9,16.7,29.94,NW,315,0.0,0.0,51,0.00,,CLR,0.00,VWS V14.01,2013-01-22 08:14:00,
2013-01-22 03:15:00,32.9,16.7,29.94,NW,315,0.0,0.0,51,0.00,,CLR,0.00,VWS V14.01,2013-01-22 08:15:00,
2013-01-22 03:16:00,32.7,16.6,29.94,NW,315,0.0,0.0,51,0.00,,CLR,0.00,VWS V14.01,2013-01-22 08:16:00,
2013-01-22 03:17:00,32.9,16.7,29.94,NW,315,0.0,0.0,51,0.00,,CLR,0.00,VWS V14.01,2013-01-22 08:17:00,
2013-01-22 03:18:00,32.7,16.6,29.94,WNW,292,0.0,0.0,51,0.00,,CLR,0.00,VWS V14.01,2013-01-22 08:18:00,
2013-01-22 03:19:00,32.3,16.2,29.94,WNW,292,0.0,0.0,51,0.00,,CLR,0.00,VWS V14.01,2013-01-22 08:19:00,
2013-01-22 03:20:00,32.3,16.2,29.97,WSW,248,1.6,1.6,51,0.00,,CLR,0.00,VWS V14.01,2013-01-22 08:20:00,
2013-01-22 03:21:00,32.3,16.2,29.97,West,270,1.1,1.1,51,0.00,,CLR,0.00,VWS V14.01,2013-01-22 08:21:00,
2013-01-22 03:22:00,32.3,16.2,29.97,West,270,1.3,1.3,51,0.00,,CLR,0.00,VWS V14.01,2013-01-22 08:22:00,
2013-01-22 03:23:00,32.1,16.1,29.97,West,270,0.0,0.0,51,0.00,,CLR,0.00,VWS V14.01,2013-01-22 08:23:00,
2013-01-22 03:24:00,32.1,16.1,29.97,West,270,0.0,0.0,51,0.00,,CLR,0.00,VWS V14.01,2013-01-22 08:24:00,
2013-01-22 03:25:00,32.1,16.1,29.97,West,270,0.0,0.0,51,0.00,,CLR,0.00,VWS V14.01,2013-01-22 08:25:00,
2013-01-22 03:26:00,32.0,15.9,29.97,West,270,0.0,0.0,51,0.00,,CLR,0.00,VWS V14.01,2013-01-22 08:26:00,
2013-01-22 03:27:00,32.1,16.1,29.97,West,270,0.0,0.0,51,0.00,,CLR,0.00,VWS V14.01,2013-01-22 08:27:00,
2013-01-22 03:28:00,31.6,15.6,29.97,West,270,0.0,0.0,51,0.00,,CLR,0.00,VWS V14.01,2013-01-22 08:28:00,
2013-01-22 03:29:00,31.6,15.6,29.97,West,270,0.0,0.0,51,0.00,,CLR,0.00,VWS V14.01,2013-01-22 08:29:00,
2013-01-22 03:30:00,31.6,15.6,29.97,West,270,0.0,0.0,51,0.00,,CLR,0.00,VWS V14.01,2013-01-22 08:30:00,
2013-01-22 03:31:00,31.4,15.4,29.97,SW,225,0.0,0.0,51,0.00,,CLR,0.00,VWS V14.01,2013-01-22 08:31:00,
2013-01-22 03:32:00,31.4,15.4,29.97,SW,225,0.0,0.0,51,0.00,,CLR,0.00,VWS V14.01,2013-01-22 08:32:00,
2013-01-22 03:33:00,31.4,15.4,29.97,SW,225,0.0,0.0,51,0.00,,CLR,0.00,VWS V14.01,2013-01-22 08:33:00,
2013-01-22 03:34:00,31.4,15.4,29.97,SW,225,0.0,0.0,51,0.00,,CLR,0.00,VWS V14.01,2013-01-22 08:34:00,
2013-01-22 03:35:00,31.2,15.2,29.94,SW,225,2.0,2.0,51,0.00,,CLR,0.00,VWS V14.01,2013-01-22 08:35:00,
2013-01-22 03:36:00,31.6,15.6,29.94,WSW,248,2.2,2.2,51,0.00,,CLR,0.00,VWS V14.01,2013-01-22 08:36:00,
2013-01-22 03:37:00,31.2,15.2,29.94,SW,225,2.0,2.0,51,0.00,,CLR,0.00,VWS V14.01,2013-01-22 08:37:00,
2013-01-22 03:38:00,31.8,15.7,29.94,SW,225,2.5,2.5,51,0.00,,CLR,0.00,VWS V14.01,2013-01-22 08:38:00,
2013-01-22 03:39:00,31.6,15.6,29.94,SW,225,2.2,2.2,51,0.00,,CLR,0.00,VWS V14.01,2013-01-22 08:39:00,
2013-01-22 03:40:00,31.6,15.6,29.94,WSW,248,1.6,1.6,51,0.00,,CLR,0.00,VWS V14.01,2013-01-22 08:40:00,
2013-01-22 03:41:00,31.8,15.7,29.94,WSW,248,1.6,1.6,51,0.00,,CLR,0.00,VWS V14.01,2013-01-22 08:41:00,
2013-01-22 03:42:00,31.8,15.7,29.94,WSW,248,2.0,2.0,51,0.00,,CLR,0.00,VWS V14.01,2013-01-22 08:42:00,
2013-01-22 03:44:00,31.6,15.6,29.94,NW,315,0.0,0.0,51,0.00,,CLR,0.00,VWS V14.01,2013-01-22 08:44:00,
2013-01-22 03:45:00,31.6,15.6,29.94,NW,315,0.0,0.0,51,0.00,,CLR,0.00,VWS V14.01,2013-01-22 08:45:00,
2013-01-22 03:46:00,31.4,15.4,29.94,NW,315,0.0,0.0,51,0.00,,CLR,0.00,VWS V14.01,2013-01-22 08:46:00,
2013-01-22 03:47:00,31.4,15.4,29.94,NW,315,0.0,0.0,51,0.00,,CLR,0.00,VWS V14.01,2013-01-22 08:47:00,
2013-01-22 03:48:00,31.2,15.2,29.94,NW,315,0.0,0.0,51,0.00,,CLR,0.00,VWS V14.01,2013-01-22 08:48:00,
2013-01-22 03:49:00,31.1,15.1,29.94,NW,315,0.0,0.0,51,0.00,,CLR,0.00,VWS V14.01,2013-01-22 08:49:00,
2013-01-22 03:50:00,31.1,15.1,29.94,NW,315,0.0,0.0,51,0.00,,CLR,0.00,VWS V14.01,2013-01-22 08:50:00,
2013-01-22 03:51:00,31.1,15.1,29.94,NW,315,0.0,0.0,51,0.00,,CLR,0.00,VWS V14.01,2013-01-22 08:51:00,
2013-01-22 03:52:00,31.1,15.1,29.94,NW,315,0.0,0.0,51,0.00,,CLR,0.00,VWS V14.01,2013-01-22 08:52:00,
2013-01-22 03:53:00,30.9,14.9,29.94,NW,315,0.0,0.0,51,0.00,,CLR,0.00,VWS V14.01,2013-01-22 08:53:00,
2013-01-22 03:54:00,30.7,14.7,29.94,NW,315,0.0,0.0,51,0.00,,CLR,0.00,VWS V14.01,2013-01-22 08:54:00,
2013-01-22 03:55:00,30.7,14.7,29.94,NW,315,0.0,0.0,51,0.00,,CLR,0.00,VWS V14.01,2013-01-22 08:55:00,
2013-01-22 03:56:00,30.7,14.7,29.94,NW,315,0.0,0.0,51,0.00,,CLR,0.00,VWS V14.01,2013-01-22 08:56:00,
2013-01-22 03:57:00,30.7,14.7,29.94,NW,315,0.0,0.0,51,0.00,,CLR,0.00,VWS V14.01,2013-01-22 08:57:00,
2013-01-22 03:58:00,30.5,14.6,29.94,WSW,248,0.0,0.0,51,0.00,,CLR,0.00,VWS V14.01,2013-01-22 08:58:00,
2013-01-22 03:59:00,30.2,14.2,29.94,WSW,248,1.3,1.3,51,0.00,,CLR,0.00,VWS V14.01,2013-01-22 08:59:00,
2013-01-22 04:00:00,30.2,14.2,29.94,WSW,248,0.0,0.0,51,0.00,,CLR,0.00,VWS V14.01,2013-01-22 09:00:00,
2013-01-22 04:01:00,30.2,14.2,29.94,WSW,248,0.0,0.0,51,0.00,,CLR,0.00,VWS V14.01,2013-01-22 09:01:00,
2013-01-22 04:02:00,30.2,14.2,29.94,WSW,248,0.0,0.0,51,0.00,,CLR,0.00,VWS V14.01,2013-01-22 09:02:00,
2013-01-22 04:03:00,30.2,14.2,29.94,WSW,248,0.0,0.0,51,0.00,,CLR,0.00,VWS V14.01,2013-01-22 09:03:00,
2013-01-22 04:04:00,30.0,14.1,29.94,WSW,248,0.0,0.0,51,0.00,,CLR,0.00,VWS V14.01,2013-01-22 09:04:00,
2013-01-22 04:05:00,30.0,14.1,29.97,WSW,248,0.0,0.0,51,0.00,,CLR,0.00,VWS V14.01,2013-01-22 09:05:00,
2013-01-22 04:06:00,30.0,14.1,29.97,WSW,248,0.0,0.0,51,0.00,,CLR,0.00,VWS V14.01,2013-01-22 09:06:00,
2013-01-22 04:07:00,30.0,14.1,29.97,WSW,248,0.0,0.0,51,0.00,,CLR,0.00,VWS V14.01,2013-01-22 09:07:00,
2013-01-22 04:08:00,30.0,14.1,29.97,NNW,338,0.0,0.0,51,0.00,,CLR,0.00,VWS V14.01,2013-01-22 09:08:00,
2013-01-22 04:09:00,30.0,14.1,29.97,NNW,338,0.0,0.0,51,0.00,,CLR,0.00,VWS V14.01,2013-01-22 09:09:00,
2013-01-22 04:10:00,30.0,14.1,29.97,NNW,338,0.0,0.0,51,0.00,,CLR,0.00,VWS V14.01,2013-01-22 09:10:00,
2013-01-22 04:11:00,30.0,14.1,29.97,NNW,338,0.0,0.0,51,0.00,,CLR,0.00,VWS V14.01,2013-01-22 09:11:00,
2013-01-22 04:12:00,30.0,14.1,29.97,NNW,338,0.0,0.0,51,0.00,,CLR,0.00,VWS V14.01,2013-01-22 09:12:00,
2013-01-22 04:13:00,30.0,14.1,29.97,NNW,338,0.0,0.0,51,0.00,,CLR,0.00,VWS V14.01,2013-01-22 09:13:00,
2013-01-22 04:14:00,30.0,14.1,29.97,NNW,338,0.0,0.0,51,0.00,,CLR,0.00,VWS V14.01,2013-01-22 09:14:00,
2013-01-22 04:15:00,30.0,14.1,29.97,NNW,338,0.0,0.0,51,0.00,,CLR,0.00,VWS V14.01,2013-01-22 09:15:00,
2013-01-22 04:16:00,29.8,13.9,29.97,NNW,338,0.0,0.0,51,0.00,,CLR,0.00,VWS V14.01,2013-01-22 09:16:00,
2013-01-22 04:17:00,29.8,13.9,29.97,NNW,338,0.0,0.0,51,0.00,,CLR,0.00,VWS V14.01,2013-01-22 09:17:00,
2013-01-22 04:18:00,29.6,14.2,29.97,NNW,338,0.0,0.0,52,0.00,,CLR,0.00,VWS V14.01,2013-01-22 09:18:00,
2013-01-22 04:19:00,29.6,14.2,29.97,NNW,338,0.0,0.0,52,0.00,,CLR,0.00,VWS V14.01,2013-01-22 09:19:00,
2013-01-22 04:20:00,29.4,14.0,29.97,NW,315,0.0,0.0,52,0.00,,CLR,0.00,VWS V14.01,2013-01-22 09:20:00,
2013-01-22 04:21:00,29.4,14.0,29.97,NW,315,0.0,0.0,52,0.00,,CLR,0.00,VWS V14.01,2013-01-22 09:21:00,
2013-01-22 04:22:00,29.4,14.0,29.97,NW,315,0.0,0.0,52,0.00,,CLR,0.00,VWS V14.01,2013-01-22 09:22:00,
2013-01-22 04:23:00,29.1,13.7,29.97,West,270,1.3,1.3,52,0.00,,CLR,0.00,VWS V14.01,2013-01-22 09:23:00,
2013-01-22 04:24:00,29.1,13.7,29.97,WSW,248,2.0,2.0,52,0.00,,CLR,0.00,VWS V14.01,2013-01-22 09:24:00,
2013-01-22 04:25:00,29.1,13.7,29.97,WSW,248,2.5,2.5,52,0.00,,CLR,0.00,VWS V14.01,2013-01-22 09:25:00,
2013-01-22 04:26:00,28.7,13.3,29.97,WSW,248,1.3,1.3,52,0.00,,CLR,0.00,VWS V14.01,2013-01-22 09:26:00,
2013-01-22 04:27:00,28.7,13.3,29.97,WSW,248,2.0,2.0,52,0.00,,CLR,0.00,VWS V14.01,2013-01-22 09:27:00,
2013-01-22 04:28:00,28.7,13.3,29.97,WSW,248,1.3,1.3,52,0.00,,CLR,0.00,VWS V14.01,2013-01-22 09:28:00,
2013-01-22 04:29:00,28.2,12.8,29.97,WSW,248,1.3,1.3,52,0.00,,CLR,0.00,VWS V14.01,2013-01-22 09:29:00,
2013-01-22 04:30:00,28.7,13.3,29.97,WSW,248,2.0,2.0,52,0.00,,CLR,0.00,VWS V14.01,2013-01-22 09:30:00,
2013-01-22 04:31:00,28.5,13.2,29.97,WNW,292,2.5,2.5,52,0.00,,CLR,0.00,VWS V14.01,2013-01-22 09:31:00,
2013-01-22 04:32:00,28.4,13.0,29.97,WNW,292,1.3,1.3,52,0.00,,CLR,0.00,VWS V14.01,2013-01-22 09:32:00,
2013-01-22 04:33:00,28.5,13.2,29.97,WNW,292,2.5,2.5,52,0.00,,CLR,0.00,VWS V14.01,2013-01-22 09:33:00,
2013-01-22 04:34:00,28.2,12.8,29.97,West,270,2.0,2.0,52,0.00,,CLR,0.00,VWS V14.01,2013-01-22 09:34:00,
2013-01-22 04:35:00,28.2,12.8,29.97,West,270,2.0,2.0,52,0.00,,CLR,0.00,VWS V14.01,2013-01-22 09:35:00,
2013-01-22 04:36:00,28.2,12.8,29.97,WNW,292,1.6,1.6,52,0.00,,CLR,0.00,VWS V14.01,2013-01-22 09:36:00,
2013-01-22 04:37:00,28.2,12.8,29.97,WNW,292,2.5,2.5,52,0.00,,CLR,0.00,VWS V14.01,2013-01-22 09:37:00,
2013-01-22 04:38:00,28.2,12.8,29.97,WNW,292,1.1,1.1,52,0.00,,CLR,0.00,VWS V14.01,2013-01-22 09:38:00,
2013-01-22 04:39:00,28.2,12.8,29.97,WNW,292,1.1,1.1,52,0.00,,CLR,0.00,VWS V14.01,2013-01-22 09:39:00,
2013-01-22 04:40:00,28.2,12.8,29.97,WNW,292,1.3,1.3,52,0.00,,CLR,0.00,VWS V14.01,2013-01-22 09:40:00,
2013-01-22 04:41:00,28.4,13.0,29.97,WNW,292,1.6,1.6,52,0.00,,CLR,0.00,VWS V14.01,2013-01-22 09:41:00,
2013-01-22 04:42:00,28.4,13.0,29.97,West,270,1.1,1.1,52,0.00,,CLR,0.00,VWS V14.01,2013-01-22 09:42:00,
2013-01-22 04:43:00,28.4,13.0,29.97,WNW,292,1.1,1.1,52,0.00,,CLR,0.00,VWS V14.01,2013-01-22 09:43:00,
2013-01-22 04:44:00,28.2,12.8,29.97,WSW,248,1.6,1.6,52,0.00,,CLR,0.00,VWS V14.01,2013-01-22 09:44:00,
2013-01-22 04:45:00,28.2,12.8,29.97,WSW,248,0.0,0.0,52,0.00,,CLR,0.00,VWS V14.01,2013-01-22 09:45:00,
2013-01-22 04:46:00,28.2,12.8,29.97,WSW,248,1.1,1.1,52,0.00,,CLR,0.00,VWS V14.01,2013-01-22 09:46:00,
2013-01-22 04:47:00,28.2,12.8,29.97,West,270,1.1,1.1,52,0.00,,CLR,0.00,VWS V14.01,2013-01-22 09:47:00,
2013-01-22 04:48:00,28.2,12.8,29.97,WSW,248,1.1,1.1,52,0.00,,CLR,0.00,VWS V14.01,2013-01-22 09:48:00,
2013-01-22 04:49:00,28.4,13.0,29.97,NW,315,0.9,0.9,52,0.00,,CLR,0.00,VWS V14.01,2013-01-22 09:49:00,
2013-01-22 04:50:00,28.4,13.0,29.97,NW,315,0.9,0.9,52,0.00,,CLR,0.00,VWS V14.01,2013-01-22 09:50:00,
2013-01-22 04:51:00,28.4,13.0,29.97,NNW,338,2.0,2.0,52,0.00,,CLR,0.00,VWS V14.01,2013-01-22 09:51:00,
2013-01-22 04:52:00,28.5,13.2,29.97,NNW,338,0.9,0.9,52,0.00,,CLR,0.00,VWS V14.01,2013-01-22 09:52:00,
2013-01-22 04:53:00,28.4,13.0,29.97,NW,315,0.9,0.9,52,0.00,,CLR,0.00,VWS V14.01,2013-01-22 09:53:00,
2013-01-22 04:54:00,28.7,13.3,29.97,NNW,338,1.1,1.1,52,0.00,,CLR,0.00,VWS V14.01,2013-01-22 09:54:00,
2013-01-22 04:55:00,28.9,13.5,29.97,NNW,338,1.1,1.1,52,0.00,,CLR,0.00,VWS V14.01,2013-01-22 09:55:00,
2013-01-22 04:56:00,29.1,13.7,29.97,WNW,292,1.6,1.6,52,0.00,,CLR,0.00,VWS V14.01,2013-01-22 09:56:00,
2013-01-22 04:57:00,29.4,14.0,29.97,NW,315,1.3,1.3,52,0.00,,CLR,0.00,VWS V14.01,2013-01-22 09:57:00,
2013-01-22 04:58:00,29.3,13.8,29.97,NW,315,1.3,1.3,52,0.00,,CLR,0.00,VWS V14.01,2013-01-22 09:58:00,
2013-01-22 04:59:00,30.0,14.1,29.97,WNW,292,1.3,1.3,51,0.00,,CLR,0.00,VWS V14.01,2013-01-22 09:59:00,
2013-01-22 05:00:00,30.0,14.1,29.97,NNW,338,0.0,0.0,51,0.00,,CLR,0.00,VWS V14.01,2013-01-22 10:00:00,
2013-01-22 05:01:00,29.8,13.9,29.97,NW,315,1.1,1.1,51,0.00,,CLR,0.00,VWS V14.01,2013-01-22 10:01:00,
2013-01-22 05:02:00,29.8,13.9,29.97,WNW,292,1.6,1.6,51,0.00,,CLR,0.00,VWS V14.01,2013-01-22 10:02:00,
2013-01-22 05:03:00,29.8,13.9,29.97,NW,315,0.9,0.9,51,0.00,,CLR,0.00,VWS V14.01,2013-01-22 10:03:00,
2013-01-22 05:04:00,30.2,14.2,29.97,WNW,292,0.0,0.0,51,0.00,,CLR,0.00,VWS V14.01,2013-01-22 10:04:00,
2013-01-22 05:05:00,30.3,14.4,29.97,NNW,338,1.1,1.1,51,0.00,,CLR,0.00,VWS V14.01,2013-01-22 10:05:00,
2013-01-22 05:06:00,30.3,14.4,29.97,NNE,22,2.2,2.2,51,0.00,,CLR,0.00,VWS V14.01,2013-01-22 10:06:00,
2013-01-22 05:07:00,30.3,14.4,29.97,NW,315,3.8,3.8,51,0.00,,CLR,0.00,VWS V14.01,2013-01-22 10:07:00,
2013-01-22 05:08:00,30.3,14.4,29.97,NNW,338,2.0,2.0,51,0.00,,CLR,0.00,VWS V14.01,2013-01-22 10:08:00,
2013-01-22 05:09:00,30.9,14.9,29.97,NNW,338,1.1,1.1,51,0.00,,CLR,0.00,VWS V14.01,2013-01-22 10:09:00,
2013-01-22 05:10:00,31.1,15.1,29.97,NNW,338,1.6,1.6,51,0.00,,CLR,0.00,VWS V14.01,2013-01-22 10:10:00,
2013-01-22 05:11:00,31.4,15.4,29.97,WNW,292,1.3,1.3,51,0.00,,CLR,0.00,VWS V14.01,2013-01-22 10:11:00,
2013-01-22 05:12:00,31.1,15.1,29.97,WNW,292,1.1,1.1,51,0.00,,CLR,0.00,VWS V14.01,2013-01-22 10:12:00,
2013-01-22 05:13:00,31.2,15.2,29.97,NNW,338,0.9,0.9,51,0.00,,CLR,0.00,VWS V14.01,2013-01-22 10:13:00,
2013-01-22 05:14:00,31.1,15.1,29.97,NNW,338,1.6,1.6,51,0.00,,CLR,0.00,VWS V14.01,2013-01-22 10:14:00,
2013-01-22 05:15:00,31.2,15.2,29.97,NNW,338,1.6,1.6,51,0.00,,CLR,0.00,VWS V14.01,2013-01-22 10:15:00,
2013-01-22 05:16:00,31.1,15.1,29.97,North,0,2.0,2.0,51,0.00,,CLR,0.00,VWS V14.01,2013-01-22 10:16:00,
2013-01-22 05:17:00,31.2,15.2,29.97,WNW,292,1.3,1.3,51,0.00,,CLR,0.00,VWS V14.01,2013-01-22 10:17:00,
2013-01-22 05:18:00,31.2,15.2,29.97,NNW,338,2.5,2.5,51,0.00,,CLR,0.00,VWS V14.01,2013-01-22 10:18:00,
2013-01-22 05:19:00,31.2,15.2,29.97,NNW,338,1.3,1.3,51,0.00,,CLR,0.00,VWS V14.01,2013-01-22 10:19:00,
2013-01-22 05:20:00,31.4,15.4,29.97,North,0,2.5,2.5,51,0.00,,CLR,0.00,VWS V14.01,2013-01-22 10:20:00,
2013-01-22 05:21:00,31.4,15.4,29.97,NNW,338,2.0,2.0,51,0.00,,CLR,0.00,VWS V14.01,2013-01-22 10:21:00,
2013-01-22 05:22:00,31.4,15.4,29.97,NNW,338,2.0,2.0,51,0.00,,CLR,0.00,VWS V14.01,2013-01-22 10:22:00,
2013-01-22 05:23:00,31.4,15.4,29.97,WSW,248,2.5,2.5,51,0.00,,CLR,0.00,VWS V14.01,2013-01-22 10:23:00,
2013-01-22 05:24:00,31.6,15.6,29.97,NW,315,1.6,1.6,51,0.00,,CLR,0.00,VWS V14.01,2013-01-22 10:24:00,
2013-01-22 05:25:00,31.6,15.6,29.97,NNW,338,0.0,0.0,51,0.00,,CLR,0.00,VWS V14.01,2013-01-22 10:25:00,
2013-01-22 05:26:00,31.8,15.7,29.97,NNW,338,3.1,3.1,51,0.00,,CLR,0.00,VWS V14.01,2013-01-22 10:26:00,
2013-01-22 05:27:00,31.8,15.7,29.97,North,0,0.9,0.9,51,0.00,,CLR,0.00,VWS V14.01,2013-01-22 10:27:00,
2013-01-22 05:28:00,31.8,15.7,29.97,North,0,0.9,0.9,51,0.00,,CLR,0.00,VWS V14.01,2013-01-22 10:28:00,
2013-01-22 05:29:00,31.8,15.7,29.97,NNW,338,2.0,2.0,51,0.00,,CLR,0.00,VWS V14.01,2013-01-22 10:29:00,
2013-01-22 05:30:00,31.8,15.7,29.97,NW,315,3.8,3.8,51,0.00,,CLR,0.00,VWS V14.01,2013-01-22 10:30:00,
2013-01-22 05:31:00,31.8,15.7,29.97,NNW,338,2.7,2.7,51,0.00,,CLR,0.00,VWS V14.01,2013-01-22 10:31:00,
2013-01-22 05:32:00,31.8,15.7,29.97,NNW,338,1.3,1.3,51,0.00,,CLR,0.00,VWS V14.01,2013-01-22 10:32:00,
2013-01-22 05:33:00,31.8,15.7,29.97,NNW,338,1.3,1.3,51,0.00,,CLR,0.00,VWS V14.01,2013-01-22 10:33:00,
2013-01-22 05:34:00,32.0,15.9,29.97,NW,315,1.1,1.1,51,0.00,,CLR,0.00,VWS V14.01,2013-01-22 10:34:00,
2013-01-22 05:35:00,32.0,15.9,29.97,NNW,338,1.3,1.3,51,0.00,,CLR,0.00,VWS V14.01,2013-01-22 10:35:00,
2013-01-22 05:36:00,31.8,15.7,29.97,North,0,1.3,1.3,51,0.00,,CLR,0.00,VWS V14.01,2013-01-22 10:36:00,
2013-01-22 05:37:00,31.8,15.7,29.97,NNW,338,2.5,2.5,51,0.00,,CLR,0.00,VWS V14.01,2013-01-22 10:37:00,
2013-01-22 05:38:00,31.8,15.7,29.97,NNW,338,2.5,2.5,51,0.00,,CLR,0.00,VWS V14.01,2013-01-22 10:38:00,
2013-01-22 05:39:00,31.8,15.7,29.97,NNW,338,1.1,1.1,51,0.00,,CLR,0.00,VWS V14.01,2013-01-22 10:39:00,
2013-01-22 05:40:00,31.8,15.7,29.97,NNW,338,3.6,3.6,51,0.00,,CLR,0.00,VWS V14.01,2013-01-22 10:40:00,
2013-01-22 05:41:00,32.0,15.9,29.97,WNW,292,1.6,1.6,51,0.00,,CLR,0.00,VWS V14.01,2013-01-22 10:41:00,
2013-01-22 05:42:00,32.0,15.9,29.97,NW,315,1.3,1.3,51,0.00,,CLR,0.00,VWS V14.01,2013-01-22 10:42:00,
2013-01-22 05:43:00,32.0,15.9,29.97,NW,315,1.3,1.3,51,0.00,,CLR,0.00,VWS V14.01,2013-01-22 10:43:00,
2013-01-22 05:44:00,31.8,15.7,29.97,NNW,338,1.6,1.6,51,0.00,,CLR,0.00,VWS V14.01,2013-01-22 10:44:00,
2013-01-22 05:45:00,31.8,15.7,29.97,North,0,1.3,1.3,51,0.00,,CLR,0.00,VWS V14.01,2013-01-22 10:45:00,
2013-01-22 05:46:00,31.8,15.7,29.97,NNW,338,1.6,1.6,51,0.00,,CLR,0.00,VWS V14.01,2013-01-22 10:46:00,
2013-01-22 05:47:00,31.8,15.7,29.97,NW,315,2.0,2.0,51,0.00,,CLR,0.00,VWS V14.01,2013-01-22 10:47:00,
2013-01-22 05:48:00,31.8,15.7,29.97,NW,315,2.0,2.0,51,0.00,,CLR,0.00,VWS V14.01,2013-01-22 10:48:00,
2013-01-22 05:49:00,31.8,15.7,29.97,WNW,292,1.3,1.3,51,0.00,,CLR,0.00,VWS V14.01,2013-01-22 10:49:00,
2013-01-22 05:50:00,31.8,15.7,30.00,WNW,292,2.5,2.5,51,0.00,,CLR,0.00,VWS V14.01,2013-01-22 10:50:00,
2013-01-22 05:51:00,31.8,15.7,30.00,NNW,338,1.6,1.6,51,0.00,,CLR,0.00,VWS V14.01,2013-01-22 10:51:00,
2013-01-22 05:52:00,31.8,15.7,30.00,NNW,338,2.2,2.2,51,0.00,,CLR,0.00,VWS V14.01,2013-01-22 10:52:00,
2013-01-22 05:53:00,31.8,15.7,30.00,NNW,338,2.0,2.0,51,0.00,,CLR,0.00,VWS V14.01,2013-01-22 10:53:00,
2013-01-22 05:54:00,31.8,15.7,30.00,NNW,338,1.3,1.3,51,0.00,,CLR,0.00,VWS V14.01,2013-01-22 10:54:00,
2013-01-22 05:55:00,31.8,15.7,30.00,NNW,338,1.1,1.1,51,0.00,,CLR,0.00,VWS V14.01,2013-01-22 10:55:00,
2013-01-22 05:56:00,31.8,15.7,30.00,NNW,338,0.0,0.0,51,0.00,,CLR,0.00,VWS V14.01,2013-01-22 10:56:00,
2013-01-22 05:57:00,31.6,15.6,30.00,North,0,1.3,1.3,51,0.00,,CLR,0.00,VWS V14.01,2013-01-22 10:57:00,
2013-01-22 05:58:00,31.4,15.4,30.00,North,0,2.2,2.2,51,0.00,,CLR,0.00,VWS V14.01,2013-01-22 10:58:00,
2013-01-22 05:59:00,31.6,15.6,30.00,North,0,1.1,1.1,51,0.00,,CLR,0.00,VWS V14.01,2013-01-22 10:59:00,
2013-01-22 06:00:00,31.2,15.2,30.00,North,0,1.6,1.6,51,0.00,,CLR,0.00,VWS V14.01,2013-01-22 11:00:00,
2013-01-22 06:01:00,31.1,15.1,30.00,North,0,0.9,0.9,51,0.00,,CLR,0.00,VWS V14.01,2013-01-22 11:01:00,
2013-01-22 06:02:00,30.9,14.9,30.00,North,0,1.3,1.3,51,0.00,,CLR,0.00,VWS V14.01,2013-01-22 11:02:00,
2013-01-22 06:03:00,30.9,14.9,30.00,North,0,0.0,0.0,51,0.00,,CLR,0.00,VWS V14.01,2013-01-22 11:03:00,
2013-01-22 06:04:00,30.9,14.9,30.00,North,0,0.9,0.9,51,0.00,,CLR,0.00,VWS V14.01,2013-01-22 11:04:00,
2013-01-22 06:05:00,30.5,14.6,30.00,North,0,0.0,0.0,51,0.00,,CLR,0.00,VWS V14.01,2013-01-22 11:05:00,
2013-01-22 06:06:00,30.5,14.6,30.00,North,0,0.0,0.0,51,0.00,,CLR,0.00,VWS V14.01,2013-01-22 11:06:00,
2013-01-22 06:07:00,30.5,14.6,30.00,North,0,0.0,0.0,51,0.00,,CLR,0.00,VWS V14.01,2013-01-22 11:07:00,
2013-01-22 06:08:00,30.5,14.6,30.00,North,0,0.0,0.0,51,0.00,,CLR,0.00,VWS V14.01,2013-01-22 11:08:00,
2013-01-22 06:09:00,30.5,14.6,30.00,North,0,0.0,0.0,51,0.00,,CLR,0.00,VWS V14.01,2013-01-22 11:09:00,
2013-01-22 06:10:00,30.5,14.6,30.00,North,0,0.0,0.0,51,0.00,,CLR,0.00,VWS V14.01,2013-01-22 11:10:00,
2013-01-22 06:11:00,30.5,14.6,30.00,North,0,0.0,0.0,51,0.00,,CLR,0.00,VWS V14.01,2013-01-22 11:11:00,
2013-01-22 06:12:00,30.3,14.4,30.00,North,0,0.0,0.0,51,0.00,,CLR,0.00,VWS V14.01,2013-01-22 11:12:00,
2013-01-22 06:13:00,30.3,14.4,30.00,North,0,0.0,0.0,51,0.00,,CLR,0.00,VWS V14.01,2013-01-22 11:13:00,
2013-01-22 06:14:00,30.3,14.4,30.00,North,0,0.0,0.0,51,0.00,,CLR,0.00,VWS V14.01,2013-01-22 11:14:00,
2013-01-22 06:15:00,30.2,14.2,30.00,NNW,338,0.9,0.9,51,0.00,,CLR,0.00,VWS V14.01,2013-01-22 11:15:00,
2013-01-22 06:16:00,30.2,14.2,30.00,NNW,338,1.3,1.3,51,0.00,,CLR,0.00,VWS V14.01,2013-01-22 11:16:00,
2013-01-22 06:17:00,30.2,14.2,30.00,WNW,292,2.0,2.0,51,0.00,,CLR,0.00,VWS V14.01,2013-01-22 11:17:00,
2013-01-22 06:18:00,30.3,14.4,30.00,NNW,338,2.5,2.5,51,0.00,,CLR,0.00,VWS V14.01,2013-01-22 11:18:00,
2013-01-22 06:19:00,30.3,14.4,30.00,NNW,338,3.8,3.8,51,0.00,,CLR,0.00,VWS V14.01,2013-01-22 11:19:00,
2013-01-22 06:20:00,30.3,14.4,30.03,NNW,338,0.0,0.0,51,0.00,,CLR,0.00,VWS V14.01,2013-01-22 11:20:00,
2013-01-22 06:21:00,30.3,14.4,30.03,NNE,22,2.0,2.0,51,0.00,,CLR,0.00,VWS V14.01,2013-01-22 11:21:00,
2013-01-22 06:22:00,30.3,14.4,30.03,North,0,0.0,0.0,51,0.00,,CLR,0.00,VWS V14.01,2013-01-22 11:22:00,
2013-01-22 06:23:00,30.3,14.4,30.03,North,0,1.1,1.1,51,0.00,,CLR,0.00,VWS V14.01,2013-01-22 11:23:00,
2013-01-22 06:24:00,30.3,14.4,30.03,NW,315,1.6,1.6,51,0.00,,CLR,0.00,VWS V14.01,2013-01-22 11:24:00,
2013-01-22 06:25:00,30.3,14.4,30.03,North,0,0.9,0.9,51,0.00,,CLR,0.00,VWS V14.01,2013-01-22 11:25:00,
2013-01-22 06:26:00,30.3,14.4,30.03,NNW,338,0.0,0.0,51,0.00,,CLR,0.00,VWS V14.01,2013-01-22 11:26:00,
2013-01-22 06:27:00,30.2,14.2,30.03,NNW,338,1.3,1.3,51,0.00,,CLR,0.00,VWS V14.01,2013-01-22 11:27:00,
2013-01-22 06:28:00,30.2,14.2,30.03,NNW,338,0.0,0.0,51,0.00,,CLR,0.00,VWS V14.01,2013-01-22 11:28:00,
2013-01-22 06:29:00,30.2,14.2,30.03,NNW,338,0.0,0.0,51,0.00,,CLR,0.00,VWS V14.01,2013-01-22 11:29:00,
2013-01-22 06:30:00,30.0,14.1,30.03,NNW,338,1.6,1.6,51,0.00,,CLR,0.00,VWS V14.01,2013-01-22 11:30:00,
2013-01-22 06:31:00,29.8,13.9,30.03,NNW,338,0.9,0.9,51,0.00,,CLR,0.00,VWS V14.01,2013-01-22 11:31:00,
2013-01-22 06:32:00,29.8,13.9,30.03,NNW,338,0.9,0.9,51,0.00,,CLR,0.00,VWS V14.01,2013-01-22 11:32:00,
2013-01-22 06:33:00,29.8,13.9,30.03,NNW,338,0.0,0.0,51,0.00,,CLR,0.00,VWS V14.01,2013-01-22 11:33:00,
2013-01-22 06:34:00,29.8,13.9,30.03,NNW,338,0.0,0.0,51,0.00,,CLR,0.00,VWS V14.01,2013-01-22 11:34:00,
2013-01-22 06:35:00,29.6,14.2,30.03,NNW,338,1.3,1.3,52,0.00,,CLR,0.00,VWS V14.01,2013-01-22 11:35:00,
2013-01-22 06:36:00,29.6,14.2,30.03,NNW,338,2.5,2.5,52,0.00,,CLR,0.00,VWS V14.01,2013-01-22 11:36:00,
2013-01-22 06:37:00,29.6,14.2,30.03,West,270,0.0,0.0,52,0.00,,CLR,0.00,VWS V14.01,2013-01-22 11:37:00,
2013-01-22 06:38:00,29.6,14.2,30.03,West,270,0.0,0.0,52,0.00,,CLR,0.00,VWS V14.01,2013-01-22 11:38:00,
2013-01-22 06:39:00,29.6,14.2,30.03,West,270,0.0,0.0,52,0.00,,CLR,0.00,VWS V14.01,2013-01-22 11:39:00,
2013-01-22 06:40:00,29.6,14.2,30.03,WNW,292,0.0,0.0,52,0.00,,CLR,0.00,VWS V14.01,2013-01-22 11:40:00,
2013-01-22 06:43:00,29.6,14.2,30.03,NNW,338,0.0,0.0,52,0.00,,CLR,0.00,VWS V14.01,2013-01-22 11:43:00,
2013-01-22 06:44:00,29.6,14.2,30.03,NNW,338,0.9,0.9,52,0.00,,CLR,0.00,VWS V14.01,2013-01-22 11:44:00,
2013-01-22 06:45:00,29.6,14.2,30.03,NW,315,0.9,0.9,52,0.00,,CLR,0.00,VWS V14.01,2013-01-22 11:45:00,
2013-01-22 06:46:00,29.4,14.0,30.03,WNW,292,1.1,1.1,52,0.00,,CLR,0.00,VWS V14.01,2013-01-22 11:46:00,
2013-01-22 06:47:00,29.4,14.0,30.03,NNW,338,1.3,1.3,52,0.00,,CLR,0.00,VWS V14.01,2013-01-22 11:47:00,
2013-01-22 06:48:00,29.4,14.0,30.03,NNW,338,1.1,1.1,52,0.00,,CLR,0.00,VWS V14.01,2013-01-22 11:48:00,
2013-01-22 06:49:00,29.4,14.0,30.03,NNW,338,1.1,1.1,52,0.00,,CLR,0.00,VWS V14.01,2013-01-22 11:49:00,
2013-01-22 06:50:00,29.4,14.0,30.03,NNW,338,0.0,0.0,52,0.00,,CLR,0.00,VWS V14.01,2013-01-22 11:50:00,
2013-01-22 06:51:00,29.4,14.0,30.03,NNW,338,1.1,1.1,52,0.00,,CLR,0.00,VWS V14.01,2013-01-22 11:51:00,
2013-01-22 06:52:00,29.4,14.0,30.03,NW,315,1.3,1.3,52,0.00,,CLR,0.00,VWS V14.01,2013-01-22 11:52:00,
2013-01-22 06:53:00,29.4,14.0,30.03,North,0,1.6,1.6,52,0.00,,CLR,0.00,VWS V14.01,2013-01-22 11:53:00,
2013-01-22 06:54:00,29.4,14.0,30.03,North,0,1.6,1.6,52,0.00,,CLR,0.00,VWS V14.01,2013-01-22 11:54:00,
2013-01-22 06:55:00,29.4,14.0,30.03,NNW,338,2.2,2.2,52,0.00,,CLR,0.00,VWS V14.01,2013-01-22 11:55:00,
2013-01-22 06:56:00,29.4,14.0,30.03,NNW,338,0.9,0.9,52,0.00,,CLR,0.00,VWS V14.01,2013-01-22 11:56:00,
2013-01-22 06:57:00,29.4,14.0,30.03,NNW,338,0.0,0.0,52,0.00,,CLR,0.00,VWS V14.01,2013-01-22 11:57:00,
2013-01-22 06:58:00,29.4,14.0,30.03,NNW,338,2.2,2.2,52,0.00,,CLR,0.00,VWS V14.01,2013-01-22 11:58:00,
2013-01-22 06:59:00,29.4,14.0,30.03,NNW,338,2.2,2.2,52,0.00,,CLR,0.00,VWS V14.01,2013-01-22 11:59:00,
2013-01-22 07:00:00,29.4,14.0,30.03,NNW,338,1.6,1.6,52,0.00,,CLR,0.00,VWS V14.01,2013-01-22 12:00:00,
2013-01-22 07:01:00,29.4,14.0,30.03,NNW,338,0.0,0.0,52,0.00,,CLR,0.00,VWS V14.01,2013-01-22 12:01:00,
2013-01-22 07:02:00,29.4,14.0,30.03,NNW,338,0.0,0.0,52,0.00,,CLR,0.00,VWS V14.01,2013-01-22 12:02:00,
2013-01-22 07:03:00,29.4,14.0,30.03,NNW,338,0.9,0.9,52,0.00,,CLR,0.00,VWS V14.01,2013-01-22 12:03:00,
2013-01-22 07:04:00,29.4,14.0,30.03,NNW,338,0.9,0.9,52,0.00,,CLR,0.00,VWS V14.01,2013-01-22 12:04:00,
2013-01-22 07:05:00,29.4,14.0,30.03,NNW,338,1.6,1.6,52,0.00,,CLR,0.00,VWS V14.01,2013-01-22 12:05:00,
2013-01-22 07:06:00,29.4,14.0,30.03,WSW,248,0.0,0.0,52,0.00,,CLR,0.00,VWS V14.01,2013-01-22 12:06:00,
2013-01-22 07:07:00,29.4,14.0,30.03,WSW,248,0.0,0.0,52,0.00,,CLR,0.00,VWS V14.01,2013-01-22 12:07:00,
2013-01-22 07:08:00,29.4,14.0,30.03,SW,225,0.0,0.0,52,0.00,,CLR,0.00,VWS V14.01,2013-01-22 12:08:00,
2013-01-22 07:09:00,29.3,13.8,30.03,SW,225,1.3,1.3,52,0.00,,CLR,0.00,VWS V14.01,2013-01-22 12:09:00,
2013-01-22 07:10:00,29.4,14.0,30.03,SW,225,0.0,0.0,52,0.00,,CLR,0.00,VWS V14.01,2013-01-22 12:10:00,
2013-01-22 07:11:00,29.1,13.7,30.03,SW,225,0.0,0.0,52,0.00,,CLR,0.00,VWS V14.01,2013-01-22 12:11:00,
2013-01-22 07:12:00,29.1,13.7,30.03,SW,225,0.0,0.0,52,0.00,,CLR,0.00,VWS V14.01,2013-01-22 12:12:00,
2013-01-22 07:13:00,29.1,13.7,30.03,SW,225,0.0,0.0,52,0.00,,CLR,0.00,VWS V14.01,2013-01-22 12:13:00,
2013-01-22 07:14:00,28.7,13.3,30.03,SW,225,0.0,0.0,52,0.00,,CLR,0.00,VWS V14.01,2013-01-22 12:14:00,
2013-01-22 07:15:00,28.9,13.5,30.03,SW,225,0.0,0.0,52,0.00,,CLR,0.00,VWS V14.01,2013-01-22 12:15:00,
2013-01-22 07:16:00,28.7,13.3,30.03,SSW,202,0.0,0.0,52,0.00,,CLR,0.00,VWS V14.01,2013-01-22 12:16:00,
2013-01-22 07:17:00,28.5,13.2,30.03,SSW,202,0.0,0.0,52,0.00,,CLR,0.00,VWS V14.01,2013-01-22 12:17:00,
2013-01-22 07:18:00,28.5,13.2,30.03,SSW,202,0.0,0.0,52,0.00,,CLR,0.00,VWS V14.01,2013-01-22 12:18:00,
2013-01-22 07:19:00,28.5,13.2,30.03,SSW,202,0.0,0.0,52,0.00,,CLR,0.00,VWS V14.01,2013-01-22 12:19:00,
2013-01-22 07:20:00,28.5,13.2,30.03,SSW,202,0.0,0.0,52,0.00,,CLR,0.00,VWS V14.01,2013-01-22 12:20:00,
2013-01-22 07:21:00,28.2,12.8,30.03,SSW,202,0.0,0.0,52,0.00,,CLR,0.00,VWS V14.01,2013-01-22 12:21:00,
2013-01-22 07:22:00,28.2,12.8,30.03,SSW,202,0.0,0.0,52,0.00,,CLR,0.00,VWS V14.01,2013-01-22 12:22:00,
2013-01-22 07:23:00,28.2,12.8,30.03,SW,225,0.0,0.0,52,0.00,,CLR,0.00,VWS V14.01,2013-01-22 12:23:00,
2013-01-22 07:24:00,28.2,12.8,30.03,SW,225,0.0,0.0,52,0.00,,CLR,0.00,VWS V14.01,2013-01-22 12:24:00,
2013-01-22 07:25:00,28.2,12.8,30.03,SW,225,0.0,0.0,52,0.00,,CLR,0.00,VWS V14.01,2013-01-22 12:25:00,
2013-01-22 07:26:00,28.2,12.8,30.03,SW,225,0.0,0.0,52,0.00,,CLR,0.00,VWS V14.01,2013-01-22 12:26:00,
2013-01-22 07:27:00,28.2,12.8,30.03,SW,225,0.0,0.0,52,0.00,,CLR,0.00,VWS V14.01,2013-01-22 12:27:00,
2013-01-22 07:28:00,28.2,12.8,30.03,SW,225,0.0,0.0,52,0.00,,CLR,0.00,VWS V14.01,2013-01-22 12:28:00,
2013-01-22 07:29:00,28.0,12.7,30.03,SW,225,0.0,0.0,52,0.00,,CLR,0.00,VWS V14.01,2013-01-22 12:29:00,
2013-01-22 07:30:00,28.2,12.8,30.03,SW,225,0.0,0.0,52,0.00,,CLR,0.00,VWS V14.01,2013-01-22 12:30:00,
2013-01-22 07:31:00,28.0,12.7,30.03,WSW,248,0.0,0.0,52,0.00,,CLR,0.00,VWS V14.01,2013-01-22 12:31:00,
2013-01-22 07:32:00,28.0,12.7,30.03,WSW,248,0.0,0.0,52,0.00,,CLR,0.00,VWS V14.01,2013-01-22 12:32:00,
2013-01-22 07:33:00,27.8,12.5,30.03,WSW,248,0.0,0.0,52,0.00,,CLR,0.00,VWS V14.01,2013-01-22 12:33:00,
2013-01-22 07:34:00,27.8,12.5,30.03,West,270,0.0,0.0,52,0.00,,CLR,0.00,VWS V14.01,2013-01-22 12:34:00,
2013-01-22 07:35:00,27.8,12.5,30.03,West,270,0.0,0.0,52,0.00,,CLR,0.00,VWS V14.01,2013-01-22 12:35:00,
2013-01-22 07:36:00,27.6,12.3,30.06,West,270,0.0,0.0,52,0.00,,CLR,0.00,VWS V14.01,2013-01-22 12:36:00,
2013-01-22 07:37:00,27.6,12.3,30.06,West,270,0.0,0.0,52,0.00,,CLR,0.00,VWS V14.01,2013-01-22 12:37:00,
2013-01-22 07:38:00,27.5,12.2,30.06,NW,315,0.0,0.0,52,0.00,,CLR,0.00,VWS V14.01,2013-01-22 12:38:00,
2013-01-22 07:39:00,27.3,12.0,30.06,WSW,248,1.1,1.1,52,0.00,,CLR,0.00,VWS V14.01,2013-01-22 12:39:00,
2013-01-22 07:40:00,27.3,12.0,30.06,WSW,248,0.0,0.0,52,0.00,,CLR,0.00,VWS V14.01,2013-01-22 12:40:00,
2013-01-22 07:41:00,27.1,11.8,30.06,NNW,338,0.0,0.0,52,0.00,,CLR,0.00,VWS V14.01,2013-01-22 12:41:00,
2013-01-22 07:42:00,27.1,11.8,30.06,NNW,338,0.0,0.0,52,0.00,,CLR,0.00,VWS V14.01,2013-01-22 12:42:00,
2013-01-22 07:43:00,27.1,11.8,30.06,NNW,338,0.0,0.0,52,0.00,,CLR,0.00,VWS V14.01,2013-01-22 12:43:00,
2013-01-22 07:44:00,27.1,11.8,30.06,NNW,338,0.0,0.0,52,0.00,,CLR,0.00,VWS V14.01,2013-01-22 12:44:00,
2013-01-22 07:45:00,27.1,11.8,30.06,NNW,338,0.0,0.0,52,0.00,,CLR,0.00,VWS V14.01,2013-01-22 12:45:00,
2013-01-22 07:46:00,26.9,11.7,30.06,WNW,292,0.0,0.0,52,0.00,,CLR,0.00,VWS V14.01,2013-01-22 12:46:00,
2013-01-22 07:47:00,26.9,11.7,30.06,WNW,292,0.0,0.0,52,0.00,,CLR,0.00,VWS V14.01,2013-01-22 12:47:00,
2013-01-22 07:48:00,26.9,11.7,30.06,WNW,292,0.0,0.0,52,0.00,,CLR,0.00,VWS V14.01,2013-01-22 12:48:00,
2013-01-22 07:49:00,26.9,11.7,30.06,WNW,292,0.0,0.0,52,0.00,,CLR,0.00,VWS V14.01,2013-01-22 12:49:00,
2013-01-22 07:50:00,26.9,11.7,30.06,WNW,292,0.0,0.0,52,0.00,,CLR,0.00,VWS V14.01,2013-01-22 12:50:00,
2013-01-22 07:51:00,26.7,11.5,30.06,North,0,0.0,0.0,52,0.00,,CLR,0.00,VWS V14.01,2013-01-22 12:51:00,
2013-01-22 07:52:00,26.7,11.5,30.06,NNW,338,0.0,0.0,52,0.00,,CLR,0.00,VWS V14.01,2013-01-22 12:52:00,
2013-01-22 07:53:00,26.9,11.7,30.06,WSW,248,1.1,1.1,52,0.00,,CLR,0.00,VWS V14.01,2013-01-22 12:53:00,
2013-01-22 07:54:00,26.9,11.7,30.06,WNW,292,0.0,0.0,52,0.00,,CLR,0.00,VWS V14.01,2013-01-22 12:54:00,
2013-01-22 07:55:00,26.9,11.7,30.06,WNW,292,0.0,0.0,52,0.00,,CLR,0.00,VWS V14.01,2013-01-22 12:55:00,
2013-01-22 07:56:00,27.1,11.8,30.06,NNW,338,0.0,0.0,52,0.00,,CLR,0.00,VWS V14.01,2013-01-22 12:56:00,
2013-01-22 07:57:00,27.1,11.8,30.06,NNW,338,1.6,1.6,52,0.00,,CLR,0.00,VWS V14.01,2013-01-22 12:57:00,
2013-01-22 07:58:00,27.1,11.8,30.06,NNW,338,0.9,0.9,52,0.00,,CLR,0.00,VWS V14.01,2013-01-22 12:58:00,
2013-01-22 07:59:00,27.3,12.0,30.06,NNE,22,1.6,1.6,52,0.00,,CLR,0.00,VWS V14.01,2013-01-22 12:59:00,
2013-01-22 08:00:00,27.3,12.0,30.06,NNE,22,1.6,1.6,52,0.00,,CLR,0.00,VWS V14.01,2013-01-22 13:00:00,
2013-01-22 08:01:00,27.5,12.2,30.06,NNE,22,2.5,2.5,52,0.00,,CLR,0.00,VWS V14.01,2013-01-22 13:01:00,
2013-01-22 08:02:00,27.6,12.3,30.06,NNE,22,2.5,2.5,52,0.00,,CLR,0.00,VWS V14.01,2013-01-22 13:02:00,
2013-01-22 08:03:00,27.8,12.5,30.06,North,0,1.6,1.6,52,0.00,,CLR,0.00,VWS V14.01,2013-01-22 13:03:00,
2013-01-22 08:04:00,27.8,12.5,30.06,NNE,22,2.0,2.0,52,0.00,,CLR,0.00,VWS V14.01,2013-01-22 13:04:00,
2013-01-22 08:05:00,27.8,12.5,30.06,North,0,1.6,1.6,52,0.00,,CLR,0.00,VWS V14.01,2013-01-22 13:05:00,
2013-01-22 08:06:00,27.8,12.5,30.06,NNE,22,2.0,2.0,52,0.00,,CLR,0.00,VWS V14.01,2013-01-22 13:06:00,
2013-01-22 08:07:00,28.5,13.2,30.06,NW,315,1.3,1.3,52,0.00,,CLR,0.00,VWS V14.01,2013-01-22 13:07:00,
2013-01-22 08:08:00,28.5,13.2,30.06,North,0,2.0,2.0,52,0.00,,CLR,0.00,VWS V14.01,2013-01-22 13:08:00,
2013-01-22 08:09:00,28.7,13.3,30.06,North,0,2.5,2.5,52,0.00,,CLR,0.00,VWS V14.01,2013-01-22 13:09:00,
2013-01-22 08:10:00,28.7,13.3,30.06,North,0,0.9,0.9,52,0.00,,CLR,0.00,VWS V14.01,2013-01-22 13:10:00,
2013-01-22 08:11:00,28.7,13.3,30.06,North,0,1.3,1.3,52,0.00,,CLR,0.00,VWS V14.01,2013-01-22 13:11:00,
2013-01-22 08:12:00,29.1,13.7,30.06,WNW,292,3.4,3.4,52,0.00,,CLR,0.00,VWS V14.01,2013-01-22 13:12:00,
2013-01-22 08:13:00,29.4,14.0,30.06,NW,315,1.1,1.1,52,0.00,,CLR,0.00,VWS V14.01,2013-01-22 13:13:00,
2013-01-22 08:14:00,29.3,13.8,30.06,NNW,338,2.0,2.0,52,0.00,,CLR,0.00,VWS V14.01,2013-01-22 13:14:00,
2013-01-22 08:15:00,29.3,13.8,30.06,North,0,1.3,1.3,52,0.00,,CLR,0.00,VWS V14.01,2013-01-22 13:15:00,
2013-01-22 08:16:00,29.3,13.8,30.06,NNW,338,0.0,0.0,52,0.00,,CLR,0.00,VWS V14.01,2013-01-22 13:16:00,
2013-01-22 08:17:00,29.6,14.2,30.06,WNW,292,1.3,1.3,52,0.00,,CLR,0.00,VWS V14.01,2013-01-22 13:17:00,
2013-01-22 08:18:00,29.6,14.2,30.06,NW,315,2.5,2.5,52,0.00,,CLR,0.00,VWS V14.01,2013-01-22 13:18:00,
2013-01-22 08:19:00,29.6,14.2,30.06,NW,315,2.9,2.9,52,0.00,,CLR,0.00,VWS V14.01,2013-01-22 13:19:00,
2013-01-22 08:20:00,29.8,13.9,30.06,North,0,1.6,1.6,51,0.00,,CLR,0.00,VWS V14.01,2013-01-22 13:20:00,
2013-01-22 08:21:00,29.8,13.9,30.06,NNW,338,2.5,2.5,51,0.00,,CLR,0.00,VWS V14.01,2013-01-22 13:21:00,
2013-01-22 08:22:00,30.0,14.1,30.06,NNW,338,1.6,1.6,51,0.00,,CLR,0.00,VWS V14.01,2013-01-22 13:22:00,
2013-01-22 08:23:00,30.3,14.4,30.06,WNW,292,1.3,1.3,51,0.00,,CLR,0.00,VWS V14.01,2013-01-22 13:23:00,
2013-01-22 08:24:00,30.2,14.2,30.06,NNW,338,1.1,1.1,51,0.00,,CLR,0.00,VWS V14.01,2013-01-22 13:24:00,
2013-01-22 08:25:00,30.2,14.2,30.06,NW,315,2.0,2.0,51,0.00,,CLR,0.00,VWS V14.01,2013-01-22 13:25:00,
2013-01-22 08:26:00,30.2,14.2,30.06,NNW,338,2.0,2.0,51,0.00,,CLR,0.00,VWS V14.01,2013-01-22 13:26:00,
2013-01-22 08:27:00,30.7,14.7,30.06,NNW,338,1.3,1.3,51,0.00,,CLR,0.00,VWS V14.01,2013-01-22 13:27:00,
2013-01-22 08:28:00,30.5,14.6,30.06,WNW,292,3.4,3.4,51,0.00,,CLR,0.00,VWS V14.01,2013-01-22 13:28:00,
2013-01-22 08:29:00,30.9,14.9,30.06,North,0,3.4,3.4,51,0.00,,CLR,0.00,VWS V14.01,2013-01-22 13:29:00,
2013-01-22 08:30:00,30.9,14.9,30.06,West,270,2.0,2.0,51,0.00,,CLR,0.00,VWS V14.01,2013-01-22 13:30:00,
2013-01-22 08:31:00,30.9,14.9,30.06,West,270,2.0,2.0,51,0.00,,CLR,0.00,VWS V14.01,2013-01-22 13:31:00,
2013-01-22 08:32:00,30.9,14.9,30.06,NNW,338,4.3,4.3,51,0.00,,CLR,0.00,VWS V14.01,2013-01-22 13:32:00,
2013-01-22 08:33:00,30.9,14.9,30.06,NNE,22,0.0,0.0,51,0.00,,CLR,0.00,VWS V14.01,2013-01-22 13:33:00,
2013-01-22 08:34:00,30.9,14.9,30.06,North,0,2.0,2.0,51,0.00,,CLR,0.00,VWS V14.01,2013-01-22 13:34:00,
2013-01-22 08:35:00,31.1,15.1,30.09,WSW,248,3.6,3.6,51,0.00,,CLR,0.00,VWS V14.01,2013-01-22 13:35:00,
2013-01-22 08:36:00,31.1,15.1,30.09,WSW,248,3.6,3.6,51,0.00,,CLR,0.00,VWS V14.01,2013-01-22 13:36:00,
2013-01-22 08:37:00,31.2,15.2,30.09,NNE,22,2.9,2.9,51,0.00,,CLR,0.00,VWS V14.01,2013-01-22 13:37:00,
2013-01-22 08:38:00,31.2,15.2,30.09,NNE,22,3.6,3.6,51,0.00,,CLR,0.00,VWS V14.01,2013-01-22 13:38:00,
2013-01-22 08:39:00,31.2,15.2,30.09,North,0,3.1,3.1,51,0.00,,CLR,0.00,VWS V14.01,2013-01-22 13:39:00,
2013-01-22 08:40:00,31.4,15.4,30.09,WNW,292,2.2,2.2,51,0.00,,CLR,0.00,VWS V14.01,2013-01-22 13:40:00,
2013-01-22 08:41:00,31.4,15.4,30.09,WNW,292,2.2,2.2,51,0.00,,CLR,0.00,VWS V14.01,2013-01-22 13:41:00,
2013-01-22 08:42:00,31.4,15.4,30.09,NNW,338,1.6,1.6,51,0.00,,CLR,0.00,VWS V14.01,2013-01-22 13:42:00,
2013-01-22 08:43:00,31.4,15.4,30.09,WNW,292,3.1,3.1,51,0.00,,CLR,0.00,VWS V14.01,2013-01-22 13:43:00,
2013-01-22 08:44:00,31.6,15.6,30.09,North,0,2.0,2.0,51,0.00,,CLR,0.00,VWS V14.01,2013-01-22 13:44:00,
2013-01-22 08:45:00,31.6,15.6,30.09,NNE,22,2.7,2.7,51,0.00,,CLR,0.00,VWS V14.01,2013-01-22 13:45:00,
2013-01-22 08:46:00,31.6,15.6,30.09,WNW,292,2.7,2.7,51,0.00,,CLR,0.00,VWS V14.01,2013-01-22 13:46:00,
2013-01-22 08:47:00,31.6,15.6,30.09,NNE,22,2.7,2.7,51,0.00,,CLR,0.00,VWS V14.01,2013-01-22 13:47:00,
2013-01-22 08:48:00,31.8,15.7,30.09,NNW,338,4.0,4.0,51,0.00,,CLR,0.00,VWS V14.01,2013-01-22 13:48:00,
2013-01-22 08:49:00,31.8,15.7,30.09,NW,315,4.0,4.0,51,0.00,,CLR,0.00,VWS V14.01,2013-01-22 13:49:00,
2013-01-22 08:50:00,31.8,15.7,30.09,NNE,22,2.7,2.7,51,0.00,,CLR,0.00,VWS V14.01,2013-01-22 13:50:00,
2013-01-22 08:51:00,31.8,15.7,30.09,NNE,22,4.0,4.0,51,0.00,,CLR,0.00,VWS V14.01,2013-01-22 13:51:00,
2013-01-22 08:52:00,31.8,15.7,30.09,NNE,22,4.9,4.9,51,0.00,,CLR,0.00,VWS V14.01,2013-01-22 13:52:00,
2013-01-22 08:53:00,32.0,15.9,30.09,North,0,2.5,2.5,51,0.00,,CLR,0.00,VWS V14.01,2013-01-22 13:53:00,
2013-01-22 08:54:00,32.0,15.9,30.09,North,0,1.6,1.6,51,0.00,,CLR,0.00,VWS V14.01,2013-01-22 13:54:00,
2013-01-22 08:55:00,32.0,15.9,30.09,North,0,8.1,8.1,51,0.00,,CLR,0.00,VWS V14.01,2013-01-22 13:55:00,
2013-01-22 08:56:00,32.0,15.9,30.09,NNE,22,2.9,2.9,51,0.00,,CLR,0.00,VWS V14.01,2013-01-22 13:56:00,
2013-01-22 08:57:00,32.0,15.9,30.09,North,0,8.1,8.1,51,0.00,,CLR,0.00,VWS V14.01,2013-01-22 13:57:00,
2013-01-22 08:58:00,32.1,16.1,30.09,NNE,22,3.8,3.8,51,0.00,,CLR,0.00,VWS V14.01,2013-01-22 13:58:00,
2013-01-22 08:59:00,32.3,16.2,30.09,NNW,338,4.0,4.0,51,0.00,,CLR,0.00,VWS V14.01,2013-01-22 13:59:00,
2013-01-22 09:00:00,32.5,16.4,30.09,NW,315,2.0,2.0,51,0.00,,CLR,0.00,VWS V14.01,2013-01-22 14:00:00,
2013-01-22 09:01:00,32.3,16.2,30.09,NW,315,4.0,4.0,51,0.00,,CLR,0.00,VWS V14.01,2013-01-22 14:01:00,
2013-01-22 09:02:00,32.5,16.4,30.09,West,270,2.7,2.7,51,0.00,,CLR,0.00,VWS V14.01,2013-01-22 14:02:00,
2013-01-22 09:03:00,32.3,16.2,30.09,NW,315,3.4,3.4,51,0.00,,CLR,0.00,VWS V14.01,2013-01-22 14:03:00,
2013-01-22 09:04:00,32.5,16.4,30.09,NNW,338,3.1,3.1,51,0.00,,CLR,0.00,VWS V14.01,2013-01-22 14:04:00,
2013-01-22 09:05:00,32.5,16.4,30.09,NNW,338,2.7,2.7,51,0.00,,CLR,0.00,VWS V14.01,2013-01-22 14:05:00,
2013-01-22 09:06:00,32.5,16.4,30.09,NNW,338,4.0,4.0,51,0.00,,CLR,0.00,VWS V14.01,2013-01-22 14:06:00,
2013-01-22 09:07:00,32.5,16.4,30.09,NE,45,2.9,2.9,51,0.00,,CLR,0.00,VWS V14.01,2013-01-22 14:07:00,
2013-01-22 09:08:00,32.7,16.6,30.09,NNW,338,3.4,3.4,51,0.00,,CLR,0.00,VWS V14.01,2013-01-22 14:08:00,
2013-01-22 09:09:00,32.7,16.6,30.09,WNW,292,4.3,4.3,51,0.00,,CLR,0.00,VWS V14.01,2013-01-22 14:09:00,
2013-01-22 09:10:00,32.9,16.7,30.09,NNW,338,2.9,2.9,51,0.00,,CLR,0.00,VWS V14.01,2013-01-22 14:10:00,
2013-01-22 09:11:00,32.9,16.7,30.09,North,0,1.3,1.3,51,0.00,,CLR,0.00,VWS V14.01,2013-01-22 14:11:00,
2013-01-22 09:12:00,32.9,16.7,30.09,North,0,2.5,2.5,51,0.00,,CLR,0.00,VWS V14.01,2013-01-22 14:12:00,
2013-01-22 09:13:00,32.9,16.7,30.09,NNE,22,4.0,4.0,51,0.00,,CLR,0.00,VWS V14.01,2013-01-22 14:13:00,
2013-01-22 09:14:00,33.0,16.9,30.09,NNE,22,2.2,2.2,51,0.00,,CLR,0.00,VWS V14.01,2013-01-22 14:14:00,
2013-01-22 09:15:00,33.0,16.9,30.09,NNE,22,1.3,1.3,51,0.00,,CLR,0.00,VWS V14.01,2013-01-22 14:15:00,
2013-01-22 09:16:00,33.0,16.9,30.09,North,0,2.2,2.2,51,0.00,,CLR,0.00,VWS V14.01,2013-01-22 14:16:00,
2013-01-22 09:17:00,33.0,16.9,30.09,NNW,338,2.9,2.9,51,0.00,,CLR,0.00,VWS V14.01,2013-01-22 14:17:00,
2013-01-22 09:18:00,33.2,17.1,30.09,NNW,338,3.4,3.4,51,0.00,,CLR,0.00,VWS V14.01,2013-01-22 14:18:00,
2013-01-22 09:19:00,33.2,17.1,30.09,NNE,22,3.8,3.8,51,0.00,,CLR,0.00,VWS V14.01,2013-01-22 14:19:00,
2013-01-22 09:20:00,33.2,17.1,30.12,NNW,338,5.6,5.6,51,0.00,,CLR,0.00,VWS V14.01,2013-01-22 14:20:00,
2013-01-22 09:21:00,33.2,17.1,30.12,North,0,3.8,3.8,51,0.00,,CLR,0.00,VWS V14.01,2013-01-22 14:21:00,
2013-01-22 09:22:00,33.2,17.1,30.12,NNE,22,4.3,4.3,51,0.00,,CLR,0.00,VWS V14.01,2013-01-22 14:22:00,
2013-01-22 09:23:00,33.4,16.8,30.12,NW,315,2.5,2.5,50,0.00,,CLR,0.00,VWS V14.01,2013-01-22 14:23:00,
2013-01-22 09:24:00,33.4,16.8,30.12,North,0,2.7,2.7,50,0.00,,CLR,0.00,VWS V14.01,2013-01-22 14:24:00,
2013-01-22 09:25:00,33.4,16.8,30.12,NNE,22,2.7,2.7,50,0.00,,CLR,0.00,VWS V14.01,2013-01-22 14:25:00,
2013-01-22 09:26:00,33.6,16.9,30.12,NNE,22,2.0,2.0,50,0.00,,CLR,0.00,VWS V14.01,2013-01-22 14:26:00,
2013-01-22 09:27:00,33.6,16.9,30.12,NNE,22,2.0,2.0,50,0.00,,CLR,0.00,VWS V14.01,2013-01-22 14:27:00,
2013-01-22 09:28:00,33.6,16.9,30.12,NNE,22,2.9,2.9,50,0.00,,CLR,0.00,VWS V14.01,2013-01-22 14:28:00,
2013-01-22 09:29:00,33.6,16.9,30.12,NW,315,4.3,4.3,50,0.00,,CLR,0.00,VWS V14.01,2013-01-22 14:29:00,
2013-01-22 09:30:00,33.6,16.9,30.12,NNW,338,2.9,2.9,50,0.00,,CLR,0.00,VWS V14.01,2013-01-22 14:30:00,
2013-01-22 09:31:00,33.6,16.9,30.12,NNE,22,5.6,5.6,50,0.00,,CLR,0.00,VWS V14.01,2013-01-22 14:31:00,
2013-01-22 09:32:00,33.6,16.9,30.12,NNE,22,5.4,5.4,50,0.00,,CLR,0.00,VWS V14.01,2013-01-22 14:32:00,
2013-01-22 09:33:00,33.8,17.1,30.12,North,0,5.8,5.8,50,0.00,,CLR,0.00,VWS V14.01,2013-01-22 14:33:00,
2013-01-22 09:34:00,33.6,16.9,30.12,NNE,22,4.9,4.9,50,0.00,,CLR,0.00,VWS V14.01,2013-01-22 14:34:00,
2013-01-22 09:35:00,33.6,16.9,30.12,NNW,338,6.7,6.7,50,0.00,,CLR,0.00,VWS V14.01,2013-01-22 14:35:00,
2013-01-22 09:36:00,33.9,17.3,30.12,WNW,292,8.7,8.7,50,0.00,,CLR,0.00,VWS V14.01,2013-01-22 14:36:00,
2013-01-22 09:37:00,33.9,17.3,30.12,WNW,292,8.7,8.7,50,0.00,,CLR,0.00,VWS V14.01,2013-01-22 14:37:00,
2013-01-22 09:38:00,33.6,16.9,30.12,NNW,338,3.8,3.8,50,0.00,,CLR,0.00,VWS V14.01,2013-01-22 14:38:00,
2013-01-22 09:39:00,33.8,17.1,30.12,NNW,338,5.8,5.8,50,0.00,,CLR,0.00,VWS V14.01,2013-01-22 14:39:00,
2013-01-22 09:40:00,33.4,16.8,30.12,NNW,338,4.0,4.0,50,0.00,,CLR,0.00,VWS V14.01,2013-01-22 14:40:00,
2013-01-22 09:41:00,33.6,16.9,30.12,NNW,338,2.7,2.7,50,0.00,,CLR,0.00,VWS V14.01,2013-01-22 14:41:00,
2013-01-22 09:42:00,33.6,16.9,30.12,NNW,338,2.7,2.7,50,0.00,,CLR,0.00,VWS V14.01,2013-01-22 14:42:00,
2013-01-22 09:43:00,33.8,17.1,30.12,NNE,22,2.0,2.0,50,0.00,,CLR,0.00,VWS V14.01,2013-01-22 14:43:00,
2013-01-22 09:44:00,33.9,17.3,30.12,North,0,5.4,5.4,50,0.00,,CLR,0.00,VWS V14.01,2013-01-22 14:44:00,
2013-01-22 09:45:00,33.9,17.3,30.12,NNW,338,3.6,3.6,50,0.00,,CLR,0.00,VWS V14.01,2013-01-22 14:45:00,
2013-01-22 09:46:00,33.9,17.3,30.12,NNW,338,4.7,4.7,50,0.00,,CLR,0.00,VWS V14.01,2013-01-22 14:46:00,
2013-01-22 09:47:00,33.9,17.3,30.12,North,0,3.8,3.8,50,0.00,,CLR,0.00,VWS V14.01,2013-01-22 14:47:00,
2013-01-22 09:48:00,33.9,17.3,30.12,NNW,338,4.0,4.0,50,0.00,,CLR,0.00,VWS V14.01,2013-01-22 14:48:00,
2013-01-22 09:49:00,34.1,17.4,30.12,NNW,338,2.7,2.7,50,0.00,,CLR,0.00,VWS V14.01,2013-01-22 14:49:00,
2013-01-22 09:50:00,34.1,17.4,30.12,North,0,1.6,1.6,50,0.00,,CLR,0.00,VWS V14.01,2013-01-22 14:50:00,
2013-01-22 09:51:00,34.1,17.4,30.12,WNW,292,2.7,2.7,50,0.00,,CLR,0.00,VWS V14.01,2013-01-22 14:51:00,
2013-01-22 09:52:00,34.1,17.4,30.12,WNW,292,3.8,3.8,50,0.00,,CLR,0.00,VWS V14.01,2013-01-22 14:52:00,
2013-01-22 09:53:00,34.1,17.4,30.12,NNW,338,2.2,2.2,50,0.00,,CLR,0.00,VWS V14.01,2013-01-22 14:53:00,
2013-01-22 09:54:00,34.7,17.9,30.12,WNW,292,4.3,4.3,50,0.00,,CLR,0.00,VWS V14.01,2013-01-22 14:54:00,
2013-01-22 09:55:00,34.7,17.9,30.12,NNW,338,2.7,2.7,50,0.00,,CLR,0.00,VWS V14.01,2013-01-22 14:55:00,
2013-01-22 09:56:00,34.5,17.8,30.12,WNW,292,5.4,5.4,50,0.00,,CLR,0.00,VWS V14.01,2013-01-22 14:56:00,
2013-01-22 09:57:00,34.5,17.8,30.12,North,0,4.0,4.0,50,0.00,,CLR,0.00,VWS V14.01,2013-01-22 14:57:00,
2013-01-22 09:58:00,34.5,17.8,30.12,WNW,292,5.4,5.4,50,0.00,,CLR,0.00,VWS V14.01,2013-01-22 14:58:00,
2013-01-22 09:59:00,34.1,17.4,30.12,North,0,3.6,3.6,50,0.00,,CLR,0.00,VWS V14.01,2013-01-22 14:59:00,
2013-01-22 10:00:00,34.5,17.8,30.12,NNW,338,2.0,2.0,50,0.00,,CLR,0.00,VWS V14.01,2013-01-22 15:00:00,
2013-01-22 10:01:00,34.5,17.8,30.12,NNE,22,5.8,5.8,50,0.00,,CLR,0.00,VWS V14.01,2013-01-22 15:01:00,
2013-01-22 10:02:00,34.5,17.8,30.12,NNE,22,4.9,4.9,50,0.00,,CLR,0.00,VWS V14.01,2013-01-22 15:02:00,
2013-01-22 10:03:00,34.5,17.8,30.12,NNE,22,6.0,6.0,50,0.00,,CLR,0.00,VWS V14.01,2013-01-22 15:03:00,
2013-01-22 10:04:00,34.7,17.9,30.12,NNE,22,8.1,8.1,50,0.00,,CLR,0.00,VWS V14.01,2013-01-22 15:04:00,
2013-01-22 10:05:00,34.7,17.9,30.12,North,0,3.1,3.1,50,0.00,,CLR,0.00,VWS V14.01,2013-01-22 15:05:00,
2013-01-22 10:06:00,34.5,17.8,30.12,NNW,338,4.0,4.0,50,0.00,,CLR,0.00,VWS V14.01,2013-01-22 15:06:00,
2013-01-22 10:07:00,34.5,17.8,30.12,NE,45,6.0,6.0,50,0.00,,CLR,0.00,VWS V14.01,2013-01-22 15:07:00,
2013-01-22 10:08:00,34.5,17.8,30.12,NNE,22,4.0,4.0,50,0.00,,CLR,0.00,VWS V14.01,2013-01-22 15:08:00,
2013-01-22 10:09:00,34.7,17.9,30.12,North,0,4.0,4.0,50,0.00,,CLR,0.00,VWS V14.01,2013-01-22 15:09:00,
2013-01-22 10:10:00,35.0,18.3,30.12,WNW,292,3.6,3.6,50,0.00,,CLR,0.00,VWS V14.01,2013-01-22 15:10:00,
2013-01-22 10:11:00,35.2,18.4,30.12,WNW,292,2.7,2.7,50,0.00,,CLR,0.00,VWS V14.01,2013-01-22 15:11:00,
2013-01-22 10:12:00,35.2,18.4,30.12,NNE,22,2.5,2.5,50,0.00,,CLR,0.00,VWS V14.01,2013-01-22 15:12:00,
2013-01-22 10:13:00,35.2,18.4,30.12,SSE,158,3.4,3.4,50,0.00,,CLR,0.00,VWS V14.01,2013-01-22 15:13:00,
2013-01-22 10:14:00,35.2,18.4,30.12,NNE,22,2.7,2.7,50,0.00,,CLR,0.00,VWS V14.01,2013-01-22 15:14:00,
2013-01-22 10:15:00,35.2,18.4,30.12,North,0,2.9,2.9,50,0.00,,CLR,0.00,VWS V14.01,2013-01-22 15:15:00,
2013-01-22 10:16:00,35.4,18.6,30.12,NE,45,6.0,6.0,50,0.00,,CLR,0.00,VWS V14.01,2013-01-22 15:16:00,
2013-01-22 10:17:00,35.4,18.6,30.12,North,0,5.6,5.6,50,0.00,,CLR,0.00,VWS V14.01,2013-01-22 15:17:00,
2013-01-22 10:18:00,35.4,18.6,30.12,NNE,22,5.6,5.6,50,0.00,,CLR,0.00,VWS V14.01,2013-01-22 15:18:00,
2013-01-22 10:19:00,35.4,18.6,30.12,NNE,22,5.4,5.4,50,0.00,,CLR,0.00,VWS V14.01,2013-01-22 15:19:00,
2013-01-22 10:20:00,35.4,18.6,30.15,NNE,22,3.8,3.8,50,0.00,,CLR,0.00,VWS V14.01,2013-01-22 15:20:00,
2013-01-22 10:21:00,35.4,18.6,30.15,NNE,22,6.3,6.3,50,0.00,,CLR,0.00,VWS V14.01,2013-01-22 15:21:00,
2013-01-22 10:22:00,35.2,18.4,30.15,NNE,22,5.8,5.8,50,0.00,,CLR,0.00,VWS V14.01,2013-01-22 15:22:00,
2013-01-22 10:23:00,35.2,18.4,30.15,NNE,22,5.4,5.4,50,0.00,,CLR,0.00,VWS V14.01,2013-01-22 15:23:00,
2013-01-22 10:24:00,35.4,18.6,30.15,NNE,22,3.6,3.6,50,0.00,,CLR,0.00,VWS V14.01,2013-01-22 15:24:00,
2013-01-22 10:25:00,35.6,18.8,30.15,NNW,338,8.1,8.1,50,0.00,,CLR,0.00,VWS V14.01,2013-01-22 15:25:00,
2013-01-22 10:26:00,35.4,18.6,30.15,North,0,3.1,3.1,50,0.00,,CLR,0.00,VWS V14.01,2013-01-22 15:26:00,
2013-01-22 10:27:00,35.2,18.4,30.15,North,0,4.0,4.0,50,0.00,,CLR,0.00,VWS V14.01,2013-01-22 15:27:00,
2013-01-22 10:28:00,35.2,18.4,30.15,NNW,338,6.0,6.0,50,0.00,,CLR,0.00,VWS V14.01,2013-01-22 15:28:00,
2013-01-22 10:29:00,34.8,18.1,30.15,West,270,3.6,3.6,50,0.00,,CLR,0.00,VWS V14.01,2013-01-22 15:29:00,
2013-01-22 10:30:00,35.7,18.9,30.15,NW,315,5.4,5.4,50,0.00,,CLR,0.00,VWS V14.01,2013-01-22 15:30:00,
2013-01-22 10:31:00,35.6,18.8,30.15,NNE,22,8.7,8.7,50,0.00,,CLR,0.00,VWS V14.01,2013-01-22 15:31:00,
2013-01-22 10:32:00,35.4,18.6,30.15,North,0,4.9,4.9,50,0.00,,CLR,0.00,VWS V14.01,2013-01-22 15:32:00,
2013-01-22 10:33:00,35.4,18.6,30.15,North,0,4.9,4.9,50,0.00,,CLR,0.00,VWS V14.01,2013-01-22 15:33:00,
2013-01-22 10:34:00,35.4,18.6,30.15,North,0,5.8,5.8,50,0.00,,CLR,0.00,VWS V14.01,2013-01-22 15:34:00,
2013-01-22 10:35:00,35.6,18.8,30.12,WNW,292,3.6,3.6,50,0.00,,CLR,0.00,VWS V14.01,2013-01-22 15:35:00,
2013-01-22 10:36:00,35.6,18.8,30.12,NNW,338,4.0,4.0,50,0.00,,CLR,0.00,VWS V14.01,2013-01-22 15:36:00,
2013-01-22 10:37:00,35.7,18.9,30.12,North,0,3.1,3.1,50,0.00,,CLR,0.00,VWS V14.01,2013-01-22 15:37:00,
2013-01-22 10:38:00,35.4,18.6,30.12,North,0,3.1,3.1,50,0.00,,CLR,0.00,VWS V14.01,2013-01-22 15:38:00,
2013-01-22 10:39:00,35.7,18.9,30.12,NNE,22,5.8,5.8,50,0.00,,CLR,0.00,VWS V14.01,2013-01-22 15:39:00,
2013-01-22 10:40:00,35.9,19.1,30.12,NNW,338,6.0,6.0,50,0.00,,CLR,0.00,VWS V14.01,2013-01-22 15:40:00,
2013-01-22 10:41:00,35.7,18.9,30.12,NNE,22,5.8,5.8,50,0.00,,CLR,0.00,VWS V14.01,2013-01-22 15:41:00,
2013-01-22 10:42:00,35.7,18.9,30.12,NW,315,4.0,4.0,50,0.00,,CLR,0.00,VWS V14.01,2013-01-22 15:42:00,
2013-01-22 10:43:00,35.7,18.9,30.12,NW,315,4.0,4.0,50,0.00,,CLR,0.00,VWS V14.01,2013-01-22 15:43:00,
2013-01-22 10:44:00,35.7,18.9,30.12,NW,315,3.4,3.4,50,0.00,,CLR,0.00,VWS V14.01,2013-01-22 15:44:00,
2013-01-22 10:45:00,35.7,18.9,30.12,NNW,338,2.2,2.2,50,0.00,,CLR,0.00,VWS V14.01,2013-01-22 15:45:00,
2013-01-22 10:46:00,35.7,18.9,30.12,North,0,6.0,6.0,50,0.00,,CLR,0.00,VWS V14.01,2013-01-22 15:46:00,
2013-01-22 10:47:00,35.9,19.1,30.12,NNW,338,4.0,4.0,50,0.00,,CLR,0.00,VWS V14.01,2013-01-22 15:47:00,
2013-01-22 10:48:00,35.9,19.1,30.12,NNW,338,4.0,4.0,50,0.00,,CLR,0.00,VWS V14.01,2013-01-22 15:48:00,
2013-01-22 10:49:00,36.1,19.3,30.12,NNW,338,3.8,3.8,50,0.00,,CLR,0.00,VWS V14.01,2013-01-22 15:49:00,
2013-01-22 10:50:00,36.3,19.4,30.15,NNW,338,3.4,3.4,50,0.00,,CLR,0.00,VWS V14.01,2013-01-22 15:50:00,
2013-01-22 10:51:00,36.6,19.8,30.15,North,0,5.6,5.6,50,0.00,,CLR,0.00,VWS V14.01,2013-01-22 15:51:00,
2013-01-22 10:52:00,36.6,19.8,30.15,WSW,248,6.3,6.3,50,0.00,,CLR,0.00,VWS V14.01,2013-01-22 15:52:00,
2013-01-22 10:53:00,36.6,19.8,30.15,North,0,6.5,6.5,50,0.00,,CLR,0.00,VWS V14.01,2013-01-22 15:53:00,
2013-01-22 10:54:00,36.5,19.6,30.15,North,0,3.8,3.8,50,0.00,,CLR,0.00,VWS V14.01,2013-01-22 15:54:00,
2013-01-22 10:55:00,36.5,19.6,30.15,WNW,292,3.1,3.1,50,0.00,,CLR,0.00,VWS V14.01,2013-01-22 15:55:00,
2013-01-22 10:56:00,36.5,19.6,30.15,North,0,3.6,3.6,50,0.00,,CLR,0.00,VWS V14.01,2013-01-22 15:56:00,
2013-01-22 10:57:00,36.5,19.6,30.15,West,270,4.3,4.3,50,0.00,,CLR,0.00,VWS V14.01,2013-01-22 15:57:00,
2013-01-22 10:58:00,36.5,19.6,30.15,West,270,4.3,4.3,50,0.00,,CLR,0.00,VWS V14.01,2013-01-22 15:58:00,
2013-01-22 10:59:00,36.5,19.6,30.15,NNW,338,4.0,4.0,50,0.00,,CLR,0.00,VWS V14.01,2013-01-22 15:59:00,
2013-01-22 11:00:00,35.9,19.1,30.15,NNW,338,4.7,4.7,50,0.00,,CLR,0.00,VWS V14.01,2013-01-22 16:00:00,
2013-01-22 11:01:00,36.5,19.6,30.15,NNW,338,5.6,5.6,50,0.00,,CLR,0.00,VWS V14.01,2013-01-22 16:01:00,
2013-01-22 11:02:00,36.8,19.9,30.15,NNW,338,2.7,2.7,50,0.00,,CLR,0.00,VWS V14.01,2013-01-22 16:02:00,
2013-01-22 11:03:00,36.8,19.9,30.15,NNW,338,2.7,2.7,50,0.00,,CLR,0.00,VWS V14.01,2013-01-22 16:03:00,
2013-01-22 11:04:00,37.0,20.1,30.15,NNE,22,4.3,4.3,50,0.00,,CLR,0.00,VWS V14.01,2013-01-22 16:04:00,
2013-01-22 11:05:00,37.0,20.1,30.15,NNW,338,5.8,5.8,50,0.00,,CLR,0.00,VWS V14.01,2013-01-22 16:05:00,
2013-01-22 11:06:00,37.0,20.1,30.15,NW,315,6.5,6.5,50,0.00,,CLR,0.00,VWS V14.01,2013-01-22 16:06:00,
2013-01-22 11:07:00,36.8,19.9,30.15,North,0,6.5,6.5,50,0.00,,CLR,0.00,VWS V14.01,2013-01-22 16:07:00,
2013-01-22 11:08:00,36.8,19.9,30.15,NNE,22,5.6,5.6,50,0.00,,CLR,0.00,VWS V14.01,2013-01-22 16:08:00,
2013-01-22 11:09:00,36.8,19.9,30.15,NNE,22,3.4,3.4,50,0.00,,CLR,0.00,VWS V14.01,2013-01-22 16:09:00,
2013-01-22 11:10:00,37.0,20.1,30.15,WNW,292,1.3,1.3,50,0.00,,CLR,0.00,VWS V14.01,2013-01-22 16:10:00,
2013-01-22 11:11:00,37.5,20.6,30.15,NNW,338,1.3,1.3,50,0.00,,CLR,0.00,VWS V14.01,2013-01-22 16:11:00,
2013-01-22 11:12:00,37.2,20.3,30.15,NNW,338,4.0,4.0,50,0.00,,CLR,0.00,VWS V14.01,2013-01-22 16:12:00,
2013-01-22 11:13:00,37.2,20.3,30.15,NNW,338,4.0,4.0,50,0.00,,CLR,0.00,VWS V14.01,2013-01-22 16:13:00,
2013-01-22 11:14:00,37.0,20.1,30.15,NNE,22,5.4,5.4,50,0.00,,CLR,0.00,VWS V14.01,2013-01-22 16:14:00,
2013-01-22 11:15:00,36.3,19.4,30.15,North,0,5.4,5.4,50,0.00,,CLR,0.00,VWS V14.01,2013-01-22 16:15:00,
2013-01-22 11:16:00,36.6,19.8,30.15,NNE,22,3.1,3.1,50,0.00,,CLR,0.00,VWS V14.01,2013-01-22 16:16:00,
2013-01-22 11:17:00,36.1,19.3,30.15,WSW,248,4.0,4.0,50,0.00,,CLR,0.00,VWS V14.01,2013-01-22 16:17:00,
2013-01-22 11:18:00,36.1,19.3,30.15,WSW,248,4.0,4.0,50,0.00,,CLR,0.00,VWS V14.01,2013-01-22 16:18:00,
2013-01-22 11:19:00,37.7,20.8,30.15,NNW,338,4.3,4.3,50,0.00,,CLR,0.00,VWS V14.01,2013-01-22 16:19:00,
2013-01-22 11:20:00,37.2,20.3,30.12,NNW,338,2.2,2.2,50,0.00,,CLR,0.00,VWS V14.01,2013-01-22 16:20:00,
2013-01-22 11:21:00,37.2,20.3,30.12,NE,45,9.4,9.4,50,0.00,,CLR,0.00,VWS V14.01,2013-01-22 16:21:00,
2013-01-22 11:22:00,37.2,20.3,30.12,NNE,22,3.6,3.6,50,0.00,,CLR,0.00,VWS V14.01,2013-01-22 16:22:00,
2013-01-22 11:23:00,37.2,20.3,30.12,NNE,22,3.6,3.6,50,0.00,,CLR,0.00,VWS V14.01,2013-01-22 16:23:00,
2013-01-22 11:24:00,37.2,20.3,30.12,NNE,22,5.6,5.6,50,0.00,,CLR,0.00,VWS V14.01,2013-01-22 16:24:00,
2013-01-22 11:25:00,37.2,20.3,30.12,NNW,338,2.9,2.9,50,0.00,,CLR,0.00,VWS V14.01,2013-01-22 16:25:00,
2013-01-22 11:26:00,37.4,20.4,30.12,North,0,3.6,3.6,50,0.00,,CLR,0.00,VWS V14.01,2013-01-22 16:26:00,
2013-01-22 11:27:00,37.4,20.4,30.12,NNW,338,3.6,3.6,50,0.00,,CLR,0.00,VWS V14.01,2013-01-22 16:27:00,
2013-01-22 11:28:00,37.4,20.4,30.12,WNW,292,6.0,6.0,50,0.00,,CLR,0.00,VWS V14.01,2013-01-22 16:28:00,
2013-01-22 11:29:00,37.2,20.3,30.12,NNE,22,5.6,5.6,50,0.00,,CLR,0.00,VWS V14.01,2013-01-22 16:29:00,
2013-01-22 11:30:00,37.4,20.4,30.12,North,0,3.8,3.8,50,0.00,,CLR,0.00,VWS V14.01,2013-01-22 16:30:00,
2013-01-22 11:31:00,37.4,20.4,30.12,WNW,292,2.5,2.5,50,0.00,,CLR,0.00,VWS V14.01,2013-01-22 16:31:00,
2013-01-22 11:32:00,38.4,21.4,30.12,WNW,292,1.6,1.6,50,0.00,,CLR,0.00,VWS V14.01,2013-01-22 16:32:00,
2013-01-22 11:33:00,38.4,21.4,30.12,West,270,4.7,4.7,50,0.00,,CLR,0.00,VWS V14.01,2013-01-22 16:33:00,
2013-01-22 11:34:00,37.2,20.3,30.12,WNW,292,6.0,6.0,50,0.00,,CLR,0.00,VWS V14.01,2013-01-22 16:34:00,
2013-01-22 11:35:00,37.4,20.4,30.12,WNW,292,3.8,3.8,50,0.00,,CLR,0.00,VWS V14.01,2013-01-22 16:35:00,
2013-01-22 11:36:00,37.5,20.6,30.12,West,270,6.0,6.0,50,0.00,,CLR,0.00,VWS V14.01,2013-01-22 16:36:00,
2013-01-22 11:37:00,36.6,19.8,30.12,WNW,292,6.0,6.0,50,0.00,,CLR,0.00,VWS V14.01,2013-01-22 16:37:00,
2013-01-22 11:38:00,37.7,20.8,30.12,NW,315,4.7,4.7,50,0.00,,CLR,0.00,VWS V14.01,2013-01-22 16:38:00,
2013-01-22 11:39:00,37.7,20.8,30.12,WSW,248,8.5,8.5,50,0.00,,CLR,0.00,VWS V14.01,2013-01-22 16:39:00,
2013-01-22 11:40:00,37.5,20.6,30.12,NNE,22,2.9,2.9,50,0.00,,CLR,0.00,VWS V14.01,2013-01-22 16:40:00,
2013-01-22 11:41:00,36.5,19.6,30.12,West,270,3.8,3.8,50,0.00,,CLR,0.00,VWS V14.01,2013-01-22 16:41:00,
2013-01-22 11:42:00,37.2,20.3,30.12,WNW,292,6.3,6.3,50,0.00,,CLR,0.00,VWS V14.01,2013-01-22 16:42:00,
2013-01-22 11:43:00,37.4,20.4,30.12,NNW,338,2.9,2.9,50,0.00,,CLR,0.00,VWS V14.01,2013-01-22 16:43:00,
2013-01-22 11:44:00,37.2,20.3,30.12,NNW,338,9.8,9.8,50,0.00,,CLR,0.00,VWS V14.01,2013-01-22 16:44:00,
2013-01-22 11:45:00,36.5,19.6,30.12,WSW,248,6.3,6.3,50,0.00,,CLR,0.00,VWS V14.01,2013-01-22 16:45:00,
2013-01-22 11:46:00,36.5,19.6,30.12,WNW,292,1.6,1.6,50,0.00,,CLR,0.00,VWS V14.01,2013-01-22 16:46:00,
2013-01-22 11:47:00,37.2,20.3,30.12,WNW,292,2.9,2.9,50,0.00,,CLR,0.00,VWS V14.01,2013-01-22 16:47:00,
2013-01-22 11:48:00,37.5,20.6,30.12,West,270,2.7,2.7,50,0.00,,CLR,0.00,VWS V14.01,2013-01-22 16:48:00,
2013-01-22 11:49:00,37.2,20.3,30.12,NNW,338,2.5,2.5,50,0.00,,CLR,0.00,VWS V14.01,2013-01-22 16:49:00,
2013-01-22 11:50:00,37.2,20.3,30.12,North,0,3.6,3.6,50,0.00,,CLR,0.00,VWS V14.01,2013-01-22 16:50:00,
2013-01-22 11:51:00,37.4,20.4,30.12,North,0,2.9,2.9,50,0.00,,CLR,0.00,VWS V14.01,2013-01-22 16:51:00,
2013-01-22 11:52:00,37.4,20.4,30.12,NNE,22,3.8,3.8,50,0.00,,CLR,0.00,VWS V14.01,2013-01-22 16:52:00,
2013-01-22 11:53:00,37.4,20.4,30.12,NE,45,2.7,2.7,50,0.00,,CLR,0.00,VWS V14.01,2013-01-22 16:53:00,
2013-01-22 11:54:00,37.4,20.4,30.12,NE,45,4.0,4.0,50,0.00,,CLR,0.00,VWS V14.01,2013-01-22 16:54:00,
2013-01-22 11:55:00,37.4,20.4,30.12,WNW,292,4.3,4.3,50,0.00,,CLR,0.00,VWS V14.01,2013-01-22 16:55:00,
2013-01-22 11:56:00,37.0,20.1,30.12,ENE,68,4.7,4.7,50,0.00,,CLR,0.00,VWS V14.01,2013-01-22 16:56:00,
2013-01-22 11:57:00,37.4,20.4,30.12,North,0,5.4,5.4,50,0.00,,CLR,0.00,VWS V14.01,2013-01-22 16:57:00,
2013-01-22 11:58:00,37.2,20.3,30.12,NNW,338,4.3,4.3,50,0.00,,CLR,0.00,VWS V14.01,2013-01-22 16:58:00,
2013-01-22 11:59:00,37.2,20.3,30.12,NNE,22,4.9,4.9,50,0.00,,CLR,0.00,VWS V14.01,2013-01-22 16:59:00,
2013-01-22 12:00:00,36.5,19.6,30.12,NNW,338,3.6,3.6,50,0.00,,CLR,0.00,VWS V14.01,2013-01-22 17:00:00,
2013-01-22 12:01:00,37.2,20.3,30.12,WNW,292,5.8,5.8,50,0.00,,CLR,0.00,VWS V14.01,2013-01-22 17:01:00,
2013-01-22 12:02:00,37.2,20.3,30.12,WNW,292,5.4,5.4,50,0.00,,CLR,0.00,VWS V14.01,2013-01-22 17:02:00,
2013-01-22 12:03:00,37.2,20.3,30.12,North,0,5.4,5.4,50,0.00,,CLR,0.00,VWS V14.01,2013-01-22 17:03:00,
2013-01-22 12:04:00,37.2,20.3,30.12,North,0,5.4,5.4,50,0.00,,CLR,0.00,VWS V14.01,2013-01-22 17:04:00,
2013-01-22 12:05:00,37.2,20.3,30.12,NW,315,4.3,4.3,50,0.00,,CLR,0.00,VWS V14.01,2013-01-22 17:05:00,
2013-01-22 12:06:00,37.0,20.1,30.12,NW,315,3.8,3.8,50,0.00,,CLR,0.00,VWS V14.01,2013-01-22 17:06:00,
2013-01-22 12:07:00,37.2,20.3,30.12,NNW,338,5.6,5.6,50,0.00,,CLR,0.00,VWS V14.01,2013-01-22 17:07:00,
2013-01-22 12:08:00,37.2,20.3,30.12,North,0,2.0,2.0,50,0.00,,CLR,0.00,VWS V14.01,2013-01-22 17:08:00,
2013-01-22 12:09:00,37.2,20.3,30.12,North,0,2.7,2.7,50,0.00,,CLR,0.00,VWS V14.01,2013-01-22 17:09:00,
2013-01-22 12:10:00,37.0,20.1,30.12,West,270,8.1,8.1,50,0.00,,CLR,0.00,VWS V14.01,2013-01-22 17:10:00,
2013-01-22 12:11:00,37.0,20.1,30.12,WSW,248,6.0,6.0,50,0.00,,CLR,0.00,VWS V14.01,2013-01-22 17:11:00,
2013-01-22 12:12:00,37.4,20.4,30.12,NNW,338,1.6,1.6,50,0.00,,CLR,0.00,VWS V14.01,2013-01-22 17:12:00,
2013-01-22 12:13:00,37.4,20.4,30.12,West,270,0.9,0.9,50,0.00,,CLR,0.00,VWS V14.01,2013-01-22 17:13:00,
2013-01-22 12:14:00,37.4,20.4,30.12,West,270,0.9,0.9,50,0.00,,CLR,0.00,VWS V14.01,2013-01-22 17:14:00,
2013-01-22 12:15:00,37.5,20.6,30.12,WSW,248,1.1,1.1,50,0.00,,CLR,0.00,VWS V14.01,2013-01-22 17:15:00,
2013-01-22 12:16:00,37.5,20.6,30.12,WNW,292,6.5,6.5,50,0.00,,CLR,0.00,VWS V14.01,2013-01-22 17:16:00,
2013-01-22 12:17:00,39.7,22.1,30.12,WNW,292,4.0,4.0,49,0.00,,CLR,0.00,VWS V14.01,2013-01-22 17:17:00,
2013-01-22 12:18:00,39.2,21.6,30.12,WNW,292,4.9,4.9,49,0.00,,CLR,0.00,VWS V14.01,2013-01-22 17:18:00,
2013-01-22 12:19:00,39.2,21.6,30.12,WNW,292,4.9,4.9,49,0.00,,CLR,0.00,VWS V14.01,2013-01-22 17:19:00,
2013-01-22 12:20:00,38.8,21.3,30.12,NNW,338,2.9,2.9,49,0.00,,CLR,0.00,VWS V14.01,2013-01-22 17:20:00,
2013-01-22 12:21:00,38.4,21.4,30.12,NNE,22,5.6,5.6,50,0.00,,CLR,0.00,VWS V14.01,2013-01-22 17:21:00,
2013-01-22 12:22:00,38.3,21.3,30.12,WNW,292,5.6,5.6,50,0.00,,CLR,0.00,VWS V14.01,2013-01-22 17:22:00,
2013-01-22 12:23:00,37.9,20.9,30.12,NNW,338,3.8,3.8,50,0.00,,CLR,0.00,VWS V14.01,2013-01-22 17:23:00,
2013-01-22 12:24:00,37.9,20.9,30.12,NNW,338,3.8,3.8,50,0.00,,CLR,0.00,VWS V14.01,2013-01-22 17:24:00,
2013-01-22 12:25:00,37.5,20.6,30.12,West,270,12.8,12.8,50,0.00,,CLR,0.00,VWS V14.01,2013-01-22 17:25:00,
2013-01-22 12:26:00,37.5,20.6,30.12,WNW,292,8.5,8.5,50,0.00,,CLR,0.00,VWS V14.01,2013-01-22 17:26:00,
2013-01-22 12:27:00,38.8,21.3,30.12,NW,315,6.5,6.5,49,0.00,,CLR,0.00,VWS V14.01,2013-01-22 17:27:00,
2013-01-22 12:28:00,38.3,21.3,30.12,WSW,248,8.5,8.5,50,0.00,,CLR,0.00,VWS V14.01,2013-01-22 17:28:00,
2013-01-22 12:29:00,38.3,21.3,30.12,WSW,248,8.5,8.5,50,0.00,,CLR,0.00,VWS V14.01,2013-01-22 17:29:00,
2013-01-22 12:30:00,37.0,20.1,30.12,West,270,4.9,4.9,50,0.00,,CLR,0.00,VWS V14.01,2013-01-22 17:30:00,
2013-01-22 12:31:00,37.2,20.3,30.12,WSW,248,8.1,8.1,50,0.00,,CLR,0.00,VWS V14.01,2013-01-22 17:31:00,
2013-01-22 12:32:00,38.3,21.3,30.12,NNW,338,2.7,2.7,50,0.00,,CLR,0.00,VWS V14.01,2013-01-22 17:32:00,
2013-01-22 12:33:00,39.2,21.6,30.12,West,270,6.3,6.3,49,0.00,,CLR,0.00,VWS V14.01,2013-01-22 17:33:00,
2013-01-22 12:34:00,39.2,21.6,30.12,West,270,6.3,6.3,49,0.00,,CLR,0.00,VWS V14.01,2013-01-22 17:34:00,
2013-01-22 12:35:00,38.1,21.1,30.12,West,270,8.1,8.1,50,0.00,,CLR,0.00,VWS V14.01,2013-01-22 17:35:00,
2013-01-22 12:36:00,37.5,20.6,30.12,WNW,292,5.6,5.6,50,0.00,,CLR,0.00,VWS V14.01,2013-01-22 17:36:00,
2013-01-22 12:37:00,37.7,20.8,30.12,WNW,292,4.0,4.0,50,0.00,,CLR,0.00,VWS V14.01,2013-01-22 17:37:00,
2013-01-22 12:38:00,37.5,20.6,30.12,NNW,338,4.0,4.0,50,0.00,,CLR,0.00,VWS V14.01,2013-01-22 17:38:00,
2013-01-22 12:39:00,37.5,20.6,30.12,NNW,338,4.0,4.0,50,0.00,,CLR,0.00,VWS V14.01,2013-01-22 17:39:00,
2013-01-22 12:40:00,37.7,20.8,30.12,WSW,248,5.8,5.8,50,0.00,,CLR,0.00,VWS V14.01,2013-01-22 17:40:00,
2013-01-22 12:41:00,37.5,20.6,30.12,WNW,292,6.3,6.3,50,0.00,,CLR,0.00,VWS V14.01,2013-01-22 17:41:00,
2013-01-22 12:42:00,38.3,21.3,30.12,West,270,3.4,3.4,50,0.00,,CLR,0.00,VWS V14.01,2013-01-22 17:42:00,
2013-01-22 12:43:00,37.2,20.3,30.12,WNW,292,6.0,6.0,50,0.00,,CLR,0.00,VWS V14.01,2013-01-22 17:43:00,
2013-01-22 12:44:00,37.2,20.3,30.12,WNW,292,6.0,6.0,50,0.00,,CLR,0.00,VWS V14.01,2013-01-22 17:44:00,
2013-01-22 12:45:00,38.8,21.3,30.12,NW,315,3.8,3.8,49,0.00,,CLR,0.00,VWS V14.01,2013-01-22 17:45:00,
2013-01-22 12:46:00,38.4,21.4,30.12,WSW,248,4.7,4.7,50,0.00,,CLR,0.00,VWS V14.01,2013-01-22 17:46:00,
2013-01-22 12:47:00,39.2,21.6,30.12,WSW,248,2.0,2.0,49,0.00,,CLR,0.00,VWS V14.01,2013-01-22 17:47:00,
2013-01-22 12:48:00,39.0,21.5,30.12,NNW,338,5.6,5.6,49,0.00,,CLR,0.00,VWS V14.01,2013-01-22 17:48:00,
2013-01-22 12:49:00,39.0,21.5,30.12,NNW,338,5.6,5.6,49,0.00,,CLR,0.00,VWS V14.01,2013-01-22 17:49:00,
2013-01-22 12:50:00,39.0,21.5,30.09,West,270,3.6,3.6,49,0.00,,CLR,0.00,VWS V14.01,2013-01-22 17:50:00,
2013-01-22 12:51:00,39.2,21.6,30.09,NW,315,10.3,10.3,49,0.00,,CLR,0.00,VWS V14.01,2013-01-22 17:51:00,
2013-01-22 12:52:00,38.3,21.3,30.09,West,270,9.6,9.6,50,0.00,,CLR,0.00,VWS V14.01,2013-01-22 17:52:00,
2013-01-22 12:53:00,37.9,20.9,30.09,WSW,248,7.6,7.6,50,0.00,,CLR,0.00,VWS V14.01,2013-01-22 17:53:00,
2013-01-22 12:54:00,37.9,20.9,30.09,WSW,248,7.6,7.6,50,0.00,,CLR,0.00,VWS V14.01,2013-01-22 17:54:00,
2013-01-22 12:56:00,38.4,21.4,30.09,WNW,292,4.3,4.3,50,0.00,,CLR,0.00,VWS V14.01,2013-01-22 17:56:00,
2013-01-22 12:57:00,39.3,21.8,30.09,NNW,338,3.1,3.1,49,0.00,,CLR,0.00,VWS V14.01,2013-01-22 17:57:00,
2013-01-22 12:58:00,39.0,21.5,30.09,WNW,292,7.6,7.6,49,0.00,,CLR,0.00,VWS V14.01,2013-01-22 17:58:00,
2013-01-22 12:59:00,39.0,21.5,30.09,WNW,292,7.6,7.6,49,0.00,,CLR,0.00,VWS V14.01,2013-01-22 17:59:00,
2013-01-22 13:00:00,39.3,21.8,30.09,North,0,3.8,3.8,49,0.00,,CLR,0.00,VWS V14.01,2013-01-22 18:00:00,
2013-01-22 13:01:00,39.0,21.5,30.09,NNE,22,5.6,5.6,49,0.00,,CLR,0.00,VWS V14.01,2013-01-22 18:01:00,
2013-01-22 13:02:00,39.0,21.5,30.09,NNE,22,6.5,6.5,49,0.00,,CLR,0.00,VWS V14.01,2013-01-22 18:02:00,
2013-01-22 13:03:00,38.8,21.3,30.09,NNE,22,6.3,6.3,49,0.00,,CLR,0.00,VWS V14.01,2013-01-22 18:03:00,
2013-01-22 13:04:00,38.8,21.3,30.09,NNE,22,6.3,6.3,49,0.00,,CLR,0.00,VWS V14.01,2013-01-22 18:04:00,
2013-01-22 13:05:00,38.4,21.4,30.06,NNE,22,5.4,5.4,50,0.00,,CLR,0.00,VWS V14.01,2013-01-22 18:05:00,
2013-01-22 13:06:00,38.4,21.4,30.06,NNE,22,2.9,2.9,50,0.00,,CLR,0.00,VWS V14.01,2013-01-22 18:06:00,
2013-01-22 13:08:00,40.1,22.5,30.06,West,270,8.1,8.1,49,0.00,,CLR,0.00,VWS V14.01,2013-01-22 18:08:00,
2013-01-22 13:09:00,40.1,22.5,30.06,West,270,8.1,8.1,49,0.00,,CLR,0.00,VWS V14.01,2013-01-22 18:09:00,
2013-01-22 13:11:00,39.3,21.8,30.06,West,270,8.1,8.1,49,0.00,,CLR,0.00,VWS V14.01,2013-01-22 18:11:00,
2013-01-22 13:12:00,39.7,22.1,30.06,WNW,292,4.0,4.0,49,0.00,,CLR,0.00,VWS V14.01,2013-01-22 18:12:00,
2013-01-22 13:13:00,38.8,21.3,30.06,NW,315,5.4,5.4,49,0.00,,CLR,0.00,VWS V14.01,2013-01-22 18:13:00,
2013-01-22 13:14:00,39.0,21.5,30.06,SW,225,2.5,2.5,49,0.00,,CLR,0.00,VWS V14.01,2013-01-22 18:14:00,
2013-01-22 13:15:00,38.4,21.4,30.06,SSW,202,2.9,2.9,50,0.00,,CLR,0.00,VWS V14.01,2013-01-22 18:15:00,
2013-01-22 13:16:00,38.4,21.4,30.06,SW,225,3.1,3.1,50,0.00,,CLR,0.00,VWS V14.01,2013-01-22 18:16:00,
2013-01-22 13:17:00,38.8,21.3,30.06,WNW,292,4.7,4.7,49,0.00,,CLR,0.00,VWS V14.01,2013-01-22 18:17:00,
2013-01-22 13:18:00,38.4,21.4,30.06,WNW,292,2.9,2.9,50,0.00,,CLR,0.00,VWS V14.01,2013-01-22 18:18:00,
2013-01-22 13:19:00,39.0,21.5,30.06,NNW,338,3.8,3.8,49,0.00,,CLR,0.00,VWS V14.01,2013-01-22 18:19:00,
2013-01-22 13:20:00,39.0,21.5,30.09,NW,315,6.7,6.7,49,0.00,,CLR,0.00,VWS V14.01,2013-01-22 18:20:00,
2013-01-22 13:21:00,39.0,21.5,30.06,WSW,248,4.3,4.3,49,0.00,,CLR,0.00,VWS V14.01,2013-01-22 18:21:00,
2013-01-22 13:22:00,39.2,21.6,30.09,NNE,22,6.5,6.5,49,0.00,,CLR,0.00,VWS V14.01,2013-01-22 18:22:00,
2013-01-22 13:23:00,39.2,21.6,30.09,NE,45,3.1,3.1,49,0.00,,CLR,0.00,VWS V14.01,2013-01-22 18:23:00,
2013-01-22 13:24:00,39.2,21.6,30.09,NNE,22,3.4,3.4,49,0.00,,CLR,0.00,VWS V14.01,2013-01-22 18:24:00,
2013-01-22 13:25:00,40.1,22.5,30.09,WNW,292,3.1,3.1,49,0.00,,CLR,0.00,VWS V14.01,2013-01-22 18:25:00,
2013-01-22 13:26:00,40.1,22.5,30.09,WNW,292,3.1,3.1,49,0.00,,CLR,0.00,VWS V14.01,2013-01-22 18:26:00,
2013-01-22 13:27:00,39.2,21.6,30.09,SSW,202,3.4,3.4,49,0.00,,CLR,0.00,VWS V14.01,2013-01-22 18:27:00,
2013-01-22 13:28:00,38.8,21.3,30.09,SSW,202,2.5,2.5,49,0.00,,CLR,0.00,VWS V14.01,2013-01-22 18:28:00,
2013-01-22 13:29:00,38.3,21.3,30.09,WNW,292,2.0,2.0,50,0.00,,CLR,0.00,VWS V14.01,2013-01-22 18:29:00,
2013-01-22 13:30:00,38.8,21.3,30.09,North,0,2.7,2.7,49,0.00,,CLR,0.00,VWS V14.01,2013-01-22 18:30:00,
2013-01-22 13:31:00,38.8,21.3,30.09,North,0,2.7,2.7,49,0.00,,CLR,0.00,VWS V14.01,2013-01-22 18:31:00,
2013-01-22 13:32:00,39.3,21.8,30.09,NNW,338,3.8,3.8,49,0.00,,CLR,0.00,VWS V14.01,2013-01-22 18:32:00,
2013-01-22 13:33:00,40.1,22.5,30.09,NNW,338,7.4,7.4,49,0.00,,CLR,0.00,VWS V14.01,2013-01-22 18:33:00,
2013-01-22 13:34:00,39.2,21.6,30.09,NW,315,3.1,3.1,49,0.00,,CLR,0.00,VWS V14.01,2013-01-22 18:34:00,
2013-01-22 13:35:00,40.6,23.0,30.09,West,270,7.6,7.6,49,0.00,,CLR,0.00,VWS V14.01,2013-01-22 18:35:00,
2013-01-22 13:36:00,40.6,23.0,30.09,West,270,7.6,7.6,49,0.00,,CLR,0.00,VWS V14.01,2013-01-22 18:36:00,
2013-01-22 13:37:00,39.3,21.8,30.09,WNW,292,6.3,6.3,49,0.00,,CLR,0.00,VWS V14.01,2013-01-22 18:37:00,
2013-01-22 13:38:00,39.3,21.8,30.09,NNW,338,3.8,3.8,49,0.00,,CLR,0.00,VWS V14.01,2013-01-22 18:38:00,
2013-01-22 13:39:00,39.9,22.3,30.09,NNE,22,5.4,5.4,49,0.00,,CLR,0.00,VWS V14.01,2013-01-22 18:39:00,
2013-01-22 13:40:00,39.7,22.1,30.09,NNE,22,2.7,2.7,49,0.00,,CLR,0.00,VWS V14.01,2013-01-22 18:40:00,
2013-01-22 13:41:00,39.7,22.1,30.09,NNE,22,2.7,2.7,49,0.00,,CLR,0.00,VWS V14.01,2013-01-22 18:41:00,
2013-01-22 13:42:00,40.2,22.6,30.09,NNW,338,4.9,4.9,49,0.00,,CLR,0.00,VWS V14.01,2013-01-22 18:42:00,
2013-01-22 13:43:00,40.6,23.0,30.09,NW,315,9.0,9.0,49,0.00,,CLR,0.00,VWS V14.01,2013-01-22 18:43:00,
2013-01-22 13:44:00,40.1,22.5,30.09,NNW,338,7.4,7.4,49,0.00,,CLR,0.00,VWS V14.01,2013-01-22 18:44:00,
2013-01-22 13:45:00,39.5,22.0,30.09,NNE,22,2.5,2.5,49,0.00,,CLR,0.00,VWS V14.01,2013-01-22 18:45:00,
2013-01-22 13:46:00,39.5,22.0,30.09,NNE,22,2.5,2.5,49,0.00,,CLR,0.00,VWS V14.01,2013-01-22 18:46:00,
2013-01-22 13:47:00,38.4,21.4,30.09,West,270,7.2,7.2,50,0.00,,CLR,0.00,VWS V14.01,2013-01-22 18:47:00,
2013-01-22 13:48:00,39.5,22.0,30.09,NW,315,2.9,2.9,49,0.00,,CLR,0.00,VWS V14.01,2013-01-22 18:48:00,
2013-01-22 13:49:00,39.5,22.0,30.09,NNW,338,5.4,5.4,49,0.00,,CLR,0.00,VWS V14.01,2013-01-22 18:49:00,
2013-01-22 13:50:00,39.3,21.8,30.09,NNW,338,3.4,3.4,49,0.00,,CLR,0.00,VWS V14.01,2013-01-22 18:50:00,
2013-01-22 13:51:00,39.3,21.8,30.09,NNW,338,3.4,3.4,49,0.00,,CLR,0.00,VWS V14.01,2013-01-22 18:51:00,
2013-01-22 13:52:00,39.2,21.6,30.09,NNW,338,3.6,3.6,49,0.00,,CLR,0.00,VWS V14.01,2013-01-22 18:52:00,
2013-01-22 13:53:00,39.5,22.0,30.09,North,0,3.1,3.1,49,0.00,,CLR,0.00,VWS V14.01,2013-01-22 18:53:00,
2013-01-22 13:54:00,39.7,22.1,30.09,NNE,22,2.9,2.9,49,0.00,,CLR,0.00,VWS V14.01,2013-01-22 18:54:00,
2013-01-22 13:55:00,39.7,22.1,30.09,NNW,338,7.2,7.2,49,0.00,,CLR,0.00,VWS V14.01,2013-01-22 18:55:00,
2013-01-22 13:56:00,39.7,22.1,30.09,NNW,338,7.2,7.2,49,0.00,,CLR,0.00,VWS V14.01,2013-01-22 18:56:00,
2013-01-22 13:57:00,39.9,22.3,30.09,North,0,5.4,5.4,49,0.00,,CLR,0.00,VWS V14.01,2013-01-22 18:57:00,
2013-01-22 13:58:00,40.1,22.5,30.09,NNW,338,2.7,2.7,49,0.00,,CLR,0.00,VWS V14.01,2013-01-22 18:58:00,
2013-01-22 13:59:00,41.1,23.5,30.09,NNW,338,6.3,6.3,49,0.00,,CLR,0.00,VWS V14.01,2013-01-22 18:59:00,
2013-01-22 14:00:00,40.2,22.6,30.09,WNW,292,3.4,3.4,49,0.00,,CLR,0.00,VWS V14.01,2013-01-22 19:00:00,
2013-01-22 14:01:00,40.2,22.6,30.09,WNW,292,3.4,3.4,49,0.00,,CLR,0.00,VWS V14.01,2013-01-22 19:01:00,
2013-01-22 14:02:00,40.6,23.0,30.09,NW,315,10.1,10.1,49,0.00,,CLR,0.00,VWS V14.01,2013-01-22 19:02:00,
2013-01-22 14:03:00,40.6,23.0,30.09,NNW,338,2.5,2.5,49,0.00,,CLR,0.00,VWS V14.01,2013-01-22 19:03:00,
2013-01-22 14:04:00,40.4,22.8,30.09,North,0,5.6,5.6,49,0.00,,CLR,0.00,VWS V14.01,2013-01-22 19:04:00,
2013-01-22 14:05:00,40.2,22.6,30.09,North,0,6.3,6.3,49,0.00,,CLR,0.00,VWS V14.01,2013-01-22 19:05:00,
2013-01-22 14:06:00,40.1,22.5,30.09,NNW,338,8.7,8.7,49,0.00,,CLR,0.00,VWS V14.01,2013-01-22 19:06:00,
2013-01-22 14:07:00,40.1,22.5,30.09,NNW,338,11.0,11.0,49,0.00,,CLR,0.00,VWS V14.01,2013-01-22 19:07:00,
2013-01-22 14:08:00,39.9,22.3,30.09,West,270,4.3,4.3,49,0.00,,CLR,0.00,VWS V14.01,2013-01-22 19:08:00,
2013-01-22 14:09:00,40.1,22.5,30.09,NW,315,1.6,1.6,49,0.00,,CLR,0.00,VWS V14.01,2013-01-22 19:09:00,
2013-01-22 14:10:00,40.1,22.5,30.09,NNE,22,3.1,3.1,49,0.00,,CLR,0.00,VWS V14.01,2013-01-22 19:10:00,
2013-01-22 14:11:00,40.1,22.5,30.09,NNW,338,2.5,2.5,49,0.00,,CLR,0.00,VWS V14.01,2013-01-22 19:11:00,
2013-01-22 14:12:00,40.2,22.6,30.09,NNW,338,3.1,3.1,49,0.00,,CLR,0.00,VWS V14.01,2013-01-22 19:12:00,
2013-01-22 14:13:00,40.1,22.5,30.09,NNE,22,6.0,6.0,49,0.00,,CLR,0.00,VWS V14.01,2013-01-22 19:13:00,
2013-01-22 14:14:00,40.1,22.5,30.09,NNW,338,5.8,5.8,49,0.00,,CLR,0.00,VWS V14.01,2013-01-22 19:14:00,
2013-01-22 14:15:00,39.9,22.3,30.09,NNW,338,3.6,3.6,49,0.00,,CLR,0.00,VWS V14.01,2013-01-22 19:15:00,
2013-01-22 14:16:00,40.1,22.5,30.09,NW,315,4.0,4.0,49,0.00,,CLR,0.00,VWS V14.01,2013-01-22 19:16:00,
2013-01-22 14:17:00,40.1,22.5,30.09,NW,315,4.0,4.0,49,0.00,,CLR,0.00,VWS V14.01,2013-01-22 19:17:00,
2013-01-22 14:18:00,39.7,22.1,30.09,WSW,248,7.4,7.4,49,0.00,,CLR,0.00,VWS V14.01,2013-01-22 19:18:00,
2013-01-22 14:19:00,40.6,23.0,30.09,WSW,248,7.6,7.6,49,0.00,,CLR,0.00,VWS V14.01,2013-01-22 19:19:00,
2013-01-22 14:20:00,41.0,23.3,30.09,NW,315,7.2,7.2,49,0.00,,CLR,0.00,VWS V14.01,2013-01-22 19:20:00,
2013-01-22 14:21:00,40.8,23.1,30.09,North,0,4.0,4.0,49,0.00,,CLR,0.00,VWS V14.01,2013-01-22 19:21:00,
2013-01-22 14:22:00,40.8,23.1,30.09,North,0,4.0,4.0,49,0.00,,CLR,0.00,VWS V14.01,2013-01-22 19:22:00,
2013-01-22 14:23:00,40.8,23.1,30.09,NNE,22,6.3,6.3,49,0.00,,CLR,0.00,VWS V14.01,2013-01-22 19:23:00,
2013-01-22 14:24:00,40.8,23.1,30.09,NW,315,2.9,2.9,49,0.00,,CLR,0.00,VWS V14.01,2013-01-22 19:24:00,
2013-01-22 14:25:00,41.0,23.3,30.09,NNW,338,4.3,4.3,49,0.00,,CLR,0.00,VWS V14.01,2013-01-22 19:25:00,
2013-01-22 14:26:00,41.0,23.3,30.09,North,0,8.5,8.5,49,0.00,,CLR,0.00,VWS V14.01,2013-01-22 19:26:00,
2013-01-22 14:27:00,41.0,23.3,30.09,North,0,8.5,8.5,49,0.00,,CLR,0.00,VWS V14.01,2013-01-22 19:27:00,
2013-01-22 14:28:00,41.0,23.3,30.09,NE,45,4.7,4.7,49,0.00,,CLR,0.00,VWS V14.01,2013-01-22 19:28:00,
2013-01-22 14:29:00,41.0,23.3,30.09,NNE,22,4.7,4.7,49,0.00,,CLR,0.00,VWS V14.01,2013-01-22 19:29:00,
2013-01-22 14:30:00,41.0,23.3,30.09,North,0,5.6,5.6,49,0.00,,CLR,0.00,VWS V14.01,2013-01-22 19:30:00,
2013-01-22 14:31:00,40.8,23.1,30.09,North,0,3.8,3.8,49,0.00,,CLR,0.00,VWS V14.01,2013-01-22 19:31:00,
2013-01-22 14:32:00,40.8,23.1,30.09,North,0,3.8,3.8,49,0.00,,CLR,0.00,VWS V14.01,2013-01-22 19:32:00,
2013-01-22 14:33:00,40.8,23.1,30.09,WNW,292,4.3,4.3,49,0.00,,CLR,0.00,VWS V14.01,2013-01-22 19:33:00,
2013-01-22 14:34:00,40.8,23.1,30.09,North,0,5.8,5.8,49,0.00,,CLR,0.00,VWS V14.01,2013-01-22 19:34:00,
2013-01-22 14:35:00,40.4,22.8,30.09,North,0,4.7,4.7,49,0.00,,CLR,0.00,VWS V14.01,2013-01-22 19:35:00,
2013-01-22 14:36:00,41.1,23.5,30.09,NNW,338,5.8,5.8,49,0.00,,CLR,0.00,VWS V14.01,2013-01-22 19:36:00,
2013-01-22 14:37:00,41.1,23.5,30.09,NNW,338,5.8,5.8,49,0.00,,CLR,0.00,VWS V14.01,2013-01-22 19:37:00,
2013-01-22 14:38:00,40.8,23.1,30.09,NNW,338,8.1,8.1,49,0.00,,CLR,0.00,VWS V14.01,2013-01-22 19:38:00,
2013-01-22 14:39:00,40.8,23.1,30.09,NNW,338,5.4,5.4,49,0.00,,CLR,0.00,VWS V14.01,2013-01-22 19:39:00,
2013-01-22 14:40:00,40.2,22.6,30.09,NNW,338,3.4,3.4,49,0.00,,CLR,0.00,VWS V14.01,2013-01-22 19:40:00,
2013-01-22 14:41:00,40.8,23.1,30.09,North,0,2.7,2.7,49,0.00,,CLR,0.00,VWS V14.01,2013-01-22 19:41:00,
2013-01-22 14:42:00,40.8,23.1,30.09,North,0,2.7,2.7,49,0.00,,CLR,0.00,VWS V14.01,2013-01-22 19:42:00,
2013-01-22 14:43:00,40.8,23.1,30.09,West,270,1.1,1.1,49,0.00,,CLR,0.00,VWS V14.01,2013-01-22 19:43:00,
2013-01-22 14:44:00,40.6,23.0,30.09,WSW,248,4.0,4.0,49,0.00,,CLR,0.00,VWS V14.01,2013-01-22 19:44:00,
2013-01-22 14:45:00,41.0,23.3,30.09,WSW,248,6.3,6.3,49,0.00,,CLR,0.00,VWS V14.01,2013-01-22 19:45:00,
2013-01-22 14:46:00,40.6,23.0,30.09,WSW,248,5.4,5.4,49,0.00,,CLR,0.00,VWS V14.01,2013-01-22 19:46:00,
2013-01-22 14:47:00,40.6,23.0,30.09,WSW,248,5.4,5.4,49,0.00,,CLR,0.00,VWS V14.01,2013-01-22 19:47:00,
2013-01-22 14:48:00,41.1,23.5,30.09,West,270,3.1,3.1,49,0.00,,CLR,0.00,VWS V14.01,2013-01-22 19:48:00,
2013-01-22 14:49:00,41.0,23.3,30.09,WSW,248,4.0,4.0,49,0.00,,CLR,0.00,VWS V14.01,2013-01-22 19:49:00,
2013-01-22 14:50:00,40.8,23.1,30.09,WSW,248,9.4,9.4,49,0.00,,CLR,0.00,VWS V14.01,2013-01-22 19:50:00,
2013-01-22 14:51:00,40.8,23.1,30.09,WSW,248,10.5,10.5,49,0.00,,CLR,0.00,VWS V14.01,2013-01-22 19:51:00,
2013-01-22 14:52:00,40.8,23.1,30.09,WSW,248,10.5,10.5,49,0.00,,CLR,0.00,VWS V14.01,2013-01-22 19:52:00,
2013-01-22 14:53:00,41.3,23.6,30.09,WNW,292,8.7,8.7,49,0.00,,CLR,0.00,VWS V14.01,2013-01-22 19:53:00,
2013-01-22 14:54:00,41.3,23.6,30.09,West,270,6.5,6.5,49,0.00,,CLR,0.00,VWS V14.01,2013-01-22 19:54:00,
2013-01-22 14:55:00,40.8,23.1,30.09,West,270,10.7,10.7,49,0.00,,CLR,0.00,VWS V14.01,2013-01-22 19:55:00,
2013-01-22 14:56:00,40.6,23.0,30.09,WNW,292,10.1,10.1,49,0.00,,CLR,0.00,VWS V14.01,2013-01-22 19:56:00,
2013-01-22 14:57:00,40.6,23.0,30.09,WNW,292,10.1,10.1,49,0.00,,CLR,0.00,VWS V14.01,2013-01-22 19:57:00,
2013-01-22 14:58:00,41.5,23.8,30.09,SSW,202,3.4,3.4,49,0.00,,CLR,0.00,VWS V14.01,2013-01-22 19:58:00,
2013-01-22 14:59:00,41.5,23.8,30.09,North,0,2.5,2.5,49,0.00,,CLR,0.00,VWS V14.01,2013-01-22 19:59:00,
2013-01-22 15:00:00,41.7,24.0,30.09,North,0,7.8,7.8,49,0.00,,CLR,0.00,VWS V14.01,2013-01-22 20:00:00,
2013-01-22 15:01:00,41.3,23.6,30.09,WNW,292,8.1,8.1,49,0.00,,CLR,0.00,VWS V14.01,2013-01-22 20:01:00,
2013-01-22 15:02:00,41.3,23.6,30.09,NW,315,6.7,6.7,49,0.00,,CLR,0.00,VWS V14.01,2013-01-22 20:02:00,
2013-01-22 15:03:00,40.8,23.1,30.09,NNW,338,5.8,5.8,49,0.00,,CLR,0.00,VWS V14.01,2013-01-22 20:03:00,
2013-01-22 15:04:00,41.1,23.5,30.09,WSW,248,4.7,4.7,49,0.00,,CLR,0.00,VWS V14.01,2013-01-22 20:04:00,
2013-01-22 15:05:00,40.6,23.0,30.09,WSW,248,7.4,7.4,49,0.00,,CLR,0.00,VWS V14.01,2013-01-22 20:05:00,
2013-01-22 15:06:00,41.9,24.1,30.09,West,270,6.3,6.3,49,0.00,,CLR,0.00,VWS V14.01,2013-01-22 20:06:00,
2013-01-22 15:07:00,41.9,24.1,30.09,West,270,8.7,8.7,49,0.00,,CLR,0.00,VWS V14.01,2013-01-22 20:07:00,
2013-01-22 15:08:00,41.3,23.6,30.09,WNW,292,2.9,2.9,49,0.00,,CLR,0.00,VWS V14.01,2013-01-22 20:08:00,
2013-01-22 15:09:00,41.5,23.8,30.09,West,270,3.4,3.4,49,0.00,,CLR,0.00,VWS V14.01,2013-01-22 20:09:00,
2013-01-22 15:10:00,41.5,23.8,30.09,NNW,338,6.0,6.0,49,0.00,,CLR,0.00,VWS V14.01,2013-01-22 20:10:00,
2013-01-22 15:11:00,41.9,24.1,30.09,West,270,7.6,7.6,49,0.00,,CLR,0.00,VWS V14.01,2013-01-22 20:11:00,
2013-01-22 15:12:00,41.5,23.8,30.09,NW,315,5.6,5.6,49,0.00,,CLR,0.00,VWS V14.01,2013-01-22 20:12:00,
2013-01-22 15:13:00,41.9,24.1,30.09,West,270,10.3,10.3,49,0.00,,CLR,0.00,VWS V14.01,2013-01-22 20:13:00,
2013-01-22 15:14:00,41.1,23.5,30.09,WSW,248,7.4,7.4,49,0.00,,CLR,0.00,VWS V14.01,2013-01-22 20:14:00,
2013-01-22 15:15:00,41.7,24.0,30.09,West,270,6.5,6.5,49,0.00,,CLR,0.00,VWS V14.01,2013-01-22 20:15:00,
2013-01-22 15:16:00,41.3,23.6,30.09,WNW,292,9.2,9.2,49,0.00,,CLR,0.00,VWS V14.01,2013-01-22 20:16:00,
2013-01-22 15:17:00,42.0,24.3,30.09,West,270,5.4,5.4,49,0.00,,CLR,0.00,VWS V14.01,2013-01-22 20:17:00,
2013-01-22 15:18:00,42.0,24.3,30.09,WNW,292,6.3,6.3,49,0.00,,CLR,0.00,VWS V14.01,2013-01-22 20:18:00,
2013-01-22 15:19:00,42.2,24.4,30.09,WNW,292,6.5,6.5,49,0.00,,CLR,0.00,VWS V14.01,2013-01-22 20:19:00,
2013-01-22 15:20:00,42.4,24.1,30.09,WNW,292,3.4,3.4,48,0.00,,CLR,0.00,VWS V14.01,2013-01-22 20:20:00,
2013-01-22 15:21:00,42.4,24.1,30.09,NW,315,6.0,6.0,48,0.00,,CLR,0.00,VWS V14.01,2013-01-22 20:21:00,
2013-01-22 15:22:00,42.4,24.1,30.09,NW,315,5.4,5.4,48,0.00,,CLR,0.00,VWS V14.01,2013-01-22 20:22:00,
2013-01-22 15:23:00,42.4,24.1,30.09,WNW,292,3.8,3.8,48,0.00,,CLR,0.00,VWS V14.01,2013-01-22 20:23:00,
2013-01-22 15:24:00,42.2,24.4,30.09,WNW,292,5.4,5.4,49,0.00,,CLR,0.00,VWS V14.01,2013-01-22 20:24:00,
2013-01-22 15:25:00,42.2,24.4,30.09,NNW,338,4.9,4.9,49,0.00,,CLR,0.00,VWS V14.01,2013-01-22 20:25:00,
2013-01-22 15:26:00,42.8,24.5,30.09,WSW,248,5.8,5.8,48,0.00,,CLR,0.00,VWS V14.01,2013-01-22 20:26:00,
2013-01-22 15:27:00,42.8,24.5,30.09,West,270,5.4,5.4,48,0.00,,CLR,0.00,VWS V14.01,2013-01-22 20:27:00,
2013-01-22 15:28:00,42.9,24.6,30.09,WNW,292,8.7,8.7,48,0.00,,CLR,0.00,VWS V14.01,2013-01-22 20:28:00,
2013-01-22 15:29:00,42.8,24.5,30.09,West,270,6.0,6.0,48,0.00,,CLR,0.00,VWS V14.01,2013-01-22 20:29:00,
2013-01-22 15:30:00,42.6,24.3,30.09,West,270,14.3,14.3,48,0.00,,CLR,0.00,VWS V14.01,2013-01-22 20:30:00,
2013-01-22 15:31:00,41.7,24.0,30.09,WSW,248,10.5,10.5,49,0.00,,CLR,0.00,VWS V14.01,2013-01-22 20:31:00,
2013-01-22 15:32:00,41.9,24.1,30.09,WSW,248,8.5,8.5,49,0.00,,CLR,0.00,VWS V14.01,2013-01-22 20:32:00,
2013-01-22 15:33:00,41.9,24.1,30.09,West,270,6.3,6.3,49,0.00,,CLR,0.00,VWS V14.01,2013-01-22 20:33:00,
2013-01-22 15:34:00,42.2,24.4,30.09,West,270,9.6,9.6,49,0.00,,CLR,0.00,VWS V14.01,2013-01-22 20:34:00,
2013-01-22 15:35:00,42.9,24.6,30.09,West,270,4.0,4.0,48,0.00,,CLR,0.00,VWS V14.01,2013-01-22 20:35:00,
2013-01-22 15:36:00,42.6,24.3,30.09,WNW,292,7.4,7.4,48,0.00,,CLR,0.00,VWS V14.01,2013-01-22 20:36:00,
2013-01-22 15:37:00,42.8,24.5,30.09,West,270,6.3,6.3,48,0.00,,CLR,0.00,VWS V14.01,2013-01-22 20:37:00,
2013-01-22 15:38:00,42.8,24.5,30.09,WNW,292,3.4,3.4,48,0.00,,CLR,0.00,VWS V14.01,2013-01-22 20:38:00,
2013-01-22 15:39:00,42.9,24.6,30.09,NNW,338,3.4,3.4,48,0.00,,CLR,0.00,VWS V14.01,2013-01-22 20:39:00,
2013-01-22 15:40:00,42.9,24.6,30.09,NW,315,2.7,2.7,48,0.00,,CLR,0.00,VWS V14.01,2013-01-22 20:40:00,
2013-01-22 15:41:00,42.6,24.3,30.09,West,270,2.9,2.9,48,0.00,,CLR,0.00,VWS V14.01,2013-01-22 20:41:00,
2013-01-22 15:42:00,42.4,24.1,30.09,West,270,5.8,5.8,48,0.00,,CLR,0.00,VWS V14.01,2013-01-22 20:42:00,
2013-01-22 15:43:00,42.8,24.5,30.09,West,270,7.4,7.4,48,0.00,,CLR,0.00,VWS V14.01,2013-01-22 20:43:00,
2013-01-22 15:44:00,42.8,24.5,30.09,WNW,292,3.8,3.8,48,0.00,,CLR,0.00,VWS V14.01,2013-01-22 20:44:00,
2013-01-22 15:45:00,42.4,24.1,30.09,WSW,248,4.0,4.0,48,0.00,,CLR,0.00,VWS V14.01,2013-01-22 20:45:00,
2013-01-22 15:48:00,42.8,24.5,30.09,NNW,338,3.1,3.1,48,0.00,,CLR,0.00,VWS V14.01,2013-01-22 20:48:00,
2013-01-22 15:49:00,42.4,24.1,30.09,WNW,292,10.3,10.3,48,0.00,,CLR,0.00,VWS V14.01,2013-01-22 20:49:00,
2013-01-22 15:50:00,42.4,24.1,30.09,WNW,292,10.7,10.7,48,0.00,,CLR,0.00,VWS V14.01,2013-01-22 20:50:00,
2013-01-22 15:53:00,42.0,24.3,30.09,West,270,10.7,10.7,49,0.00,,CLR,0.00,VWS V14.01,2013-01-22 20:53:00,
2013-01-22 15:54:00,42.2,24.4,30.09,West,270,12.1,12.1,49,0.00,,CLR,0.00,VWS V14.01,2013-01-22 20:54:00,
2013-01-22 15:55:00,41.5,23.8,30.09,WSW,248,9.2,9.2,49,0.00,,CLR,0.00,VWS V14.01,2013-01-22 20:55:00,
2013-01-22 15:56:00,41.5,23.8,30.09,West,270,8.1,8.1,49,0.00,,CLR,0.00,VWS V14.01,2013-01-22 20:56:00,
2013-01-22 15:57:00,41.5,23.8,30.09,WSW,248,5.6,5.6,49,0.00,,CLR,0.00,VWS V14.01,2013-01-22 20:57:00,
2013-01-22 15:58:00,41.5,23.8,30.09,WSW,248,5.6,5.6,49,0.00,,CLR,0.00,VWS V14.01,2013-01-22 20:58:00,
2013-01-22 15:59:00,42.2,24.4,30.09,West,270,7.6,7.6,49,0.00,,CLR,0.00,VWS V14.01,2013-01-22 20:59:00,
2013-01-22 16:00:00,41.5,23.8,30.09,West,270,9.6,9.6,49,0.00,,CLR,0.00,VWS V14.01,2013-01-22 21:00:00,
2013-01-22 16:01:00,41.7,24.0,30.09,West,270,10.1,10.1,49,0.00,,CLR,0.00,VWS V14.01,2013-01-22 21:01:00,
2013-01-22 16:02:00,41.3,23.6,30.09,West,270,6.0,6.0,49,0.00,,CLR,0.00,VWS V14.01,2013-01-22 21:02:00,
2013-01-22 16:03:00,41.3,23.6,30.09,West,270,6.0,6.0,49,0.00,,CLR,0.00,VWS V14.01,2013-01-22 21:03:00,
2013-01-22 16:04:00,41.3,23.6,30.09,West,270,9.8,9.8,49,0.00,,CLR,0.00,VWS V14.01,2013-01-22 21:04:00,
2013-01-22 16:05:00,41.7,24.0,30.09,NW,315,4.3,4.3,49,0.00,,CLR,0.00,VWS V14.01,2013-01-22 21:05:00,
2013-01-22 16:06:00,41.9,24.1,30.09,NW,315,6.0,6.0,49,0.00,,CLR,0.00,VWS V14.01,2013-01-22 21:06:00,
2013-01-22 16:07:00,41.9,24.1,30.09,West,270,7.8,7.8,49,0.00,,CLR,0.00,VWS V14.01,2013-01-22 21:07:00,
2013-01-22 16:08:00,41.9,24.1,30.09,West,270,7.8,7.8,49,0.00,,CLR,0.00,VWS V14.01,2013-01-22 21:08:00,
2013-01-22 16:09:00,42.0,24.3,30.09,West,270,4.9,4.9,49,0.00,,CLR,0.00,VWS V14.01,2013-01-22 21:09:00,
2013-01-22 16:10:00,42.0,24.3,30.09,NNW,338,4.0,4.0,49,0.00,,CLR,0.00,VWS V14.01,2013-01-22 21:10:00,
2013-01-22 16:11:00,42.0,24.3,30.09,WSW,248,5.8,5.8,49,0.00,,CLR,0.00,VWS V14.01,2013-01-22 21:11:00,
2013-01-22 16:12:00,41.7,24.0,30.09,West,270,7.8,7.8,49,0.00,,CLR,0.00,VWS V14.01,2013-01-22 21:12:00,
2013-01-22 16:13:00,41.7,24.0,30.09,West,270,7.8,7.8,49,0.00,,CLR,0.00,VWS V14.01,2013-01-22 21:13:00,
2013-01-22 16:14:00,42.2,24.4,30.09,NNW,338,2.7,2.7,49,0.00,,CLR,0.00,VWS V14.01,2013-01-22 21:14:00,
2013-01-22 16:15:00,42.0,24.3,30.09,WNW,292,6.3,6.3,49,0.00,,CLR,0.00,VWS V14.01,2013-01-22 21:15:00,
2013-01-22 16:16:00,42.2,24.4,30.09,NW,315,5.4,5.4,49,0.00,,CLR,0.00,VWS V14.01,2013-01-22 21:16:00,
2013-01-22 16:17:00,42.0,24.3,30.09,NW,315,4.9,4.9,49,0.00,,CLR,0.00,VWS V14.01,2013-01-22 21:17:00,
2013-01-22 16:18:00,42.0,24.3,30.09,NW,315,4.9,4.9,49,0.00,,CLR,0.00,VWS V14.01,2013-01-22 21:18:00,
2013-01-22 16:19:00,41.5,23.8,30.09,West,270,6.5,6.5,49,0.00,,CLR,0.00,VWS V14.01,2013-01-22 21:19:00,
2013-01-22 16:20:00,41.9,24.1,30.09,NNW,338,4.9,4.9,49,0.00,,CLR,0.00,VWS V14.01,2013-01-22 21:20:00,
2013-01-22 16:21:00,41.9,24.1,30.09,WNW,292,3.6,3.6,49,0.00,,CLR,0.00,VWS V14.01,2013-01-22 21:21:00,
2013-01-22 16:22:00,42.0,24.3,30.09,West,270,5.6,5.6,49,0.00,,CLR,0.00,VWS V14.01,2013-01-22 21:22:00,
2013-01-22 16:23:00,42.0,24.3,30.09,West,270,5.6,5.6,49,0.00,,CLR,0.00,VWS V14.01,2013-01-22 21:23:00,
2013-01-22 16:24:00,42.0,24.3,30.09,WNW,292,8.5,8.5,49,0.00,,CLR,0.00,VWS V14.01,2013-01-22 21:24:00,
2013-01-22 16:25:00,41.1,23.5,30.09,West,270,10.1,10.1,49,0.00,,CLR,0.00,VWS V14.01,2013-01-22 21:25:00,
2013-01-22 16:26:00,41.0,23.3,30.09,WNW,292,10.1,10.1,49,0.00,,CLR,0.00,VWS V14.01,2013-01-22 21:26:00,
2013-01-22 16:27:00,41.3,23.6,30.09,WNW,292,3.6,3.6,49,0.00,,CLR,0.00,VWS V14.01,2013-01-22 21:27:00,
2013-01-22 16:28:00,41.3,23.6,30.09,WNW,292,3.6,3.6,49,0.00,,CLR,0.00,VWS V14.01,2013-01-22 21:28:00,
2013-01-22 16:29:00,41.7,24.0,30.09,WSW,248,5.8,5.8,49,0.00,,CLR,0.00,VWS V14.01,2013-01-22 21:29:00,
2013-01-22 16:30:00,41.1,23.5,30.09,WNW,292,3.4,3.4,49,0.00,,CLR,0.00,VWS V14.01,2013-01-22 21:30:00,
2013-01-22 16:31:00,41.1,23.5,30.09,WNW,292,3.4,3.4,49,0.00,,CLR,0.00,VWS V14.01,2013-01-22 21:31:00,
2013-01-22 16:32:00,41.3,23.6,30.09,WNW,292,1.6,1.6,49,0.00,,CLR,0.00,VWS V14.01,2013-01-22 21:32:00,
2013-01-22 16:33:00,41.5,23.8,30.09,WNW,292,4.0,4.0,49,0.00,,CLR,0.00,VWS V14.01,2013-01-22 21:33:00,
2013-01-22 16:34:00,41.5,23.8,30.09,West,270,4.3,4.3,49,0.00,,CLR,0.00,VWS V14.01,2013-01-22 21:34:00,
2013-01-22 16:35:00,41.5,23.8,30.09,West,270,4.3,4.3,49,0.00,,CLR,0.00,VWS V14.01,2013-01-22 21:35:00,
2013-01-22 16:36:00,41.5,23.8,30.09,West,270,4.3,4.3,49,0.00,,CLR,0.00,VWS V14.01,2013-01-22 21:36:00,
2013-01-22 16:37:00,41.1,23.5,30.09,West,270,6.0,6.0,49,0.00,,CLR,0.00,VWS V14.01,2013-01-22 21:37:00,
2013-01-22 16:38:00,41.1,23.5,30.09,West,270,4.3,4.3,49,0.00,,CLR,0.00,VWS V14.01,2013-01-22 21:38:00,
2013-01-22 16:39:00,41.0,23.3,30.09,WNW,292,8.7,8.7,49,0.00,,CLR,0.00,VWS V14.01,2013-01-22 21:39:00,
2013-01-22 16:40:00,40.6,23.0,30.09,WNW,292,6.5,6.5,49,0.00,,CLR,0.00,VWS V14.01,2013-01-22 21:40:00,
2013-01-22 16:41:00,40.6,23.0,30.09,WNW,292,6.5,6.5,49,0.00,,CLR,0.00,VWS V14.01,2013-01-22 21:41:00,
2013-01-22 16:42:00,40.4,22.8,30.09,WNW,292,8.1,8.1,49,0.00,,CLR,0.00,VWS V14.01,2013-01-22 21:42:00,
2013-01-22 16:43:00,40.2,22.6,30.09,West,270,9.2,9.2,49,0.00,,CLR,0.00,VWS V14.01,2013-01-22 21:43:00,
2013-01-22 16:44:00,40.4,22.8,30.09,WSW,248,4.0,4.0,49,0.00,,CLR,0.00,VWS V14.01,2013-01-22 21:44:00,
2013-01-22 16:45:00,40.4,22.8,30.09,West,270,7.6,7.6,49,0.00,,CLR,0.00,VWS V14.01,2013-01-22 21:45:00,
2013-01-22 16:46:00,40.4,22.8,30.09,WNW,292,5.6,5.6,49,0.00,,CLR,0.00,VWS V14.01,2013-01-22 21:46:00,
2013-01-22 16:47:00,40.2,22.6,30.09,WSW,248,7.2,7.2,49,0.00,,CLR,0.00,VWS V14.01,2013-01-22 21:47:00,
2013-01-22 16:48:00,40.2,22.6,30.09,WNW,292,4.9,4.9,49,0.00,,CLR,0.00,VWS V14.01,2013-01-22 21:48:00,
2013-01-22 16:49:00,40.4,22.8,30.09,West,270,8.7,8.7,49,0.00,,CLR,0.00,VWS V14.01,2013-01-22 21:49:00,
2013-01-22 16:50:00,40.4,22.8,30.06,WSW,248,5.4,5.4,49,0.00,,CLR,0.00,VWS V14.01,2013-01-22 21:50:00,
2013-01-22 16:51:00,40.4,22.8,30.06,WSW,248,6.0,6.0,49,0.00,,CLR,0.00,VWS V14.01,2013-01-22 21:51:00,
2013-01-22 16:52:00,40.2,22.6,30.06,WSW,248,6.3,6.3,49,0.00,,CLR,0.00,VWS V14.01,2013-01-22 21:52:00,
2013-01-22 16:53:00,40.1,22.5,30.06,NNW,338,4.3,4.3,49,0.00,,CLR,0.00,VWS V14.01,2013-01-22 21:53:00,
2013-01-22 16:54:00,40.4,22.8,30.06,West,270,4.0,4.0,49,0.00,,CLR,0.00,VWS V14.01,2013-01-22 21:54:00,
2013-01-22 16:55:00,40.2,22.6,30.06,NNW,338,5.4,5.4,49,0.00,,CLR,0.00,VWS V14.01,2013-01-22 21:55:00,
2013-01-22 16:56:00,40.2,22.6,30.06,NNW,338,5.4,5.4,49,0.00,,CLR,0.00,VWS V14.01,2013-01-22 21:56:00,
2013-01-22 16:57:00,40.1,22.5,30.06,WNW,292,2.9,2.9,49,0.00,,CLR,0.00,VWS V14.01,2013-01-22 21:57:00,
2013-01-22 16:58:00,40.1,22.5,30.06,West,270,1.6,1.6,49,0.00,,CLR,0.00,VWS V14.01,2013-01-22 21:58:00,
2013-01-22 16:59:00,39.9,22.3,30.06,WNW,292,5.8,5.8,49,0.00,,CLR,0.00,VWS V14.01,2013-01-22 21:59:00,
2013-01-22 17:00:00,39.9,22.3,30.06,WSW,248,6.5,6.5,49,0.00,,CLR,0.00,VWS V14.01,2013-01-22 22:00:00,
2013-01-22 17:01:00,39.7,22.1,30.06,West,270,5.8,5.8,49,0.00,,CLR,0.00,VWS V14.01,2013-01-22 22:01:00,
2013-01-22 17:02:00,39.9,22.3,30.06,West,270,6.0,6.0,49,0.00,,CLR,0.00,VWS V14.01,2013-01-22 22:02:00,
2013-01-22 17:03:00,39.7,22.1,30.06,West,270,5.4,5.4,49,0.00,,CLR,0.00,VWS V14.01,2013-01-22 22:03:00,
2013-01-22 17:04:00,39.5,22.0,30.06,West,270,5.6,5.6,49,0.00,,CLR,0.00,VWS V14.01,2013-01-22 22:04:00,
2013-01-22 17:05:00,39.5,22.0,30.09,West,270,6.3,6.3,49,0.00,,CLR,0.00,VWS V14.01,2013-01-22 22:05:00,
2013-01-22 17:06:00,39.5,22.0,30.09,WSW,248,5.8,5.8,49,0.00,,CLR,0.00,VWS V14.01,2013-01-22 22:06:00,
2013-01-22 17:07:00,39.5,22.0,30.09,WNW,292,4.0,4.0,49,0.00,,CLR,0.00,VWS V14.01,2013-01-22 22:07:00,
2013-01-22 17:08:00,39.3,21.8,30.09,West,270,4.7,4.7,49,0.00,,CLR,0.00,VWS V14.01,2013-01-22 22:08:00,
2013-01-22 17:09:00,39.0,21.5,30.09,WNW,292,6.0,6.0,49,0.00,,CLR,0.00,VWS V14.01,2013-01-22 22:09:00,
2013-01-22 17:10:00,39.2,21.6,30.09,West,270,6.0,6.0,49,0.00,,CLR,0.00,VWS V14.01,2013-01-22 22:10:00,
2013-01-22 17:11:00,39.2,21.6,30.09,West,270,5.6,5.6,49,0.00,,CLR,0.00,VWS V14.01,2013-01-22 22:11:00,
2013-01-22 17:12:00,39.2,21.6,30.09,WNW,292,5.8,5.8,49,0.00,,CLR,0.00,VWS V14.01,2013-01-22 22:12:00,
2013-01-22 17:13:00,39.0,21.5,30.09,West,270,5.4,5.4,49,0.00,,CLR,0.00,VWS V14.01,2013-01-22 22:13:00,
2013-01-22 17:14:00,39.0,21.5,30.09,West,270,2.7,2.7,49,0.00,,CLR,0.00,VWS V14.01,2013-01-22 22:14:00,
2013-01-22 17:15:00,38.8,21.3,30.09,WSW,248,6.0,6.0,49,0.00,,CLR,0.00,VWS V14.01,2013-01-22 22:15:00,
2013-01-22 17:16:00,38.8,21.3,30.09,West,270,4.5,4.5,49,0.00,,CLR,0.00,VWS V14.01,2013-01-22 22:16:00,
2013-01-22 17:17:00,38.8,21.3,30.09,West,270,5.8,5.8,49,0.00,,CLR,0.00,VWS V14.01,2013-01-22 22:17:00,
2013-01-22 17:18:00,38.8,21.3,30.09,WNW,292,3.8,3.8,49,0.00,,CLR,0.00,VWS V14.01,2013-01-22 22:18:00,
2013-01-22 17:19:00,38.8,21.3,30.09,WNW,292,5.8,5.8,49,0.00,,CLR,0.00,VWS V14.01,2013-01-22 22:19:00,
2013-01-22 17:20:00,38.8,21.3,30.09,WNW,292,4.3,4.3,49,0.00,,CLR,0.00,VWS V14.01,2013-01-22 22:20:00,
2013-01-22 17:21:00,38.4,21.4,30.09,WNW,292,2.7,2.7,50,0.00,,CLR,0.00,VWS V14.01,2013-01-22 22:21:00,
2013-01-22 17:22:00,38.8,21.3,30.09,West,270,3.1,3.1,49,0.00,,CLR,0.00,VWS V14.01,2013-01-22 22:22:00,
2013-01-22 17:23:00,38.4,21.4,30.09,West,270,2.5,2.5,50,0.00,,CLR,0.00,VWS V14.01,2013-01-22 22:23:00,
2013-01-22 17:24:00,38.3,21.3,30.09,West,270,3.8,3.8,50,0.00,,CLR,0.00,VWS V14.01,2013-01-22 22:24:00,
2013-01-22 17:25:00,38.1,21.1,30.09,WNW,292,2.9,2.9,50,0.00,,CLR,0.00,VWS V14.01,2013-01-22 22:25:00,
2013-01-22 17:26:00,38.1,21.1,30.09,WNW,292,1.1,1.1,50,0.00,,CLR,0.00,VWS V14.01,2013-01-22 22:26:00,
2013-01-22 17:27:00,38.1,21.1,30.09,West,270,2.0,2.0,50,0.00,,CLR,0.00,VWS V14.01,2013-01-22 22:27:00,
2013-01-22 17:28:00,37.7,20.8,30.09,West,270,3.4,3.4,50,0.00,,CLR,0.00,VWS V14.01,2013-01-22 22:28:00,
2013-01-22 17:29:00,37.7,20.8,30.09,West,270,2.7,2.7,50,0.00,,CLR,0.00,VWS V14.01,2013-01-22 22:29:00,
2013-01-22 17:30:00,37.7,20.8,30.09,West,270,2.0,2.0,50,0.00,,CLR,0.00,VWS V14.01,2013-01-22 22:30:00,
2013-01-22 17:31:00,37.7,20.8,30.09,WSW,248,3.1,3.1,50,0.00,,CLR,0.00,VWS V14.01,2013-01-22 22:31:00,
2013-01-22 17:32:00,37.7,20.8,30.09,WSW,248,2.5,2.5,50,0.00,,CLR,0.00,VWS V14.01,2013-01-22 22:32:00,
2013-01-22 17:33:00,36.8,19.9,30.09,WSW,248,4.3,4.3,50,0.00,,CLR,0.00,VWS V14.01,2013-01-22 22:33:00,
2013-01-22 17:34:00,36.8,19.9,30.09,West,270,2.7,2.7,50,0.00,,CLR,0.00,VWS V14.01,2013-01-22 22:34:00,
2013-01-22 17:35:00,37.0,20.1,30.06,West,270,2.2,2.2,50,0.00,,CLR,0.00,VWS V14.01,2013-01-22 22:35:00,
2013-01-22 17:36:00,36.6,19.8,30.06,WNW,292,1.6,1.6,50,0.00,,CLR,0.00,VWS V14.01,2013-01-22 22:36:00,
2013-01-22 17:37:00,37.0,20.1,30.06,West,270,1.6,1.6,50,0.00,,CLR,0.00,VWS V14.01,2013-01-22 22:37:00,
2013-01-22 17:38:00,36.5,19.6,30.06,West,270,1.1,1.1,50,0.00,,CLR,0.00,VWS V14.01,2013-01-22 22:38:00,
2013-01-22 17:39:00,36.3,19.4,30.06,West,270,2.5,2.5,50,0.00,,CLR,0.00,VWS V14.01,2013-01-22 22:39:00,
2013-01-22 17:40:00,36.5,19.6,30.06,West,270,1.6,1.6,50,0.00,,CLR,0.00,VWS V14.01,2013-01-22 22:40:00,
2013-01-22 17:41:00,36.5,19.6,30.06,WSW,248,0.0,0.0,50,0.00,,CLR,0.00,VWS V14.01,2013-01-22 22:41:00,
2013-01-22 17:42:00,36.5,19.6,30.06,West,270,1.1,1.1,50,0.00,,CLR,0.00,VWS V14.01,2013-01-22 22:42:00,
2013-01-22 17:43:00,36.3,19.4,30.06,WSW,248,0.0,0.0,50,0.00,,CLR,0.00,VWS V14.01,2013-01-22 22:43:00,
2013-01-22 17:44:00,36.1,19.3,30.06,WSW,248,0.0,0.0,50,0.00,,CLR,0.00,VWS V14.01,2013-01-22 22:44:00,
2013-01-22 17:45:00,36.1,19.3,30.06,WSW,248,0.0,0.0,50,0.00,,CLR,0.00,VWS V14.01,2013-01-22 22:45:00,
2013-01-22 17:46:00,35.9,19.1,30.06,WSW,248,0.0,0.0,50,0.00,,CLR,0.00,VWS V14.01,2013-01-22 22:46:00,
2013-01-22 17:47:00,35.9,19.1,30.06,WSW,248,0.0,0.0,50,0.00,,CLR,0.00,VWS V14.01,2013-01-22 22:47:00,
2013-01-22 17:48:00,35.9,19.1,30.06,West,270,0.0,0.0,50,0.00,,CLR,0.00,VWS V14.01,2013-01-22 22:48:00,
2013-01-22 17:49:00,35.9,19.1,30.06,West,270,0.0,0.0,50,0.00,,CLR,0.00,VWS V14.01,2013-01-22 22:49:00,
2013-01-22 17:50:00,35.9,19.1,30.09,West,270,0.0,0.0,50,0.00,,CLR,0.00,VWS V14.01,2013-01-22 22:50:00,
2013-01-22 17:51:00,35.7,18.9,30.09,West,270,0.0,0.0,50,0.00,,CLR,0.00,VWS V14.01,2013-01-22 22:51:00,
2013-01-22 17:52:00,35.7,18.9,30.09,West,270,0.0,0.0,50,0.00,,CLR,0.00,VWS V14.01,2013-01-22 22:52:00,
2013-01-22 17:53:00,35.7,18.9,30.09,West,270,0.0,0.0,50,0.00,,CLR,0.00,VWS V14.01,2013-01-22 22:53:00,
2013-01-22 17:54:00,35.6,18.8,30.09,West,270,0.0,0.0,50,0.00,,CLR,0.00,VWS V14.01,2013-01-22 22:54:00,
2013-01-22 17:55:00,35.4,18.6,30.09,West,270,0.0,0.0,50,0.00,,CLR,0.00,VWS V14.01,2013-01-22 22:55:00,
2013-01-22 17:56:00,35.4,18.6,30.09,West,270,0.0,0.0,50,0.00,,CLR,0.00,VWS V14.01,2013-01-22 22:56:00,
2013-01-22 17:57:00,35.4,18.6,30.09,West,270,0.0,0.0,50,0.00,,CLR,0.00,VWS V14.01,2013-01-22 22:57:00,
2013-01-22 17:58:00,35.2,18.4,30.09,West,270,0.0,0.0,50,0.00,,CLR,0.00,VWS V14.01,2013-01-22 22:58:00,
2013-01-22 17:59:00,34.8,18.1,30.09,West,270,0.0,0.0,50,0.00,,CLR,0.00,VWS V14.01,2013-01-22 22:59:00,
2013-01-22 18:00:00,34.8,18.1,30.09,West,270,0.0,0.0,50,0.00,,CLR,0.00,VWS V14.01,2013-01-22 23:00:00,
2013-01-22 18:01:00,34.8,18.1,30.09,West,270,0.0,0.0,50,0.00,,CLR,0.00,VWS V14.01,2013-01-22 23:01:00,
2013-01-22 18:02:00,34.8,18.1,30.09,West,270,0.0,0.0,50,0.00,,CLR,0.00,VWS V14.01,2013-01-22 23:02:00,
2013-01-22 18:03:00,34.7,17.9,30.09,NNW,338,0.0,0.0,50,0.00,,CLR,0.00,VWS V14.01,2013-01-22 23:03:00,
2013-01-22 18:04:00,34.7,17.9,30.09,NNW,338,0.0,0.0,50,0.00,,CLR,0.00,VWS V14.01,2013-01-22 23:04:00,
2013-01-22 18:05:00,34.5,17.8,30.09,NNW,338,0.0,0.0,50,0.00,,CLR,0.00,VWS V14.01,2013-01-22 23:05:00,
2013-01-22 18:06:00,34.5,17.8,30.09,NNW,338,0.0,0.0,50,0.00,,CLR,0.00,VWS V14.01,2013-01-22 23:06:00,
2013-01-22 18:07:00,34.5,17.8,30.09,NNW,338,0.0,0.0,50,0.00,,CLR,0.00,VWS V14.01,2013-01-22 23:07:00,
2013-01-22 18:08:00,34.5,17.8,30.09,NNW,338,0.0,0.0,50,0.00,,CLR,0.00,VWS V14.01,2013-01-22 23:08:00,
2013-01-22 18:09:00,34.3,17.6,30.09,NNW,338,0.0,0.0,50,0.00,,CLR,0.00,VWS V14.01,2013-01-22 23:09:00,
2013-01-22 18:10:00,34.3,17.6,30.09,NNW,338,0.0,0.0,50,0.00,,CLR,0.00,VWS V14.01,2013-01-22 23:10:00,
2013-01-22 18:11:00,34.3,17.6,30.09,NNW,338,0.0,0.0,50,0.00,,CLR,0.00,VWS V14.01,2013-01-22 23:11:00,
2013-01-22 18:12:00,34.3,17.6,30.09,NNW,338,0.0,0.0,50,0.00,,CLR,0.00,VWS V14.01,2013-01-22 23:12:00,
2013-01-22 18:13:00,34.3,17.6,30.09,NNW,338,0.0,0.0,50,0.00,,CLR,0.00,VWS V14.01,2013-01-22 23:13:00,
2013-01-22 18:14:00,33.9,17.3,30.09,NNW,338,0.0,0.0,50,0.00,,CLR,0.00,VWS V14.01,2013-01-22 23:14:00,
2013-01-22 18:15:00,33.9,17.3,30.09,NNW,338,0.0,0.0,50,0.00,,CLR,0.00,VWS V14.01,2013-01-22 23:15:00,
2013-01-22 18:16:00,33.8,17.1,30.09,NNW,338,0.0,0.0,50,0.00,,CLR,0.00,VWS V14.01,2013-01-22 23:16:00,
2013-01-22 18:17:00,33.8,17.1,30.09,NNW,338,0.0,0.0,50,0.00,,CLR,0.00,VWS V14.01,2013-01-22 23:17:00,
2013-01-22 18:18:00,33.8,17.1,30.09,NNW,338,0.0,0.0,50,0.00,,CLR,0.00,VWS V14.01,2013-01-22 23:18:00,
2013-01-22 18:19:00,33.6,16.9,30.09,NNW,338,0.0,0.0,50,0.00,,CLR,0.00,VWS V14.01,2013-01-22 23:19:00,
2013-01-22 18:20:00,33.6,16.9,30.09,NNW,338,0.0,0.0,50,0.00,,CLR,0.00,VWS V14.01,2013-01-22 23:20:00,
2013-01-22 18:21:00,33.4,16.8,30.09,NNW,338,0.0,0.0,50,0.00,,CLR,0.00,VWS V14.01,2013-01-22 23:21:00,
2013-01-22 18:22:00,33.4,16.8,30.09,NNW,338,0.0,0.0,50,0.00,,CLR,0.00,VWS V14.01,2013-01-22 23:22:00,
2013-01-22 18:23:00,33.4,16.8,30.09,NNW,338,0.0,0.0,50,0.00,,CLR,0.00,VWS V14.01,2013-01-22 23:23:00,
2013-01-22 18:24:00,33.2,17.1,30.09,NNW,338,0.0,0.0,51,0.00,,CLR,0.00,VWS V14.01,2013-01-22 23:24:00,
2013-01-22 18:25:00,33.2,17.1,30.09,NNW,338,0.0,0.0,51,0.00,,CLR,0.00,VWS V14.01,2013-01-22 23:25:00,
2013-01-22 18:26:00,33.0,16.9,30.09,NNW,338,0.0,0.0,51,0.00,,CLR,0.00,VWS V14.01,2013-01-22 23:26:00,
2013-01-22 18:27:00,33.0,16.9,30.09,NNW,338,0.0,0.0,51,0.00,,CLR,0.00,VWS V14.01,2013-01-22 23:27:00,
2013-01-22 18:28:00,33.0,16.9,30.09,NNW,338,0.0,0.0,51,0.00,,CLR,0.00,VWS V14.01,2013-01-22 23:28:00,
2013-01-22 18:29:00,32.9,16.7,30.09,NNW,338,0.0,0.0,51,0.00,,CLR,0.00,VWS V14.01,2013-01-22 23:29:00,
2013-01-22 18:30:00,32.7,16.6,30.09,NNW,338,0.0,0.0,51,0.00,,CLR,0.00,VWS V14.01,2013-01-22 23:30:00,
2013-01-22 18:31:00,32.7,16.6,30.09,NNW,338,0.0,0.0,51,0.00,,CLR,0.00,VWS V14.01,2013-01-22 23:31:00,
2013-01-22 18:32:00,32.5,16.4,30.09,NNW,338,0.0,0.0,51,0.00,,CLR,0.00,VWS V14.01,2013-01-22 23:32:00,
2013-01-22 18:33:00,32.5,16.4,30.09,NNW,338,0.0,0.0,51,0.00,,CLR,0.00,VWS V14.01,2013-01-22 23:33:00,
2013-01-22 18:34:00,32.3,16.2,30.09,NNW,338,0.0,0.0,51,0.00,,CLR,0.00,VWS V14.01,2013-01-22 23:34:00,
2013-01-22 18:35:00,32.3,16.2,30.09,NNW,338,0.0,0.0,51,0.00,,CLR,0.00,VWS V14.01,2013-01-22 23:35:00,
2013-01-22 18:36:00,32.1,16.1,30.09,NNW,338,0.0,0.0,51,0.00,,CLR,0.00,VWS V14.01,2013-01-22 23:36:00,
2013-01-22 18:37:00,32.1,16.1,30.09,NNW,338,0.0,0.0,51,0.00,,CLR,0.00,VWS V14.01,2013-01-22 23:37:00,
2013-01-22 18:38:00,32.1,16.1,30.09,NNW,338,0.0,0.0,51,0.00,,CLR,0.00,VWS V14.01,2013-01-22 23:38:00,
2013-01-22 18:39:00,32.0,15.9,30.09,NNW,338,0.0,0.0,51,0.00,,CLR,0.00,VWS V14.01,2013-01-22 23:39:00,
2013-01-22 18:40:00,31.8,15.7,30.09,NNW,338,0.0,0.0,51,0.00,,CLR,0.00,VWS V14.01,2013-01-22 23:40:00,
2013-01-22 18:41:00,31.8,15.7,30.09,NNW,338,0.0,0.0,51,0.00,,CLR,0.00,VWS V14.01,2013-01-22 23:41:00,
2013-01-22 18:42:00,31.8,15.7,30.09,NNW,338,0.0,0.0,51,0.00,,CLR,0.00,VWS V14.01,2013-01-22 23:42:00,
2013-01-22 18:43:00,31.8,15.7,30.09,NNW,338,0.0,0.0,51,0.00,,CLR,0.00,VWS V14.01,2013-01-22 23:43:00,
2013-01-22 18:44:00,31.6,15.6,30.09,NNW,338,0.0,0.0,51,0.00,,CLR,0.00,VWS V14.01,2013-01-22 23:44:00,
2013-01-22 18:45:00,31.6,15.6,30.09,NNW,338,0.0,0.0,51,0.00,,CLR,0.00,VWS V14.01,2013-01-22 23:45:00,
2013-01-22 18:46:00,31.6,15.6,30.09,NNW,338,0.0,0.0,51,0.00,,CLR,0.00,VWS V14.01,2013-01-22 23:46:00,
2013-01-22 18:47:00,31.6,15.6,30.09,NNW,338,0.0,0.0,51,0.00,,CLR,0.00,VWS V14.01,2013-01-22 23:47:00,
2013-01-22 18:48:00,31.6,15.6,30.09,NNW,338,0.0,0.0,51,0.00,,CLR,0.00,VWS V14.01,2013-01-22 23:48:00,
2013-01-22 18:49:00,31.6,15.6,30.09,NNW,338,0.0,0.0,51,0.00,,CLR,0.00,VWS V14.01,2013-01-22 23:49:00,
2013-01-22 18:50:00,31.6,15.6,30.09,NNW,338,0.0,0.0,51,0.00,,CLR,0.00,VWS V14.01,2013-01-22 23:50:00,
2013-01-22 18:51:00,31.6,15.6,30.09,NNW,338,0.0,0.0,51,0.00,,CLR,0.00,VWS V14.01,2013-01-22 23:51:00,
2013-01-22 18:52:00,31.8,15.7,30.09,NNW,338,0.0,0.0,51,0.00,,CLR,0.00,VWS V14.01,2013-01-22 23:52:00,
2013-01-22 18:53:00,31.8,15.7,30.09,NNW,338,0.0,0.0,51,0.00,,CLR,0.00,VWS V14.01,2013-01-22 23:53:00,
2013-01-22 18:54:00,31.8,15.7,30.09,NNW,338,1.6,1.6,51,0.00,,CLR,0.00,VWS V14.01,2013-01-22 23:54:00,
2013-01-22 18:55:00,31.8,15.7,30.09,NNW,338,1.6,1.6,51,0.00,,CLR,0.00,VWS V14.01,2013-01-22 23:55:00,
2013-01-22 18:56:00,31.8,15.7,30.09,NNW,338,1.3,1.3,51,0.00,,CLR,0.00,VWS V14.01,2013-01-22 23:56:00,
2013-01-22 18:57:00,31.8,15.7,30.09,NNW,338,0.9,0.9,51,0.00,,CLR,0.00,VWS V14.01,2013-01-22 23:57:00,
2013-01-22 18:58:00,31.8,15.7,30.09,NNW,338,0.9,0.9,51,0.00,,CLR,0.00,VWS V14.01,2013-01-22 23:58:00,
2013-01-22 18:59:00,31.6,15.6,30.09,NNW,338,1.6,1.6,51,0.00,,CLR,0.00,VWS V14.01,2013-01-22 23:59:00,
2013-01-22 19:00:00,31.6,15.6,30.09,NNW,338,0.0,0.0,51,0.00,,CLR,0.00,VWS V14.01,2013-01-23 00:00:00,
2013-01-22 19:01:00,31.6,15.6,30.09,NNW,338,0.0,0.0,51,0.00,,CLR,0.00,VWS V14.01,2013-01-23 00:01:00,
2013-01-22 19:02:00,31.4,15.4,30.09,NNW,338,0.0,0.0,51,0.00,,CLR,0.00,VWS V14.01,2013-01-23 00:02:00,
2013-01-22 19:03:00,31.4,15.4,30.09,NNW,338,0.0,0.0,51,0.00,,CLR,0.00,VWS V14.01,2013-01-23 00:03:00,
2013-01-22 19:04:00,31.4,15.4,30.09,NNW,338,0.0,0.0,51,0.00,,CLR,0.00,VWS V14.01,2013-01-23 00:04:00,
2013-01-22 19:05:00,31.4,15.4,30.12,NNW,338,0.0,0.0,51,0.00,,CLR,0.00,VWS V14.01,2013-01-23 00:05:00,
2013-01-22 19:06:00,31.4,15.4,30.12,NNW,338,0.0,0.0,51,0.00,,CLR,0.00,VWS V14.01,2013-01-23 00:06:00,
2013-01-22 19:07:00,31.4,15.4,30.12,NNW,338,0.0,0.0,51,0.00,,CLR,0.00,VWS V14.01,2013-01-23 00:07:00,
2013-01-22 19:08:00,31.4,15.4,30.12,NNW,338,0.0,0.0,51,0.00,,CLR,0.00,VWS V14.01,2013-01-23 00:08:00,
2013-01-22 19:09:00,31.2,15.2,30.12,NNW,338,0.0,0.0,51,0.00,,CLR,0.00,VWS V14.01,2013-01-23 00:09:00,
2013-01-22 19:10:00,31.2,15.2,30.12,NNW,338,0.0,0.0,51,0.00,,CLR,0.00,VWS V14.01,2013-01-23 00:10:00,
2013-01-22 19:11:00,31.2,15.2,30.12,NNW,338,0.0,0.0,51,0.00,,CLR,0.00,VWS V14.01,2013-01-23 00:11:00,
2013-01-22 19:12:00,31.1,15.1,30.12,NNW,338,0.0,0.0,51,0.00,,CLR,0.00,VWS V14.01,2013-01-23 00:12:00,
2013-01-22 19:13:00,31.1,15.1,30.12,NNW,338,0.0,0.0,51,0.00,,CLR,0.00,VWS V14.01,2013-01-23 00:13:00,
2013-01-22 19:14:00,31.1,15.1,30.12,NNW,338,0.0,0.0,51,0.00,,CLR,0.00,VWS V14.01,2013-01-23 00:14:00,
2013-01-22 19:15:00,31.1,15.1,30.12,NNW,338,0.0,0.0,51,0.00,,CLR,0.00,VWS V14.01,2013-01-23 00:15:00,
2013-01-22 19:16:00,31.1,15.1,30.12,NNW,338,0.0,0.0,51,0.00,,CLR,0.00,VWS V14.01,2013-01-23 00:16:00,
2013-01-22 19:17:00,31.1,15.1,30.12,NNW,338,1.1,1.1,51,0.00,,CLR,0.00,VWS V14.01,2013-01-23 00:17:00,
2013-01-22 19:18:00,30.9,14.9,30.12,NNW,338,1.1,1.1,51,0.00,,CLR,0.00,VWS V14.01,2013-01-23 00:18:00,
2013-01-22 19:19:00,31.1,15.1,30.12,NNW,338,0.9,0.9,51,0.00,,CLR,0.00,VWS V14.01,2013-01-23 00:19:00,
2013-01-22 19:20:00,30.9,14.9,30.06,NNW,338,1.1,1.1,51,0.00,,CLR,0.00,VWS V14.01,2013-01-23 00:20:00,
2013-01-22 19:21:00,30.9,14.9,30.06,NNW,338,1.3,1.3,51,0.00,,CLR,0.00,VWS V14.01,2013-01-23 00:21:00,
2013-01-22 19:22:00,30.9,14.9,30.12,NNW,338,1.6,1.6,51,0.00,,CLR,0.00,VWS V14.01,2013-01-23 00:22:00,
2013-01-22 19:23:00,30.9,14.9,30.12,NNW,338,1.6,1.6,51,0.00,,CLR,1.41,VWS V14.01,2013-01-23 00:23:00,
2013-01-22 19:24:00,30.9,14.9,30.12,NNW,338,1.3,1.3,51,0.00,,CLR,1.41,VWS V14.01,2013-01-23 00:24:00,
2013-01-22 19:25:00,30.9,14.9,30.12,NNW,338,1.3,1.3,51,0.00,,CLR,1.41,VWS V14.01,2013-01-23 00:25:00,
2013-01-22 19:26:00,30.9,14.9,30.12,NNW,338,1.1,1.1,51,0.00,,CLR,1.41,VWS V14.01,2013-01-23 00:26:00,
2013-01-22 19:27:00,30.9,14.9,30.12,North,0,1.6,1.6,51,0.00,,CLR,1.41,VWS V14.01,2013-01-23 00:27:00,
2013-01-22 19:28:00,30.9,14.9,30.12,North,0,2.0,2.0,51,0.00,,CLR,1.41,VWS V14.01,2013-01-23 00:28:00,
2013-01-22 19:29:00,30.9,14.9,30.12,North,0,1.6,1.6,51,0.00,,CLR,1.41,VWS V14.01,2013-01-23 00:29:00,
2013-01-22 19:30:00,31.1,15.1,30.12,North,0,1.6,1.6,51,0.00,,CLR,1.41,VWS V14.01,2013-01-23 00:30:00,
2013-01-22 19:31:00,31.1,15.1,30.12,North,0,1.6,1.6,51,0.00,,CLR,1.41,VWS V14.01,2013-01-23 00:31:00,
2013-01-22 19:32:00,31.1,15.1,30.12,North,0,1.1,1.1,51,0.00,,CLR,1.41,VWS V14.01,2013-01-23 00:32:00,
2013-01-22 19:33:00,31.1,15.1,30.12,North,0,1.3,1.3,51,0.00,,CLR,1.41,VWS V14.01,2013-01-23 00:33:00,
2013-01-22 19:34:00,31.1,15.1,30.12,North,0,2.0,2.0,51,0.00,,CLR,1.41,VWS V14.01,2013-01-23 00:34:00,
2013-01-22 19:35:00,31.1,15.1,30.09,North,0,1.1,1.1,51,0.00,,CLR,1.41,VWS V14.01,2013-01-23 00:35:00,
2013-01-22 19:36:00,31.1,15.1,30.09,North,0,1.1,1.1,51,0.00,,CLR,1.41,VWS V14.01,2013-01-23 00:36:00,
2013-01-22 19:37:00,31.1,15.1,30.09,North,0,1.3,1.3,51,0.00,,CLR,1.41,VWS V14.01,2013-01-23 00:37:00,
2013-01-22 19:38:00,31.1,15.1,30.09,North,0,0.0,0.0,51,0.00,,CLR,1.41,VWS V14.01,2013-01-23 00:38:00,
2013-01-22 19:39:00,31.1,15.1,30.09,North,0,0.0,0.0,51,0.00,,CLR,1.41,VWS V14.01,2013-01-23 00:39:00,
2013-01-22 19:40:00,31.1,15.1,30.09,North,0,0.0,0.0,51,0.00,,CLR,1.41,VWS V14.01,2013-01-23 00:40:00,
2013-01-22 19:41:00,31.1,15.1,30.09,North,0,0.0,0.0,51,0.00,,CLR,1.41,VWS V14.01,2013-01-23 00:41:00,
2013-01-22 19:42:00,31.1,15.1,30.09,North,0,0.0,0.0,51,0.00,,CLR,1.41,VWS V14.01,2013-01-23 00:42:00,
2013-01-22 19:43:00,31.1,15.1,30.09,North,0,0.0,0.0,51,0.00,,CLR,1.41,VWS V14.01,2013-01-23 00:43:00,
2013-01-22 19:44:00,31.1,15.1,30.09,North,0,0.0,0.0,51,0.00,,CLR,1.41,VWS V14.01,2013-01-23 00:44:00,
2013-01-22 19:45:00,31.1,15.1,30.09,North,0,0.0,0.0,51,0.00,,CLR,1.41,VWS V14.01,2013-01-23 00:45:00,
2013-01-22 19:46:00,31.1,15.1,30.09,NNW,338,2.2,2.2,51,0.00,,CLR,1.41,VWS V14.01,2013-01-23 00:46:00,
2013-01-22 19:47:00,31.1,15.1,30.09,NNW,338,0.0,0.0,51,0.00,,CLR,1.41,VWS V14.01,2013-01-23 00:47:00,
2013-01-22 19:48:00,31.1,15.1,30.09,NNW,338,0.0,0.0,51,0.00,,CLR,1.41,VWS V14.01,2013-01-23 00:48:00,
2013-01-22 19:49:00,31.1,15.1,30.09,NNW,338,0.0,0.0,51,0.00,,CLR,1.41,VWS V14.01,2013-01-23 00:49:00,
2013-01-22 19:50:00,31.1,15.1,30.09,NNW,338,0.0,0.0,51,0.00,,CLR,1.41,VWS V14.01,2013-01-23 00:50:00,
2013-01-22 19:51:00,31.1,15.1,30.09,NNW,338,0.0,0.0,51,0.00,,CLR,1.41,VWS V14.01,2013-01-23 00:51:00,
2013-01-22 19:52:00,31.1,15.1,30.09,NNW,338,1.3,1.3,51,0.00,,CLR,1.41,VWS V14.01,2013-01-23 00:52:00,
2013-01-22 19:53:00,31.1,15.1,30.09,NNW,338,1.6,1.6,51,0.00,,CLR,0.00,VWS V14.01,2013-01-23 00:53:00,
2013-01-22 19:54:00,31.1,15.1,30.09,NNW,338,1.1,1.1,51,0.00,,CLR,0.00,VWS V14.01,2013-01-23 00:54:00,
2013-01-22 19:55:00,30.9,14.9,30.09,NNW,338,1.6,1.6,51,0.00,,CLR,0.00,VWS V14.01,2013-01-23 00:55:00,
2013-01-22 19:56:00,30.9,14.9,30.09,NNW,338,1.1,1.1,51,0.00,,CLR,0.00,VWS V14.01,2013-01-23 00:56:00,
2013-01-22 19:57:00,30.9,14.9,30.09,NNW,338,1.1,1.1,51,0.00,,CLR,0.00,VWS V14.01,2013-01-23 00:57:00,
2013-01-22 19:58:00,30.7,14.7,30.09,NNW,338,1.3,1.3,51,0.00,,CLR,0.00,VWS V14.01,2013-01-23 00:58:00,
2013-01-22 19:59:00,30.7,14.7,30.09,NNW,338,1.1,1.1,51,0.00,,CLR,0.00,VWS V14.01,2013-01-23 00:59:00,
2013-01-22 20:00:00,30.7,14.7,30.09,North,0,1.6,1.6,51,0.00,,CLR,0.00,VWS V14.01,2013-01-23 01:00:00,
2013-01-22 20:01:00,30.5,14.6,30.09,North,0,2.0,2.0,51,0.00,,CLR,0.00,VWS V14.01,2013-01-23 01:01:00,
2013-01-22 20:02:00,30.5,14.6,30.09,North,0,1.3,1.3,51,0.00,,CLR,0.00,VWS V14.01,2013-01-23 01:02:00,
2013-01-22 20:03:00,30.5,14.6,30.09,North,0,1.3,1.3,51,0.00,,CLR,0.00,VWS V14.01,2013-01-23 01:03:00,
2013-01-22 20:04:00,30.5,14.6,30.09,North,0,1.3,1.3,51,0.00,,CLR,0.00,VWS V14.01,2013-01-23 01:04:00,
2013-01-22 20:05:00,30.5,14.6,30.12,North,0,1.1,1.1,51,0.00,,CLR,0.00,VWS V14.01,2013-01-23 01:05:00,
2013-01-22 20:06:00,30.5,14.6,30.12,North,0,1.6,1.6,51,0.00,,CLR,0.00,VWS V14.01,2013-01-23 01:06:00,
2013-01-22 20:07:00,30.5,14.6,30.12,North,0,1.6,1.6,51,0.00,,CLR,0.00,VWS V14.01,2013-01-23 01:07:00,
2013-01-22 20:08:00,30.5,14.6,30.12,North,0,1.6,1.6,51,0.00,,CLR,0.00,VWS V14.01,2013-01-23 01:08:00,
2013-01-22 20:09:00,30.5,14.6,30.12,North,0,1.6,1.6,51,0.00,,CLR,0.00,VWS V14.01,2013-01-23 01:09:00,
2013-01-22 20:10:00,30.5,14.6,30.12,North,0,0.9,0.9,51,0.00,,CLR,0.00,VWS V14.01,2013-01-23 01:10:00,
2013-01-22 20:11:00,30.5,14.6,30.12,North,0,0.0,0.0,51,0.00,,CLR,0.00,VWS V14.01,2013-01-23 01:11:00,
2013-01-22 20:12:00,30.7,14.7,30.12,North,0,0.0,0.0,51,0.00,,CLR,0.00,VWS V14.01,2013-01-23 01:12:00,
2013-01-22 20:13:00,30.7,14.7,30.12,North,0,0.0,0.0,51,0.00,,CLR,0.00,VWS V14.01,2013-01-23 01:13:00,
2013-01-22 20:14:00,30.7,14.7,30.12,North,0,0.0,0.0,51,0.00,,CLR,0.00,VWS V14.01,2013-01-23 01:14:00,
2013-01-22 20:15:00,30.9,14.9,30.12,North,0,0.0,0.0,51,0.00,,CLR,0.00,VWS V14.01,2013-01-23 01:15:00,
2013-01-22 20:16:00,30.9,14.9,30.12,North,0,0.0,0.0,51,0.00,,CLR,0.00,VWS V14.01,2013-01-23 01:16:00,
2013-01-22 20:17:00,31.1,15.1,30.12,North,0,0.0,0.0,51,0.00,,CLR,0.00,VWS V14.01,2013-01-23 01:17:00,
2013-01-22 20:18:00,31.1,15.1,30.12,North,0,0.0,0.0,51,0.00,,CLR,0.00,VWS V14.01,2013-01-23 01:18:00,
2013-01-22 20:19:00,31.1,15.1,30.12,North,0,0.0,0.0,51,0.00,,CLR,0.00,VWS V14.01,2013-01-23 01:19:00,
2013-01-22 20:20:00,31.1,15.1,30.09,North,0,0.0,0.0,51,0.00,,CLR,0.00,VWS V14.01,2013-01-23 01:20:00,
2013-01-22 20:21:00,31.2,15.2,30.09,North,0,0.0,0.0,51,1.41,,CLR,0.00,VWS V14.01,2013-01-23 01:21:00,
2013-01-22 20:22:00,31.2,15.2,30.09,NNW,338,1.3,1.3,51,1.41,,CLR,0.00,VWS V14.01,2013-01-23 01:22:00,
2013-01-22 20:23:00,31.2,15.2,30.09,NNW,338,1.1,1.1,51,1.41,,CLR,0.00,VWS V14.01,2013-01-23 01:23:00,
2013-01-22 20:24:00,31.2,15.2,30.09,NNW,338,1.1,1.1,51,1.41,,CLR,0.00,VWS V14.01,2013-01-23 01:24:00,
2013-01-22 20:25:00,31.1,15.1,30.09,NNW,338,1.1,1.1,51,0.00,,CLR,0.00,VWS V14.01,2013-01-23 01:25:00,
2013-01-22 20:26:00,31.1,15.1,30.09,NNW,338,1.3,1.3,51,0.00,,CLR,0.00,VWS V14.01,2013-01-23 01:26:00,
2013-01-22 20:27:00,31.1,15.1,30.09,NNW,338,1.6,1.6,51,0.00,,CLR,0.00,VWS V14.01,2013-01-23 01:27:00,
2013-01-22 20:28:00,31.1,15.1,30.09,NNW,338,0.9,0.9,51,0.00,,CLR,0.00,VWS V14.01,2013-01-23 01:28:00,
2013-01-22 20:29:00,31.1,15.1,30.09,NNW,338,0.9,0.9,51,0.00,,CLR,0.00,VWS V14.01,2013-01-23 01:29:00,
2013-01-22 20:30:00,30.9,14.9,30.09,NNW,338,0.0,0.0,51,0.00,,CLR,0.00,VWS V14.01,2013-01-23 01:30:00,
2013-01-22 20:31:00,30.9,14.9,30.09,NNW,338,0.0,0.0,51,0.00,,CLR,0.00,VWS V14.01,2013-01-23 01:31:00,
2013-01-22 20:32:00,30.9,14.9,30.09,NNW,338,0.0,0.0,51,0.00,,CLR,0.00,VWS V14.01,2013-01-23 01:32:00,
2013-01-22 20:33:00,30.7,14.7,30.09,NNW,338,0.0,0.0,51,0.00,,CLR,0.00,VWS V14.01,2013-01-23 01:33:00,
2013-01-22 20:34:00,30.7,14.7,30.09,NNW,338,0.0,0.0,51,0.00,,CLR,0.00,VWS V14.01,2013-01-23 01:34:00,
2013-01-22 20:35:00,30.7,14.7,30.12,NNW,338,0.0,0.0,51,0.00,,CLR,0.00,VWS V14.01,2013-01-23 01:35:00,
2013-01-22 20:36:00,30.5,14.6,30.12,NNW,338,0.0,0.0,51,0.00,,CLR,0.00,VWS V14.01,2013-01-23 01:36:00,
2013-01-22 20:37:00,30.5,14.6,30.12,NNW,338,0.0,0.0,51,0.00,,CLR,0.00,VWS V14.01,2013-01-23 01:37:00,
2013-01-22 20:38:00,30.5,14.6,30.12,NNW,338,0.0,0.0,51,0.00,,CLR,0.00,VWS V14.01,2013-01-23 01:38:00,
2013-01-22 20:39:00,30.5,14.6,30.12,NNW,338,0.0,0.0,51,0.00,,CLR,0.00,VWS V14.01,2013-01-23 01:39:00,
2013-01-22 20:40:00,30.3,14.4,30.12,NNW,338,0.0,0.0,51,0.00,,CLR,0.00,VWS V14.01,2013-01-23 01:40:00,
2013-01-22 20:41:00,30.3,14.4,30.12,NNW,338,0.0,0.0,51,0.00,,CLR,0.00,VWS V14.01,2013-01-23 01:41:00,
2013-01-22 20:42:00,30.2,14.2,30.12,NNW,338,0.0,0.0,51,0.00,,CLR,0.00,VWS V14.01,2013-01-23 01:42:00,
2013-01-22 20:43:00,30.2,14.2,30.12,NNW,338,0.0,0.0,51,0.00,,CLR,0.00,VWS V14.01,2013-01-23 01:43:00,
2013-01-22 20:44:00,30.2,14.2,30.12,NNW,338,0.0,0.0,51,0.00,,CLR,0.00,VWS V14.01,2013-01-23 01:44:00,
2013-01-22 20:45:00,30.0,14.1,30.12,NNW,338,0.0,0.0,51,0.00,,CLR,0.00,VWS V14.01,2013-01-23 01:45:00,
2013-01-22 20:46:00,30.0,14.1,30.12,NNW,338,0.0,0.0,51,0.00,,CLR,0.00,VWS V14.01,2013-01-23 01:46:00,
2013-01-22 20:47:00,30.0,14.1,30.12,NNW,338,0.0,0.0,51,0.00,,CLR,0.00,VWS V14.01,2013-01-23 01:47:00,
2013-01-22 20:48:00,30.0,14.1,30.12,NNW,338,1.6,1.6,51,0.00,,CLR,0.00,VWS V14.01,2013-01-23 01:48:00,
2013-01-22 20:49:00,30.0,14.1,30.12,NNW,338,1.6,1.6,51,0.00,,CLR,0.00,VWS V14.01,2013-01-23 01:49:00,
2013-01-22 20:50:00,29.8,13.9,30.12,NNW,338,1.3,1.3,51,0.00,,CLR,0.00,VWS V14.01,2013-01-23 01:50:00,
2013-01-22 20:51:00,29.8,13.9,30.12,NNW,338,1.3,1.3,51,0.00,,CLR,0.00,VWS V14.01,2013-01-23 01:51:00,
2013-01-22 20:52:00,29.8,13.9,30.12,NNW,338,1.1,1.1,51,0.00,,CLR,0.00,VWS V14.01,2013-01-23 01:52:00,
2013-01-22 20:53:00,29.8,13.9,30.12,NNW,338,1.1,1.1,51,0.00,,CLR,0.00,VWS V14.01,2013-01-23 01:53:00,
2013-01-22 20:54:00,29.8,13.9,30.12,NNW,338,1.1,1.1,51,0.00,,CLR,0.00,VWS V14.01,2013-01-23 01:54:00,
2013-01-22 20:55:00,29.8,13.9,30.12,NNW,338,0.9,0.9,51,0.00,,CLR,0.00,VWS V14.01,2013-01-23 01:55:00,
2013-01-22 20:56:00,29.8,13.9,30.12,NNW,338,0.0,0.0,51,0.00,,CLR,0.00,VWS V14.01,2013-01-23 01:56:00,
2013-01-22 20:57:00,29.8,13.9,30.12,NNW,338,0.0,0.0,51,0.00,,CLR,0.00,VWS V14.01,2013-01-23 01:57:00,
2013-01-22 20:58:00,29.8,13.9,30.12,NNW,338,0.0,0.0,51,0.00,,CLR,0.00,VWS V14.01,2013-01-23 01:58:00,
2013-01-22 20:59:00,29.8,13.9,30.12,NNW,338,0.0,0.0,51,0.00,,CLR,0.00,VWS V14.01,2013-01-23 01:59:00,
2013-01-22 21:00:00,28.7,13.3,30.12,NNW,338,2.2,2.2,52,0.00,,CLR,0.00,VWS V14.01,2013-01-23 02:00:00,
2013-01-22 21:01:00,28.7,13.3,30.12,WNW,292,1.6,1.6,52,0.00,,CLR,0.00,VWS V14.01,2013-01-23 02:01:00,
2013-01-22 21:02:00,28.2,12.8,30.12,WNW,292,1.6,1.6,52,0.00,,CLR,0.00,VWS V14.01,2013-01-23 02:02:00,
2013-01-22 21:03:00,27.8,12.5,30.12,WNW,292,2.0,2.0,52,0.00,,CLR,0.00,VWS V14.01,2013-01-23 02:03:00,
2013-01-22 21:04:00,27.8,12.5,30.12,WNW,292,2.0,2.0,52,0.00,,CLR,0.00,VWS V14.01,2013-01-23 02:04:00,
2013-01-22 21:05:00,27.5,12.2,30.15,WNW,292,1.6,1.6,52,0.00,,CLR,0.00,VWS V14.01,2013-01-23 02:05:00,
2013-01-22 21:06:00,27.3,12.0,30.15,WNW,292,1.3,1.3,52,0.00,,CLR,0.00,VWS V14.01,2013-01-23 02:06:00,
2013-01-22 21:07:00,27.5,12.2,30.15,WNW,292,1.1,1.1,52,0.00,,CLR,0.00,VWS V14.01,2013-01-23 02:07:00,
2013-01-22 21:08:00,27.6,12.3,30.15,WNW,292,0.0,0.0,52,0.00,,CLR,0.00,VWS V14.01,2013-01-23 02:08:00,
2013-01-22 21:09:00,27.6,12.3,30.15,WNW,292,0.0,0.0,52,0.00,,CLR,0.00,VWS V14.01,2013-01-23 02:09:00,
2013-01-22 21:10:00,27.6,12.3,30.15,WNW,292,0.0,0.0,52,0.00,,CLR,0.00,VWS V14.01,2013-01-23 02:10:00,
2013-01-22 21:11:00,27.6,12.3,30.15,WNW,292,0.0,0.0,52,0.00,,CLR,0.00,VWS V14.01,2013-01-23 02:11:00,
2013-01-22 21:12:00,27.6,12.3,30.15,WNW,292,0.0,0.0,52,0.00,,CLR,0.00,VWS V14.01,2013-01-23 02:12:00,
2013-01-22 21:13:00,27.5,12.2,30.15,WNW,292,0.0,0.0,52,0.00,,CLR,0.00,VWS V14.01,2013-01-23 02:13:00,
2013-01-22 21:14:00,27.5,12.2,30.15,WNW,292,0.0,0.0,52,0.00,,CLR,0.00,VWS V14.01,2013-01-23 02:14:00,
2013-01-22 21:15:00,27.3,12.0,30.15,NNW,338,1.1,1.1,52,0.00,,CLR,0.00,VWS V14.01,2013-01-23 02:15:00,
2013-01-22 21:16:00,27.3,12.0,30.15,NNW,338,1.3,1.3,52,0.00,,CLR,0.00,VWS V14.01,2013-01-23 02:16:00,
2013-01-22 21:17:00,27.3,12.0,30.15,NNW,338,1.3,1.3,52,0.00,,CLR,0.00,VWS V14.01,2013-01-23 02:17:00,
2013-01-22 21:18:00,27.3,12.0,30.15,NNW,338,1.3,1.3,52,0.00,,CLR,0.00,VWS V14.01,2013-01-23 02:18:00,
2013-01-22 21:19:00,27.3,12.0,30.15,NNW,338,1.3,1.3,52,0.00,,CLR,0.00,VWS V14.01,2013-01-23 02:19:00,
2013-01-22 21:20:00,27.3,12.0,30.15,NNW,338,1.3,1.3,52,0.00,,CLR,0.00,VWS V14.01,2013-01-23 02:20:00,
2013-01-22 21:21:00,27.5,12.2,30.15,NNW,338,0.0,0.0,52,0.00,,CLR,0.00,VWS V14.01,2013-01-23 02:21:00,
2013-01-22 21:22:00,27.6,12.3,30.15,NNW,338,0.0,0.0,52,0.00,,CLR,0.00,VWS V14.01,2013-01-23 02:22:00,
2013-01-22 21:23:00,27.6,12.3,30.15,NNW,338,0.0,0.0,52,0.00,,CLR,0.00,VWS V14.01,2013-01-23 02:23:00,
2013-01-22 21:24:00,27.6,12.3,30.15,NNW,338,0.0,0.0,52,0.00,,CLR,0.00,VWS V14.01,2013-01-23 02:24:00,
2013-01-22 21:25:00,27.5,12.2,30.15,NNW,338,0.0,0.0,52,0.00,,CLR,0.00,VWS V14.01,2013-01-23 02:25:00,
2013-01-22 21:26:00,27.5,12.2,30.15,NNW,338,0.0,0.0,52,0.00,,CLR,0.00,VWS V14.01,2013-01-23 02:26:00,
2013-01-22 21:27:00,27.5,12.2,30.15,NNW,338,0.0,0.0,52,0.00,,CLR,0.00,VWS V14.01,2013-01-23 02:27:00,
2013-01-22 21:28:00,27.5,12.2,30.15,NNW,338,0.0,0.0,52,0.00,,CLR,0.00,VWS V14.01,2013-01-23 02:28:00,
2013-01-22 21:29:00,27.5,12.2,30.15,NNW,338,0.0,0.0,52,0.00,,CLR,0.00,VWS V14.01,2013-01-23 02:29:00,
2013-01-22 21:30:00,27.5,12.2,30.15,NNW,338,0.0,0.0,52,0.00,,CLR,0.00,VWS V14.01,2013-01-23 02:30:00,
2013-01-22 21:31:00,27.5,12.2,30.15,NNW,338,0.0,0.0,52,0.00,,CLR,0.00,VWS V14.01,2013-01-23 02:31:00,
2013-01-22 21:32:00,27.5,12.2,30.15,NNW,338,0.0,0.0,52,0.00,,CLR,0.00,VWS V14.01,2013-01-23 02:32:00,
2013-01-22 21:33:00,27.5,12.2,30.15,NNW,338,0.0,0.0,52,0.00,,CLR,0.00,VWS V14.01,2013-01-23 02:33:00,
2013-01-22 21:34:00,27.5,12.2,30.15,NNW,338,0.0,0.0,52,0.00,,CLR,0.00,VWS V14.01,2013-01-23 02:34:00,
2013-01-22 21:35:00,27.3,12.0,30.15,NNW,338,0.0,0.0,52,0.00,,CLR,0.00,VWS V14.01,2013-01-23 02:35:00,
2013-01-22 21:36:00,27.1,11.8,30.15,NNW,338,0.0,0.0,52,0.00,,CLR,0.00,VWS V14.01,2013-01-23 02:36:00,
2013-01-22 21:37:00,27.1,11.8,30.15,NNW,338,0.0,0.0,52,0.00,,CLR,0.00,VWS V14.01,2013-01-23 02:37:00,
2013-01-22 21:38:00,27.1,11.8,30.15,NNW,338,0.0,0.0,52,0.00,,CLR,0.00,VWS V14.01,2013-01-23 02:38:00,
2013-01-22 21:39:00,27.1,11.8,30.15,NNW,338,0.0,0.0,52,0.00,,CLR,0.00,VWS V14.01,2013-01-23 02:39:00,
2013-01-22 21:40:00,26.9,11.7,30.15,NNW,338,0.0,0.0,52,0.00,,CLR,0.00,VWS V14.01,2013-01-23 02:40:00,
2013-01-22 21:41:00,26.9,11.7,30.15,NNW,338,0.0,0.0,52,0.00,,CLR,0.00,VWS V14.01,2013-01-23 02:41:00,
2013-01-22 21:42:00,26.9,11.7,30.15,NNW,338,0.0,0.0,52,0.00,,CLR,0.00,VWS V14.01,2013-01-23 02:42:00,
2013-01-22 21:43:00,26.9,11.7,30.15,NNW,338,0.0,0.0,52,0.00,,CLR,0.00,VWS V14.01,2013-01-23 02:43:00,
2013-01-22 21:44:00,26.9,11.7,30.15,NNW,338,0.0,0.0,52,0.00,,CLR,0.00,VWS V14.01,2013-01-23 02:44:00,
2013-01-22 21:45:00,26.6,11.3,30.15,NNW,338,0.0,0.0,52,0.00,,CLR,0.00,VWS V14.01,2013-01-23 02:45:00,
2013-01-22 21:46:00,26.6,11.3,30.15,NNW,338,0.0,0.0,52,0.00,,CLR,0.00,VWS V14.01,2013-01-23 02:46:00,
2013-01-22 21:47:00,26.6,11.3,30.15,NNW,338,0.0,0.0,52,0.00,,CLR,0.00,VWS V14.01,2013-01-23 02:47:00,
2013-01-22 21:48:00,26.6,11.3,30.15,NNW,338,0.0,0.0,52,0.00,,CLR,0.00,VWS V14.01,2013-01-23 02:48:00,
2013-01-22 21:49:00,26.6,11.3,30.15,NNW,338,0.0,0.0,52,0.00,,CLR,0.00,VWS V14.01,2013-01-23 02:49:00,
2013-01-22 21:50:00,26.4,11.2,30.15,NNW,338,0.0,0.0,52,0.00,,CLR,0.00,VWS V14.01,2013-01-23 02:50:00,
2013-01-22 21:51:00,26.4,11.2,30.15,NNW,338,0.0,0.0,52,0.00,,CLR,0.00,VWS V14.01,2013-01-23 02:51:00,
2013-01-22 21:52:00,26.4,11.2,30.15,NNW,338,0.0,0.0,52,0.00,,CLR,0.00,VWS V14.01,2013-01-23 02:52:00,
2013-01-22 21:53:00,26.6,11.3,30.15,NNW,338,0.0,0.0,52,0.00,,CLR,0.00,VWS V14.01,2013-01-23 02:53:00,
2013-01-22 21:54:00,26.6,11.3,30.15,NNW,338,0.0,0.0,52,0.00,,CLR,0.00,VWS V14.01,2013-01-23 02:54:00,
2013-01-22 21:55:00,26.7,11.5,30.15,NNW,338,1.1,1.1,52,0.00,,CLR,0.00,VWS V14.01,2013-01-23 02:55:00,
2013-01-22 21:56:00,26.7,11.5,30.15,NNW,338,1.1,1.1,52,0.00,,CLR,0.00,VWS V14.01,2013-01-23 02:56:00,
2013-01-22 21:57:00,26.7,11.5,30.15,NNW,338,1.1,1.1,52,0.00,,CLR,0.00,VWS V14.01,2013-01-23 02:57:00,
2013-01-22 21:58:00,26.7,11.5,30.15,NNW,338,0.9,0.9,52,0.00,,CLR,0.00,VWS V14.01,2013-01-23 02:58:00,
2013-01-22 21:59:00,26.7,11.5,30.15,NNW,338,0.9,0.9,52,0.00,,CLR,0.00,VWS V14.01,2013-01-23 02:59:00,
2013-01-22 22:00:00,26.9,11.7,30.15,NNW,338,1.3,1.3,52,0.00,,CLR,0.00,VWS V14.01,2013-01-23 03:00:00,
2013-01-22 22:01:00,26.9,11.7,30.15,NNW,338,1.1,1.1,52,0.00,,CLR,0.00,VWS V14.01,2013-01-23 03:01:00,
2013-01-22 22:02:00,26.9,11.7,30.15,NNW,338,1.1,1.1,52,0.00,,CLR,0.00,VWS V14.01,2013-01-23 03:02:00,
2013-01-22 22:03:00,27.1,11.8,30.15,NNW,338,1.1,1.1,52,0.00,,CLR,0.00,VWS V14.01,2013-01-23 03:03:00,
2013-01-22 22:04:00,27.1,11.8,30.15,NNW,338,1.1,1.1,52,0.00,,CLR,0.00,VWS V14.01,2013-01-23 03:04:00,
2013-01-22 22:05:00,27.1,11.8,30.15,NNW,338,1.3,1.3,52,0.00,,CLR,0.00,VWS V14.01,2013-01-23 03:05:00,
2013-01-22 22:06:00,27.3,12.0,30.15,NNW,338,0.0,0.0,52,0.00,,CLR,0.00,VWS V14.01,2013-01-23 03:06:00,
2013-01-22 22:07:00,27.3,12.0,30.15,NNW,338,0.0,0.0,52,0.00,,CLR,0.00,VWS V14.01,2013-01-23 03:07:00,
2013-01-22 22:08:00,27.5,12.2,30.15,NNW,338,1.3,1.3,52,0.00,,CLR,0.00,VWS V14.01,2013-01-23 03:08:00,
2013-01-22 22:09:00,27.5,12.2,30.15,NNW,338,1.3,1.3,52,0.00,,CLR,0.00,VWS V14.01,2013-01-23 03:09:00,
2013-01-22 22:10:00,27.6,12.3,30.15,NNW,338,1.1,1.1,52,0.00,,CLR,0.00,VWS V14.01,2013-01-23 03:10:00,
2013-01-22 22:11:00,27.6,12.3,30.15,NNE,22,1.1,1.1,52,0.00,,CLR,0.00,VWS V14.01,2013-01-23 03:11:00,
2013-01-22 22:12:00,27.6,12.3,30.15,NNW,338,2.0,2.0,52,0.00,,CLR,0.00,VWS V14.01,2013-01-23 03:12:00,
2013-01-22 22:13:00,27.6,12.3,30.15,NW,315,1.3,1.3,52,0.00,,CLR,0.00,VWS V14.01,2013-01-23 03:13:00,
2013-01-22 22:14:00,27.6,12.3,30.15,NW,315,1.3,1.3,52,0.00,,CLR,0.00,VWS V14.01,2013-01-23 03:14:00,
2013-01-22 22:15:00,28.0,12.7,30.15,NNW,338,2.0,2.0,52,0.00,,CLR,0.00,VWS V14.01,2013-01-23 03:15:00,
2013-01-22 22:17:00,28.2,12.8,30.15,NW,315,1.6,1.6,52,0.00,,CLR,0.00,VWS V14.01,2013-01-23 03:17:00,
2013-01-22 22:18:00,28.2,12.8,30.15,NW,315,0.9,0.9,52,0.00,,CLR,0.00,VWS V14.01,2013-01-23 03:18:00,
2013-01-22 22:19:00,28.2,12.8,30.15,NW,315,0.9,0.9,52,0.00,,CLR,0.00,VWS V14.01,2013-01-23 03:19:00,
2013-01-22 22:20:00,28.2,12.8,30.15,NW,315,0.9,0.9,52,0.00,,CLR,0.00,VWS V14.01,2013-01-23 03:20:00,
2013-01-22 22:21:00,28.2,12.8,30.15,NW,315,0.0,0.0,52,0.00,,CLR,0.00,VWS V14.01,2013-01-23 03:21:00,
2013-01-22 22:22:00,28.0,12.7,30.15,NNW,338,0.0,0.0,52,0.00,,CLR,0.00,VWS V14.01,2013-01-23 03:22:00,
2013-01-22 22:23:00,28.0,12.7,30.15,NNW,338,0.0,0.0,52,0.00,,CLR,0.00,VWS V14.01,2013-01-23 03:23:00,
2013-01-22 22:24:00,28.0,12.7,30.15,NNW,338,0.0,0.0,52,0.00,,CLR,0.00,VWS V14.01,2013-01-23 03:24:00,
2013-01-22 22:25:00,28.0,12.7,30.15,NNW,338,0.0,0.0,52,0.00,,CLR,0.00,VWS V14.01,2013-01-23 03:25:00,
2013-01-22 22:26:00,28.0,12.7,30.15,NNW,338,1.3,1.3,52,0.00,,CLR,0.00,VWS V14.01,2013-01-23 03:26:00,
2013-01-22 22:27:00,27.8,12.5,30.15,NNW,338,1.3,1.3,52,0.00,,CLR,0.00,VWS V14.01,2013-01-23 03:27:00,
2013-01-22 22:28:00,27.8,12.5,30.15,North,0,1.3,1.3,52,0.00,,CLR,0.00,VWS V14.01,2013-01-23 03:28:00,
2013-01-22 22:29:00,27.8,12.5,30.15,North,0,1.3,1.3,52,0.00,,CLR,0.00,VWS V14.01,2013-01-23 03:29:00,
2013-01-22 22:30:00,27.8,12.5,30.15,North,0,1.1,1.1,52,0.00,,CLR,0.00,VWS V14.01,2013-01-23 03:30:00,
2013-01-22 22:31:00,28.0,12.7,30.15,NNW,338,1.6,1.6,52,0.00,,CLR,0.00,VWS V14.01,2013-01-23 03:31:00,
2013-01-22 22:32:00,28.0,12.7,30.15,NNW,338,1.3,1.3,52,0.00,,CLR,0.00,VWS V14.01,2013-01-23 03:32:00,
2013-01-22 22:33:00,28.0,12.7,30.15,NNW,338,1.1,1.1,52,0.00,,CLR,0.00,VWS V14.01,2013-01-23 03:33:00,
2013-01-22 22:34:00,28.0,12.7,30.15,NNW,338,1.1,1.1,52,0.00,,CLR,0.00,VWS V14.01,2013-01-23 03:34:00,
2013-01-22 22:35:00,28.0,12.7,30.15,NNW,338,2.0,2.0,52,0.00,,CLR,0.00,VWS V14.01,2013-01-23 03:35:00,
2013-01-22 22:36:00,28.0,12.7,30.15,NNW,338,1.1,1.1,52,0.00,,CLR,0.00,VWS V14.01,2013-01-23 03:36:00,
2013-01-22 22:37:00,28.0,12.7,30.15,NNE,22,4.0,4.0,52,0.00,,CLR,0.00,VWS V14.01,2013-01-23 03:37:00,
2013-01-22 22:38:00,28.0,12.7,30.15,NNE,22,3.6,3.6,52,0.00,,CLR,0.00,VWS V14.01,2013-01-23 03:38:00,
2013-01-22 22:39:00,28.0,12.7,30.15,NNE,22,3.6,3.6,52,0.00,,CLR,0.00,VWS V14.01,2013-01-23 03:39:00,
2013-01-22 22:40:00,28.4,13.0,30.15,NNE,22,3.6,3.6,52,0.00,,CLR,0.00,VWS V14.01,2013-01-23 03:40:00,
2013-01-22 22:41:00,28.4,13.0,30.15,NNE,22,3.6,3.6,52,0.00,,CLR,0.00,VWS V14.01,2013-01-23 03:41:00,
2013-01-22 22:42:00,28.5,13.2,30.15,NNE,22,2.9,2.9,52,0.00,,CLR,0.00,VWS V14.01,2013-01-23 03:42:00,
2013-01-22 22:43:00,28.5,13.2,30.15,NNE,22,2.7,2.7,52,0.00,,CLR,0.00,VWS V14.01,2013-01-23 03:43:00,
2013-01-22 22:44:00,28.5,13.2,30.15,NNE,22,2.7,2.7,52,0.00,,CLR,0.00,VWS V14.01,2013-01-23 03:44:00,
2013-01-22 22:45:00,28.7,13.3,30.15,NNE,22,2.9,2.9,52,0.00,,CLR,0.00,VWS V14.01,2013-01-23 03:45:00,
2013-01-22 22:46:00,28.7,13.3,30.15,NE,45,3.4,3.4,52,0.00,,CLR,0.00,VWS V14.01,2013-01-23 03:46:00,
2013-01-22 22:47:00,28.9,13.5,30.15,NNE,22,3.6,3.6,52,0.00,,CLR,0.00,VWS V14.01,2013-01-23 03:47:00,
2013-01-22 22:48:00,28.9,13.5,30.15,NE,45,3.1,3.1,52,0.00,,CLR,0.00,VWS V14.01,2013-01-23 03:48:00,
2013-01-22 22:49:00,28.9,13.5,30.15,NE,45,3.1,3.1,52,0.00,,CLR,0.00,VWS V14.01,2013-01-23 03:49:00,
2013-01-22 22:50:00,28.7,13.3,30.15,NE,45,2.7,2.7,52,0.00,,CLR,0.00,VWS V14.01,2013-01-23 03:50:00,
2013-01-22 22:51:00,28.7,13.3,30.15,NE,45,3.1,3.1,52,0.00,,CLR,0.00,VWS V14.01,2013-01-23 03:51:00,
2013-01-22 22:52:00,28.7,13.3,30.15,NE,45,2.7,2.7,52,0.00,,CLR,0.00,VWS V14.01,2013-01-23 03:52:00,
2013-01-22 22:53:00,28.5,13.2,30.15,NE,45,3.4,3.4,52,0.00,,CLR,0.00,VWS V14.01,2013-01-23 03:53:00,
2013-01-22 22:54:00,28.5,13.2,30.15,NE,45,3.4,3.4,52,0.00,,CLR,0.00,VWS V14.01,2013-01-23 03:54:00,
2013-01-22 22:55:00,28.5,13.2,30.15,NNE,22,2.0,2.0,52,0.00,,CLR,0.00,VWS V14.01,2013-01-23 03:55:00,
2013-01-22 22:56:00,28.5,13.2,30.15,NNE,22,2.9,2.9,52,0.00,,CLR,0.00,VWS V14.01,2013-01-23 03:56:00,
2013-01-22 22:57:00,28.5,13.2,30.15,NE,45,4.0,4.0,52,0.00,,CLR,0.00,VWS V14.01,2013-01-23 03:57:00,
2013-01-22 22:58:00,28.5,13.2,30.15,NNE,22,2.2,2.2,52,0.00,,CLR,0.00,VWS V14.01,2013-01-23 03:58:00,
2013-01-22 22:59:00,28.5,13.2,30.15,NNE,22,2.2,2.2,52,0.00,,CLR,0.00,VWS V14.01,2013-01-23 03:59:00,
2013-01-22 23:00:00,28.5,13.2,30.15,NE,45,2.7,2.7,52,0.00,,CLR,0.00,VWS V14.01,2013-01-23 04:00:00,
2013-01-22 23:01:00,28.5,13.2,30.15,NE,45,2.9,2.9,52,0.00,,CLR,0.00,VWS V14.01,2013-01-23 04:01:00,
2013-01-22 23:02:00,28.5,13.2,30.15,NE,45,3.4,3.4,52,0.00,,CLR,0.00,VWS V14.01,2013-01-23 04:02:00,
2013-01-22 23:03:00,28.5,13.2,30.15,NE,45,2.5,2.5,52,0.00,,CLR,0.00,VWS V14.01,2013-01-23 04:03:00,
2013-01-22 23:04:00,28.5,13.2,30.15,NE,45,2.5,2.5,52,0.00,,CLR,0.00,VWS V14.01,2013-01-23 04:04:00,
2013-01-22 23:05:00,28.4,13.0,30.15,NE,45,2.9,2.9,52,0.00,,CLR,0.00,VWS V14.01,2013-01-23 04:05:00,
2013-01-22 23:06:00,28.4,13.0,30.15,NE,45,3.1,3.1,52,0.00,,CLR,0.00,VWS V14.01,2013-01-23 04:06:00,
2013-01-22 23:07:00,28.4,13.0,30.15,NE,45,4.0,4.0,52,0.00,,CLR,0.00,VWS V14.01,2013-01-23 04:07:00,
2013-01-22 23:08:00,28.4,13.0,30.15,NNE,22,3.8,3.8,52,0.00,,CLR,0.00,VWS V14.01,2013-01-23 04:08:00,
2013-01-22 23:09:00,28.4,13.0,30.15,NE,45,2.9,2.9,52,0.00,,CLR,0.00,VWS V14.01,2013-01-23 04:09:00,
2013-01-22 23:10:00,28.4,13.0,30.15,NNE,22,2.7,2.7,52,0.00,,CLR,0.00,VWS V14.01,2013-01-23 04:10:00,
2013-01-22 23:11:00,28.2,12.8,30.15,NE,45,3.4,3.4,52,0.00,,CLR,0.00,VWS V14.01,2013-01-23 04:11:00,
2013-01-22 23:12:00,28.2,12.8,30.15,NNE,22,6.0,6.0,52,0.00,,CLR,0.00,VWS V14.01,2013-01-23 04:12:00,
2013-01-22 23:13:00,28.2,12.8,30.15,NE,45,3.1,3.1,52,0.00,,CLR,0.00,VWS V14.01,2013-01-23 04:13:00,
2013-01-22 23:14:00,28.2,12.8,30.15,NE,45,4.3,4.3,52,0.00,,CLR,0.00,VWS V14.01,2013-01-23 04:14:00,
2013-01-22 23:15:00,28.2,12.8,30.15,NE,45,4.0,4.0,52,0.00,,CLR,0.00,VWS V14.01,2013-01-23 04:15:00,
2013-01-22 23:16:00,28.2,12.8,30.15,NNE,22,3.1,3.1,52,0.00,,CLR,0.00,VWS V14.01,2013-01-23 04:16:00,
2013-01-22 23:17:00,28.2,12.8,30.15,NNE,22,3.6,3.6,52,0.00,,CLR,0.00,VWS V14.01,2013-01-23 04:17:00,
2013-01-22 23:18:00,28.2,12.8,30.15,NNE,22,2.9,2.9,52,0.00,,CLR,0.00,VWS V14.01,2013-01-23 04:18:00,
2013-01-22 23:19:00,28.2,12.8,30.15,NE,45,3.6,3.6,52,0.00,,CLR,0.00,VWS V14.01,2013-01-23 04:19:00,
2013-01-22 23:20:00,28.2,12.8,30.15,NNE,22,2.7,2.7,52,0.00,,CLR,0.00,VWS V14.01,2013-01-23 04:20:00,
2013-01-22 23:21:00,28.2,12.8,30.15,NNE,22,3.4,3.4,52,0.00,,CLR,0.00,VWS V14.01,2013-01-23 04:21:00,
2013-01-22 23:22:00,28.2,12.8,30.15,NNE,22,2.5,2.5,52,0.00,,CLR,0.00,VWS V14.01,2013-01-23 04:22:00,
2013-01-22 23:23:00,28.2,12.8,30.15,NNE,22,3.4,3.4,52,0.00,,CLR,0.00,VWS V14.01,2013-01-23 04:23:00,
2013-01-22 23:24:00,28.2,12.8,30.15,NNE,22,4.0,4.0,52,0.00,,CLR,0.00,VWS V14.01,2013-01-23 04:24:00,
2013-01-22 23:25:00,28.2,12.8,30.15,NNE,22,3.1,3.1,52,0.00,,CLR,0.00,VWS V14.01,2013-01-23 04:25:00,
2013-01-22 23:26:00,28.0,12.7,30.15,NNE,22,3.4,3.4,52,0.00,,CLR,0.00,VWS V14.01,2013-01-23 04:26:00,
2013-01-22 23:27:00,28.0,12.7,30.15,NNE,22,3.8,3.8,52,0.00,,CLR,0.00,VWS V14.01,2013-01-23 04:27:00,
2013-01-22 23:28:00,28.2,12.8,30.15,NE,45,2.9,2.9,52,0.00,,CLR,0.00,VWS V14.01,2013-01-23 04:28:00,
2013-01-22 23:29:00,28.2,12.8,30.15,NNE,22,3.4,3.4,52,0.00,,CLR,0.00,VWS V14.01,2013-01-23 04:29:00,
2013-01-22 23:30:00,28.2,12.8,30.15,NNE,22,3.4,3.4,52,0.00,,CLR,0.00,VWS V14.01,2013-01-23 04:30:00,
2013-01-22 23:31:00,28.0,12.7,30.15,NNE,22,2.9,2.9,52,0.00,,CLR,0.00,VWS V14.01,2013-01-23 04:31:00,
2013-01-22 23:32:00,28.0,12.7,30.15,NNE,22,2.7,2.7,52,0.00,,CLR,0.00,VWS V14.01,2013-01-23 04:32:00,
2013-01-22 23:33:00,28.0,12.7,30.15,NE,45,3.1,3.1,52,0.00,,CLR,0.00,VWS V14.01,2013-01-23 04:33:00,
2013-01-22 23:34:00,28.0,12.7,30.15,NE,45,4.0,4.0,52,0.00,,CLR,0.00,VWS V14.01,2013-01-23 04:34:00,
2013-01-22 23:35:00,28.0,12.7,30.15,NNE,22,3.1,3.1,52,0.00,,CLR,0.00,VWS V14.01,2013-01-23 04:35:00,
2013-01-22 23:36:00,28.0,12.7,30.15,North,0,2.9,2.9,52,0.00,,CLR,0.00,VWS V14.01,2013-01-23 04:36:00,
2013-01-22 23:37:00,28.0,12.7,30.15,NNE,22,1.6,1.6,52,0.00,,CLR,0.00,VWS V14.01,2013-01-23 04:37:00,
2013-01-22 23:38:00,27.8,12.5,30.15,North,0,2.5,2.5,52,0.00,,CLR,0.00,VWS V14.01,2013-01-23 04:38:00,
2013-01-22 23:39:00,27.6,12.3,30.15,NNE,22,2.5,2.5,52,0.00,,CLR,0.00,VWS V14.01,2013-01-23 04:39:00,
2013-01-22 23:40:00,27.6,12.3,30.15,NNE,22,2.5,2.5,52,0.00,,CLR,0.00,VWS V14.01,2013-01-23 04:40:00,
2013-01-22 23:41:00,27.6,12.3,30.15,NNE,22,1.3,1.3,52,0.00,,CLR,0.00,VWS V14.01,2013-01-23 04:41:00,
2013-01-22 23:42:00,27.6,12.3,30.15,NNE,22,4.0,4.0,52,0.00,,CLR,0.00,VWS V14.01,2013-01-23 04:42:00,
2013-01-22 23:43:00,27.6,12.3,30.15,NNE,22,3.4,3.4,52,0.00,,CLR,0.00,VWS V14.01,2013-01-23 04:43:00,
2013-01-22 23:44:00,27.6,12.3,30.15,NNE,22,2.9,2.9,52,0.00,,CLR,0.00,VWS V14.01,2013-01-23 04:44:00,
2013-01-22 23:45:00,27.6,12.3,30.15,NNE,22,2.9,2.9,52,0.00,,CLR,0.00,VWS V14.01,2013-01-23 04:45:00,
2013-01-22 23:46:00,27.5,12.2,30.15,NE,45,1.6,1.6,52,0.00,,CLR,0.00,VWS V14.01,2013-01-23 04:46:00,
2013-01-22 23:47:00,27.5,12.2,30.15,NNE,22,2.0,2.0,52,0.00,,CLR,0.00,VWS V14.01,2013-01-23 04:47:00,
2013-01-22 23:48:00,27.5,12.2,30.15,NNE,22,2.0,2.0,52,0.00,,CLR,0.00,VWS V14.01,2013-01-23 04:48:00,
2013-01-22 23:49:00,27.5,12.2,30.15,NNE,22,2.5,2.5,52,0.00,,CLR,0.00,VWS V14.01,2013-01-23 04:49:00,
2013-01-22 23:50:00,27.5,12.2,30.15,NNE,22,2.5,2.5,52,0.00,,CLR,0.00,VWS V14.01,2013-01-23 04:50:00,
2013-01-22 23:51:00,27.3,12.0,30.15,NNE,22,2.7,2.7,52,0.00,,CLR,0.00,VWS V14.01,2013-01-23 04:51:00,
2013-01-22 23:52:00,27.3,12.0,30.15,NNE,22,2.0,2.0,52,0.00,,CLR,0.00,VWS V14.01,2013-01-23 04:52:00,
2013-01-22 23:53:00,27.3,12.0,30.15,NNE,22,1.6,1.6,52,0.00,,CLR,0.00,VWS V14.01,2013-01-23 04:53:00,
2013-01-22 23:54:00,27.1,11.8,30.15,NNE,22,1.6,1.6,52,0.00,,CLR,0.00,VWS V14.01,2013-01-23 04:54:00,
2013-01-22 23:55:00,27.1,11.8,30.15,NNE,22,1.6,1.6,52,0.00,,CLR,0.00,VWS V14.01,2013-01-23 04:55:00,
2013-01-22 23:56:00,27.1,11.8,30.15,NNE,22,2.0,2.0,52,0.00,,CLR,0.00,VWS V14.01,2013-01-23 04:56:00,
2013-01-22 23:57:00,27.1,11.8,30.15,NNE,22,1.1,1.1,52,0.00,,CLR,0.00,VWS V14.01,2013-01-23 04:57:00,
2013-01-22 23:58:00,27.1,11.8,30.15,NNE,22,1.1,1.1,52,0.00,,CLR,0.00,VWS V14.01,2013-01-23 04:58:00,
2013-01-22 23:59:00,27.1,11.8,30.15,NNE,22,1.6,1.6,52,0.00,,CLR,0.00,VWS V14.01,2013-01-23 04:59:00,